<?xml version="1.0" encoding="UTF-8" standalone="no" ?>
<gpx xmlns="http://www.topografix.com/GPX/1/1" xmlns:xsi="http://www.w3.org/2001/XMLSchema-instance" xsi:schemaLocation="http://www.topografix.com/GPX/1/1 http://www.topografix.com/GPX/1/1/gpx.xsd" version="1.1" creator="VisuGPX - https://www.visugpx.com">
  <metadata>
    <name>Chemin de Saint-Guilhem</name>
    <desc><![CDATA[Première étape du chemin de Saint-Guilhem emprunté dans le sens contraire de la description du Topo-guide. De Saint-Guilhem le Désert au Rancas.
Relevé "terrain" sur iPad mini avec IphiGéNie
Pour en savoir plus (photos, commentaires) voir notre site :
http://www.la-marche-au-long-cours.fr/crbst_54.html]]></desc>
  </metadata>
  <trk>
    <name><![CDATA[St Guilhem - Ranquas]]></name>
    <cmt><![CDATA[15 avr. 2016 07:34:42]]></cmt>
    <trkseg>
      <trkpt lat="43.73445" lon="3.54838">
        <ele>128</ele>
        <time>2016-04-15T05:39:23Z</time>
      </trkpt>
      <trkpt lat="43.73454" lon="3.54835">
        <ele>115</ele>
        <time>2016-04-15T05:39:29Z</time>
      </trkpt>
      <trkpt lat="43.73469" lon="3.5482">
        <ele>100</ele>
        <time>2016-04-15T05:39:44Z</time>
      </trkpt>
      <trkpt lat="43.73479" lon="3.54813">
        <ele>101</ele>
        <time>2016-04-15T05:39:52Z</time>
      </trkpt>
      <trkpt lat="43.73494" lon="3.54807">
        <ele>105</ele>
        <time>2016-04-15T05:40:08Z</time>
      </trkpt>
      <trkpt lat="43.73514" lon="3.54802">
        <ele>102</ele>
        <time>2016-04-15T05:40:26Z</time>
      </trkpt>
      <trkpt lat="43.73519" lon="3.54806">
        <ele>102</ele>
        <time>2016-04-15T05:40:31Z</time>
      </trkpt>
      <trkpt lat="43.73524" lon="3.54818">
        <ele>100</ele>
        <time>2016-04-15T05:40:40Z</time>
      </trkpt>
      <trkpt lat="43.73538" lon="3.54835">
        <ele>97</ele>
        <time>2016-04-15T05:41:04Z</time>
      </trkpt>
      <trkpt lat="43.73541" lon="3.54833">
        <ele>97</ele>
        <time>2016-04-15T05:41:12Z</time>
      </trkpt>
      <trkpt lat="43.73544" lon="3.54832">
        <ele>98</ele>
        <time>2016-04-15T05:41:18Z</time>
      </trkpt>
      <trkpt lat="43.73548" lon="3.54836">
        <ele>99</ele>
        <time>2016-04-15T05:41:27Z</time>
      </trkpt>
      <trkpt lat="43.73555" lon="3.5484">
        <ele>97</ele>
        <time>2016-04-15T05:41:37Z</time>
      </trkpt>
      <trkpt lat="43.73559" lon="3.54844">
        <ele>97</ele>
        <time>2016-04-15T05:41:43Z</time>
      </trkpt>
      <trkpt lat="43.73563" lon="3.54846">
        <ele>97</ele>
        <time>2016-04-15T05:41:51Z</time>
      </trkpt>
      <trkpt lat="43.73568" lon="3.54847">
        <ele>97</ele>
        <time>2016-04-15T05:41:58Z</time>
      </trkpt>
      <trkpt lat="43.73578" lon="3.54847">
        <ele>101</ele>
        <time>2016-04-15T05:42:18Z</time>
      </trkpt>
      <trkpt lat="43.73587" lon="3.54843">
        <ele>100</ele>
        <time>2016-04-15T05:42:30Z</time>
      </trkpt>
      <trkpt lat="43.73591" lon="3.54839">
        <ele>101</ele>
        <time>2016-04-15T05:42:38Z</time>
      </trkpt>
      <trkpt lat="43.73598" lon="3.54835">
        <ele>102</ele>
        <time>2016-04-15T05:42:51Z</time>
      </trkpt>
      <trkpt lat="43.736" lon="3.5484">
        <ele>103</ele>
        <time>2016-04-15T05:42:56Z</time>
      </trkpt>
      <trkpt lat="43.736" lon="3.54846">
        <ele>104</ele>
        <time>2016-04-15T05:43:03Z</time>
      </trkpt>
      <trkpt lat="43.73598" lon="3.54852">
        <ele>107</ele>
        <time>2016-04-15T05:43:11Z</time>
      </trkpt>
      <trkpt lat="43.73595" lon="3.54857">
        <ele>107</ele>
        <time>2016-04-15T05:43:19Z</time>
      </trkpt>
      <trkpt lat="43.73579" lon="3.54872">
        <ele>114</ele>
        <time>2016-04-15T05:43:52Z</time>
      </trkpt>
      <trkpt lat="43.73576" lon="3.54877">
        <ele>114</ele>
        <time>2016-04-15T05:43:58Z</time>
      </trkpt>
      <trkpt lat="43.73572" lon="3.54882">
        <ele>114</ele>
        <time>2016-04-15T05:44:04Z</time>
      </trkpt>
      <trkpt lat="43.73575" lon="3.54886">
        <ele>114</ele>
        <time>2016-04-15T05:44:18Z</time>
      </trkpt>
      <trkpt lat="43.73579" lon="3.54883">
        <ele>115</ele>
        <time>2016-04-15T05:44:24Z</time>
      </trkpt>
      <trkpt lat="43.73596" lon="3.54867">
        <ele>121</ele>
        <time>2016-04-15T05:44:52Z</time>
      </trkpt>
      <trkpt lat="43.73594" lon="3.54868">
        <ele>123</ele>
        <time>2016-04-15T05:45:46Z</time>
      </trkpt>
      <trkpt lat="43.73593" lon="3.54873">
        <ele>126</ele>
        <time>2016-04-15T05:46:18Z</time>
      </trkpt>
      <trkpt lat="43.73599" lon="3.54872">
        <ele>127</ele>
        <time>2016-04-15T05:46:32Z</time>
      </trkpt>
      <trkpt lat="43.736" lon="3.54884">
        <ele>129</ele>
        <time>2016-04-15T05:46:43Z</time>
      </trkpt>
      <trkpt lat="43.73605" lon="3.54885">
        <ele>128</ele>
        <time>2016-04-15T05:46:50Z</time>
      </trkpt>
      <trkpt lat="43.73609" lon="3.54887">
        <ele>128</ele>
        <time>2016-04-15T05:46:59Z</time>
      </trkpt>
      <trkpt lat="43.73613" lon="3.54893">
        <ele>128</ele>
        <time>2016-04-15T05:47:23Z</time>
      </trkpt>
      <trkpt lat="43.73625" lon="3.54904">
        <ele>131</ele>
        <time>2016-04-15T05:47:46Z</time>
      </trkpt>
      <trkpt lat="43.73649" lon="3.54904">
        <ele>140</ele>
        <time>2016-04-15T05:48:19Z</time>
      </trkpt>
      <trkpt lat="43.73671" lon="3.54888">
        <ele>144</ele>
        <time>2016-04-15T05:48:55Z</time>
      </trkpt>
      <trkpt lat="43.7369" lon="3.54889">
        <ele>146</ele>
        <time>2016-04-15T05:49:36Z</time>
      </trkpt>
      <trkpt lat="43.73699" lon="3.54885">
        <ele>147</ele>
        <time>2016-04-15T05:49:50Z</time>
      </trkpt>
      <trkpt lat="43.73705" lon="3.54886">
        <ele>153</ele>
        <time>2016-04-15T05:50:10Z</time>
      </trkpt>
      <trkpt lat="43.73712" lon="3.54877">
        <ele>159</ele>
        <time>2016-04-15T05:50:29Z</time>
      </trkpt>
      <trkpt lat="43.73719" lon="3.54858">
        <ele>168</ele>
        <time>2016-04-15T05:51:19Z</time>
      </trkpt>
      <trkpt lat="43.7372" lon="3.54854">
        <ele>168</ele>
        <time>2016-04-15T05:51:26Z</time>
      </trkpt>
      <trkpt lat="43.73726" lon="3.54847">
        <ele>169</ele>
        <time>2016-04-15T05:51:42Z</time>
      </trkpt>
      <trkpt lat="43.73726" lon="3.5485">
        <ele>171</ele>
        <time>2016-04-15T05:52:17Z</time>
      </trkpt>
      <trkpt lat="43.73729" lon="3.54851">
        <ele>171</ele>
        <time>2016-04-15T05:52:35Z</time>
      </trkpt>
      <trkpt lat="43.73747" lon="3.54839">
        <ele>172</ele>
        <time>2016-04-15T05:53:05Z</time>
      </trkpt>
      <trkpt lat="43.73764" lon="3.54825">
        <ele>173</ele>
        <time>2016-04-15T05:53:35Z</time>
      </trkpt>
      <trkpt lat="43.73767" lon="3.54821">
        <ele>173</ele>
        <time>2016-04-15T05:53:42Z</time>
      </trkpt>
      <trkpt lat="43.73773" lon="3.54809">
        <ele>172</ele>
        <time>2016-04-15T05:53:55Z</time>
      </trkpt>
      <trkpt lat="43.73774" lon="3.54803">
        <ele>171</ele>
        <time>2016-04-15T05:54:02Z</time>
      </trkpt>
      <trkpt lat="43.73776" lon="3.54799">
        <ele>172</ele>
        <time>2016-04-15T05:54:10Z</time>
      </trkpt>
      <trkpt lat="43.73778" lon="3.54796">
        <ele>176</ele>
        <time>2016-04-15T05:57:54Z</time>
      </trkpt>
      <trkpt lat="43.73775" lon="3.54791">
        <ele>177</ele>
        <time>2016-04-15T05:58:03Z</time>
      </trkpt>
      <trkpt lat="43.73772" lon="3.54786">
        <ele>179</ele>
        <time>2016-04-15T05:58:10Z</time>
      </trkpt>
      <trkpt lat="43.73773" lon="3.54779">
        <ele>182</ele>
        <time>2016-04-15T05:58:32Z</time>
      </trkpt>
      <trkpt lat="43.73771" lon="3.54758">
        <ele>184</ele>
        <time>2016-04-15T05:58:51Z</time>
      </trkpt>
      <trkpt lat="43.73769" lon="3.54753">
        <ele>184</ele>
        <time>2016-04-15T05:58:58Z</time>
      </trkpt>
      <trkpt lat="43.73772" lon="3.54755">
        <ele>184</ele>
        <time>2016-04-15T05:59:13Z</time>
      </trkpt>
      <trkpt lat="43.73774" lon="3.54759">
        <ele>186</ele>
        <time>2016-04-15T05:59:51Z</time>
      </trkpt>
      <trkpt lat="43.73777" lon="3.54764">
        <ele>186</ele>
        <time>2016-04-15T05:59:59Z</time>
      </trkpt>
      <trkpt lat="43.73782" lon="3.54774">
        <ele>190</ele>
        <time>2016-04-15T06:00:12Z</time>
      </trkpt>
      <trkpt lat="43.73787" lon="3.54786">
        <ele>190</ele>
        <time>2016-04-15T06:00:27Z</time>
      </trkpt>
      <trkpt lat="43.73795" lon="3.54811">
        <ele>188</ele>
        <time>2016-04-15T06:01:04Z</time>
      </trkpt>
      <trkpt lat="43.73796" lon="3.54818">
        <ele>189</ele>
        <time>2016-04-15T06:01:13Z</time>
      </trkpt>
      <trkpt lat="43.73795" lon="3.54824">
        <ele>189</ele>
        <time>2016-04-15T06:01:20Z</time>
      </trkpt>
      <trkpt lat="43.73793" lon="3.5483">
        <ele>192</ele>
        <time>2016-04-15T06:01:30Z</time>
      </trkpt>
      <trkpt lat="43.7379" lon="3.54836">
        <ele>192</ele>
        <time>2016-04-15T06:01:43Z</time>
      </trkpt>
      <trkpt lat="43.73788" lon="3.54843">
        <ele>193</ele>
        <time>2016-04-15T06:01:49Z</time>
      </trkpt>
      <trkpt lat="43.73786" lon="3.54849">
        <ele>192</ele>
        <time>2016-04-15T06:01:55Z</time>
      </trkpt>
      <trkpt lat="43.73784" lon="3.54855">
        <ele>193</ele>
        <time>2016-04-15T06:02:02Z</time>
      </trkpt>
      <trkpt lat="43.73778" lon="3.54865">
        <ele>194</ele>
        <time>2016-04-15T06:02:17Z</time>
      </trkpt>
      <trkpt lat="43.73773" lon="3.54876">
        <ele>195</ele>
        <time>2016-04-15T06:02:31Z</time>
      </trkpt>
      <trkpt lat="43.7377" lon="3.5489">
        <ele>195</ele>
        <time>2016-04-15T06:02:44Z</time>
      </trkpt>
      <trkpt lat="43.73768" lon="3.54913">
        <ele>199</ele>
        <time>2016-04-15T06:03:16Z</time>
      </trkpt>
      <trkpt lat="43.73774" lon="3.54915">
        <ele>199</ele>
        <time>2016-04-15T06:03:41Z</time>
      </trkpt>
      <trkpt lat="43.73776" lon="3.5491">
        <ele>199</ele>
        <time>2016-04-15T06:03:47Z</time>
      </trkpt>
      <trkpt lat="43.73778" lon="3.54903">
        <ele>198</ele>
        <time>2016-04-15T06:03:54Z</time>
      </trkpt>
      <trkpt lat="43.73779" lon="3.54897">
        <ele>199</ele>
        <time>2016-04-15T06:04:01Z</time>
      </trkpt>
      <trkpt lat="43.73783" lon="3.54882">
        <ele>205</ele>
        <time>2016-04-15T06:04:23Z</time>
      </trkpt>
      <trkpt lat="43.73788" lon="3.54879">
        <ele>210</ele>
        <time>2016-04-15T06:04:51Z</time>
      </trkpt>
      <trkpt lat="43.73787" lon="3.54885">
        <ele>212</ele>
        <time>2016-04-15T06:05:05Z</time>
      </trkpt>
      <trkpt lat="43.73788" lon="3.54892">
        <ele>212</ele>
        <time>2016-04-15T06:05:12Z</time>
      </trkpt>
      <trkpt lat="43.73791" lon="3.54897">
        <ele>211</ele>
        <time>2016-04-15T06:05:19Z</time>
      </trkpt>
      <trkpt lat="43.73791" lon="3.54906">
        <ele>216</ele>
        <time>2016-04-15T06:05:45Z</time>
      </trkpt>
      <trkpt lat="43.73797" lon="3.54908">
        <ele>215</ele>
        <time>2016-04-15T06:05:58Z</time>
      </trkpt>
      <trkpt lat="43.73799" lon="3.54903">
        <ele>216</ele>
        <time>2016-04-15T06:06:07Z</time>
      </trkpt>
      <trkpt lat="43.73803" lon="3.54901">
        <ele>218</ele>
        <time>2016-04-15T06:06:15Z</time>
      </trkpt>
      <trkpt lat="43.73807" lon="3.54897">
        <ele>218</ele>
        <time>2016-04-15T06:06:22Z</time>
      </trkpt>
      <trkpt lat="43.73813" lon="3.54888">
        <ele>218</ele>
        <time>2016-04-15T06:06:36Z</time>
      </trkpt>
      <trkpt lat="43.73816" lon="3.54882">
        <ele>218</ele>
        <time>2016-04-15T06:06:44Z</time>
      </trkpt>
      <trkpt lat="43.7382" lon="3.54878">
        <ele>218</ele>
        <time>2016-04-15T06:06:53Z</time>
      </trkpt>
      <trkpt lat="43.73828" lon="3.54869">
        <ele>218</ele>
        <time>2016-04-15T06:07:10Z</time>
      </trkpt>
      <trkpt lat="43.7383" lon="3.54863">
        <ele>219</ele>
        <time>2016-04-15T06:07:19Z</time>
      </trkpt>
      <trkpt lat="43.73831" lon="3.54857">
        <ele>218</ele>
        <time>2016-04-15T06:07:26Z</time>
      </trkpt>
      <trkpt lat="43.73842" lon="3.54835">
        <ele>219</ele>
        <time>2016-04-15T06:07:56Z</time>
      </trkpt>
      <trkpt lat="43.73846" lon="3.5483">
        <ele>219</ele>
        <time>2016-04-15T06:08:03Z</time>
      </trkpt>
      <trkpt lat="43.73857" lon="3.5481">
        <ele>226</ele>
        <time>2016-04-15T06:08:54Z</time>
      </trkpt>
      <trkpt lat="43.7386" lon="3.54805">
        <ele>227</ele>
        <time>2016-04-15T06:09:00Z</time>
      </trkpt>
      <trkpt lat="43.73863" lon="3.548">
        <ele>227</ele>
        <time>2016-04-15T06:09:05Z</time>
      </trkpt>
      <trkpt lat="43.73866" lon="3.54794">
        <ele>226</ele>
        <time>2016-04-15T06:09:11Z</time>
      </trkpt>
      <trkpt lat="43.73876" lon="3.5478">
        <ele>232</ele>
        <time>2016-04-15T06:09:36Z</time>
      </trkpt>
      <trkpt lat="43.73883" lon="3.54771">
        <ele>232</ele>
        <time>2016-04-15T06:09:48Z</time>
      </trkpt>
      <trkpt lat="43.73898" lon="3.54754">
        <ele>240</ele>
        <time>2016-04-15T06:10:21Z</time>
      </trkpt>
      <trkpt lat="43.73901" lon="3.54749">
        <ele>240</ele>
        <time>2016-04-15T06:10:28Z</time>
      </trkpt>
      <trkpt lat="43.73903" lon="3.54736">
        <ele>238</ele>
        <time>2016-04-15T06:10:41Z</time>
      </trkpt>
      <trkpt lat="43.73902" lon="3.54729">
        <ele>238</ele>
        <time>2016-04-15T06:10:50Z</time>
      </trkpt>
      <trkpt lat="43.73907" lon="3.54727">
        <ele>239</ele>
        <time>2016-04-15T06:10:59Z</time>
      </trkpt>
      <trkpt lat="43.7391" lon="3.54722">
        <ele>238</ele>
        <time>2016-04-15T06:11:05Z</time>
      </trkpt>
      <trkpt lat="43.73918" lon="3.54715">
        <ele>236</ele>
        <time>2016-04-15T06:11:17Z</time>
      </trkpt>
      <trkpt lat="43.73921" lon="3.54709">
        <ele>235</ele>
        <time>2016-04-15T06:11:23Z</time>
      </trkpt>
      <trkpt lat="43.7394" lon="3.54686">
        <ele>235</ele>
        <time>2016-04-15T06:11:51Z</time>
      </trkpt>
      <trkpt lat="43.73947" lon="3.54677">
        <ele>236</ele>
        <time>2016-04-15T06:12:02Z</time>
      </trkpt>
      <trkpt lat="43.7395" lon="3.54672">
        <ele>236</ele>
        <time>2016-04-15T06:12:07Z</time>
      </trkpt>
      <trkpt lat="43.73953" lon="3.54667">
        <ele>237</ele>
        <time>2016-04-15T06:12:13Z</time>
      </trkpt>
      <trkpt lat="43.73957" lon="3.54663">
        <ele>236</ele>
        <time>2016-04-15T06:12:19Z</time>
      </trkpt>
      <trkpt lat="43.73961" lon="3.54658">
        <ele>236</ele>
        <time>2016-04-15T06:12:24Z</time>
      </trkpt>
      <trkpt lat="43.73975" lon="3.54644">
        <ele>236</ele>
        <time>2016-04-15T06:12:54Z</time>
      </trkpt>
      <trkpt lat="43.73978" lon="3.54639">
        <ele>235</ele>
        <time>2016-04-15T06:13:01Z</time>
      </trkpt>
      <trkpt lat="43.73982" lon="3.54636">
        <ele>235</ele>
        <time>2016-04-15T06:13:08Z</time>
      </trkpt>
      <trkpt lat="43.73986" lon="3.54631">
        <ele>236</ele>
        <time>2016-04-15T06:13:16Z</time>
      </trkpt>
      <trkpt lat="43.73989" lon="3.54626">
        <ele>236</ele>
        <time>2016-04-15T06:13:23Z</time>
      </trkpt>
      <trkpt lat="43.74005" lon="3.546">
        <ele>242</ele>
        <time>2016-04-15T06:13:57Z</time>
      </trkpt>
      <trkpt lat="43.74012" lon="3.54591">
        <ele>243</ele>
        <time>2016-04-15T06:14:11Z</time>
      </trkpt>
      <trkpt lat="43.74019" lon="3.54582">
        <ele>245</ele>
        <time>2016-04-15T06:14:25Z</time>
      </trkpt>
      <trkpt lat="43.74019" lon="3.54569">
        <ele>245</ele>
        <time>2016-04-15T06:14:40Z</time>
      </trkpt>
      <trkpt lat="43.74021" lon="3.54562">
        <ele>245</ele>
        <time>2016-04-15T06:14:46Z</time>
      </trkpt>
      <trkpt lat="43.74022" lon="3.54555">
        <ele>245</ele>
        <time>2016-04-15T06:14:54Z</time>
      </trkpt>
      <trkpt lat="43.7402" lon="3.54529">
        <ele>254</ele>
        <time>2016-04-15T06:15:27Z</time>
      </trkpt>
      <trkpt lat="43.7402" lon="3.54523">
        <ele>255</ele>
        <time>2016-04-15T06:15:33Z</time>
      </trkpt>
      <trkpt lat="43.74018" lon="3.54502">
        <ele>254</ele>
        <time>2016-04-15T06:15:55Z</time>
      </trkpt>
      <trkpt lat="43.74024" lon="3.54482">
        <ele>251</ele>
        <time>2016-04-15T06:16:10Z</time>
      </trkpt>
      <trkpt lat="43.74031" lon="3.54472">
        <ele>248</ele>
        <time>2016-04-15T06:16:18Z</time>
      </trkpt>
      <trkpt lat="43.74034" lon="3.54467">
        <ele>248</ele>
        <time>2016-04-15T06:16:22Z</time>
      </trkpt>
      <trkpt lat="43.74048" lon="3.54446">
        <ele>250</ele>
        <time>2016-04-15T06:16:41Z</time>
      </trkpt>
      <trkpt lat="43.74052" lon="3.54443">
        <ele>249</ele>
        <time>2016-04-15T06:16:46Z</time>
      </trkpt>
      <trkpt lat="43.74062" lon="3.54443">
        <ele>250</ele>
        <time>2016-04-15T06:16:56Z</time>
      </trkpt>
      <trkpt lat="43.74071" lon="3.54444">
        <ele>251</ele>
        <time>2016-04-15T06:17:05Z</time>
      </trkpt>
      <trkpt lat="43.74076" lon="3.54442">
        <ele>252</ele>
        <time>2016-04-15T06:17:10Z</time>
      </trkpt>
      <trkpt lat="43.74078" lon="3.54436">
        <ele>252</ele>
        <time>2016-04-15T06:17:15Z</time>
      </trkpt>
      <trkpt lat="43.74076" lon="3.54422">
        <ele>255</ele>
        <time>2016-04-15T06:17:26Z</time>
      </trkpt>
      <trkpt lat="43.74078" lon="3.54413">
        <ele>256</ele>
        <time>2016-04-15T06:17:37Z</time>
      </trkpt>
      <trkpt lat="43.7408" lon="3.54407">
        <ele>257</ele>
        <time>2016-04-15T06:17:42Z</time>
      </trkpt>
      <trkpt lat="43.74083" lon="3.54401">
        <ele>256</ele>
        <time>2016-04-15T06:17:47Z</time>
      </trkpt>
      <trkpt lat="43.74086" lon="3.54389">
        <ele>256</ele>
        <time>2016-04-15T06:18:02Z</time>
      </trkpt>
      <trkpt lat="43.74089" lon="3.54383">
        <ele>256</ele>
        <time>2016-04-15T06:18:09Z</time>
      </trkpt>
      <trkpt lat="43.74093" lon="3.54378">
        <ele>256</ele>
        <time>2016-04-15T06:18:17Z</time>
      </trkpt>
      <trkpt lat="43.741" lon="3.54368">
        <ele>257</ele>
        <time>2016-04-15T06:18:45Z</time>
      </trkpt>
      <trkpt lat="43.74103" lon="3.54364">
        <ele>256</ele>
        <time>2016-04-15T06:18:54Z</time>
      </trkpt>
      <trkpt lat="43.7411" lon="3.54354">
        <ele>261</ele>
        <time>2016-04-15T06:19:15Z</time>
      </trkpt>
      <trkpt lat="43.74115" lon="3.54336">
        <ele>263</ele>
        <time>2016-04-15T06:19:44Z</time>
      </trkpt>
      <trkpt lat="43.74116" lon="3.54329">
        <ele>263</ele>
        <time>2016-04-15T06:19:51Z</time>
      </trkpt>
      <trkpt lat="43.74118" lon="3.54317">
        <ele>264</ele>
        <time>2016-04-15T06:20:04Z</time>
      </trkpt>
      <trkpt lat="43.74124" lon="3.54318">
        <ele>267</ele>
        <time>2016-04-15T06:20:19Z</time>
      </trkpt>
      <trkpt lat="43.74125" lon="3.54325">
        <ele>268</ele>
        <time>2016-04-15T06:20:28Z</time>
      </trkpt>
      <trkpt lat="43.74128" lon="3.54334">
        <ele>271</ele>
        <time>2016-04-15T06:20:39Z</time>
      </trkpt>
      <trkpt lat="43.74131" lon="3.54334">
        <ele>271</ele>
        <time>2016-04-15T06:20:46Z</time>
      </trkpt>
      <trkpt lat="43.74135" lon="3.54336">
        <ele>272</ele>
        <time>2016-04-15T06:24:22Z</time>
      </trkpt>
      <trkpt lat="43.74141" lon="3.54323">
        <ele>271</ele>
        <time>2016-04-15T06:24:57Z</time>
      </trkpt>
      <trkpt lat="43.74144" lon="3.54318">
        <ele>271</ele>
        <time>2016-04-15T06:25:04Z</time>
      </trkpt>
      <trkpt lat="43.74146" lon="3.54316">
        <ele>268</ele>
        <time>2016-04-15T06:25:21Z</time>
      </trkpt>
      <trkpt lat="43.74148" lon="3.54323">
        <ele>267</ele>
        <time>2016-04-15T06:25:38Z</time>
      </trkpt>
      <trkpt lat="43.74148" lon="3.5433">
        <ele>267</ele>
        <time>2016-04-15T06:25:48Z</time>
      </trkpt>
      <trkpt lat="43.7415" lon="3.54337">
        <ele>267</ele>
        <time>2016-04-15T06:26:00Z</time>
      </trkpt>
      <trkpt lat="43.74153" lon="3.54343">
        <ele>266</ele>
        <time>2016-04-15T06:26:07Z</time>
      </trkpt>
      <trkpt lat="43.74156" lon="3.5434">
        <ele>267</ele>
        <time>2016-04-15T06:26:33Z</time>
      </trkpt>
      <trkpt lat="43.74169" lon="3.54322">
        <ele>272</ele>
        <time>2016-04-15T06:27:02Z</time>
      </trkpt>
      <trkpt lat="43.74182" lon="3.54301">
        <ele>281</ele>
        <time>2016-04-15T06:27:38Z</time>
      </trkpt>
      <trkpt lat="43.74185" lon="3.54296">
        <ele>281</ele>
        <time>2016-04-15T06:27:44Z</time>
      </trkpt>
      <trkpt lat="43.74188" lon="3.54302">
        <ele>282</ele>
        <time>2016-04-15T06:27:52Z</time>
      </trkpt>
      <trkpt lat="43.7419" lon="3.54308">
        <ele>282</ele>
        <time>2016-04-15T06:27:59Z</time>
      </trkpt>
      <trkpt lat="43.74189" lon="3.54322">
        <ele>282</ele>
        <time>2016-04-15T06:28:13Z</time>
      </trkpt>
      <trkpt lat="43.74191" lon="3.54327">
        <ele>282</ele>
        <time>2016-04-15T06:28:20Z</time>
      </trkpt>
      <trkpt lat="43.74193" lon="3.54348">
        <ele>281</ele>
        <time>2016-04-15T06:28:40Z</time>
      </trkpt>
      <trkpt lat="43.74191" lon="3.54354">
        <ele>279</ele>
        <time>2016-04-15T06:28:46Z</time>
      </trkpt>
      <trkpt lat="43.74193" lon="3.54359">
        <ele>279</ele>
        <time>2016-04-15T06:28:54Z</time>
      </trkpt>
      <trkpt lat="43.74196" lon="3.54371">
        <ele>282</ele>
        <time>2016-04-15T06:29:07Z</time>
      </trkpt>
      <trkpt lat="43.74198" lon="3.54392">
        <ele>280</ele>
        <time>2016-04-15T06:29:33Z</time>
      </trkpt>
      <trkpt lat="43.74201" lon="3.54398">
        <ele>280</ele>
        <time>2016-04-15T06:29:39Z</time>
      </trkpt>
      <trkpt lat="43.74203" lon="3.54404">
        <ele>281</ele>
        <time>2016-04-15T06:29:45Z</time>
      </trkpt>
      <trkpt lat="43.742" lon="3.54409">
        <ele>281</ele>
        <time>2016-04-15T06:29:51Z</time>
      </trkpt>
      <trkpt lat="43.74196" lon="3.54415">
        <ele>282</ele>
        <time>2016-04-15T06:29:58Z</time>
      </trkpt>
      <trkpt lat="43.74193" lon="3.54428">
        <ele>283</ele>
        <time>2016-04-15T06:30:11Z</time>
      </trkpt>
      <trkpt lat="43.74191" lon="3.54434">
        <ele>283</ele>
        <time>2016-04-15T06:30:17Z</time>
      </trkpt>
      <trkpt lat="43.74195" lon="3.54439">
        <ele>282</ele>
        <time>2016-04-15T06:30:24Z</time>
      </trkpt>
      <trkpt lat="43.74199" lon="3.54438">
        <ele>282</ele>
        <time>2016-04-15T06:30:29Z</time>
      </trkpt>
      <trkpt lat="43.742" lon="3.54432">
        <ele>283</ele>
        <time>2016-04-15T06:30:35Z</time>
      </trkpt>
      <trkpt lat="43.74202" lon="3.54425">
        <ele>286</ele>
        <time>2016-04-15T06:30:41Z</time>
      </trkpt>
      <trkpt lat="43.74209" lon="3.54415">
        <ele>287</ele>
        <time>2016-04-15T06:30:55Z</time>
      </trkpt>
      <trkpt lat="43.74212" lon="3.54411">
        <ele>286</ele>
        <time>2016-04-15T06:31:03Z</time>
      </trkpt>
      <trkpt lat="43.74219" lon="3.54398">
        <ele>288</ele>
        <time>2016-04-15T06:31:25Z</time>
      </trkpt>
      <trkpt lat="43.74222" lon="3.54393">
        <ele>288</ele>
        <time>2016-04-15T06:31:32Z</time>
      </trkpt>
      <trkpt lat="43.74229" lon="3.54385">
        <ele>290</ele>
        <time>2016-04-15T06:31:48Z</time>
      </trkpt>
      <trkpt lat="43.74234" lon="3.54381">
        <ele>293</ele>
        <time>2016-04-15T06:32:10Z</time>
      </trkpt>
      <trkpt lat="43.74234" lon="3.54375">
        <ele>293</ele>
        <time>2016-04-15T06:32:17Z</time>
      </trkpt>
      <trkpt lat="43.74236" lon="3.54362">
        <ele>291</ele>
        <time>2016-04-15T06:32:27Z</time>
      </trkpt>
      <trkpt lat="43.74239" lon="3.54349">
        <ele>290</ele>
        <time>2016-04-15T06:32:40Z</time>
      </trkpt>
      <trkpt lat="43.74243" lon="3.54337">
        <ele>293</ele>
        <time>2016-04-15T06:32:58Z</time>
      </trkpt>
      <trkpt lat="43.74245" lon="3.54336">
        <ele>294</ele>
        <time>2016-04-15T06:33:03Z</time>
      </trkpt>
      <trkpt lat="43.74248" lon="3.54331">
        <ele>298</ele>
        <time>2016-04-15T06:33:12Z</time>
      </trkpt>
      <trkpt lat="43.74261" lon="3.54302">
        <ele>306</ele>
        <time>2016-04-15T06:33:49Z</time>
      </trkpt>
      <trkpt lat="43.74266" lon="3.54291">
        <ele>309</ele>
        <time>2016-04-15T06:34:05Z</time>
      </trkpt>
      <trkpt lat="43.7427" lon="3.54286">
        <ele>309</ele>
        <time>2016-04-15T06:34:14Z</time>
      </trkpt>
      <trkpt lat="43.74272" lon="3.54282">
        <ele>309</ele>
        <time>2016-04-15T06:34:24Z</time>
      </trkpt>
      <trkpt lat="43.74275" lon="3.54277">
        <ele>309</ele>
        <time>2016-04-15T06:34:33Z</time>
      </trkpt>
      <trkpt lat="43.74281" lon="3.54267">
        <ele>310</ele>
        <time>2016-04-15T06:34:46Z</time>
      </trkpt>
      <trkpt lat="43.74285" lon="3.54263">
        <ele>311</ele>
        <time>2016-04-15T06:34:54Z</time>
      </trkpt>
      <trkpt lat="43.74296" lon="3.54251">
        <ele>303</ele>
        <time>2016-04-15T06:36:16Z</time>
      </trkpt>
      <trkpt lat="43.74314" lon="3.54234">
        <ele>308</ele>
        <time>2016-04-15T06:37:00Z</time>
      </trkpt>
      <trkpt lat="43.74329" lon="3.54225">
        <ele>317</ele>
        <time>2016-04-15T06:37:29Z</time>
      </trkpt>
      <trkpt lat="43.74337" lon="3.54207">
        <ele>321</ele>
        <time>2016-04-15T06:37:44Z</time>
      </trkpt>
      <trkpt lat="43.74342" lon="3.54202">
        <ele>321</ele>
        <time>2016-04-15T06:37:49Z</time>
      </trkpt>
      <trkpt lat="43.74345" lon="3.54198">
        <ele>319</ele>
        <time>2016-04-15T06:37:54Z</time>
      </trkpt>
      <trkpt lat="43.74348" lon="3.54192">
        <ele>320</ele>
        <time>2016-04-15T06:38:00Z</time>
      </trkpt>
      <trkpt lat="43.74362" lon="3.54186">
        <ele>316</ele>
        <time>2016-04-15T06:38:20Z</time>
      </trkpt>
      <trkpt lat="43.74366" lon="3.5419">
        <ele>314</ele>
        <time>2016-04-15T06:38:28Z</time>
      </trkpt>
      <trkpt lat="43.7437" lon="3.54191">
        <ele>314</ele>
        <time>2016-04-15T06:38:35Z</time>
      </trkpt>
      <trkpt lat="43.74375" lon="3.54193">
        <ele>313</ele>
        <time>2016-04-15T06:38:41Z</time>
      </trkpt>
      <trkpt lat="43.74379" lon="3.54197">
        <ele>314</ele>
        <time>2016-04-15T06:38:48Z</time>
      </trkpt>
      <trkpt lat="43.74384" lon="3.54197">
        <ele>315</ele>
        <time>2016-04-15T06:38:55Z</time>
      </trkpt>
      <trkpt lat="43.74393" lon="3.54191">
        <ele>318</ele>
        <time>2016-04-15T06:39:07Z</time>
      </trkpt>
      <trkpt lat="43.74396" lon="3.54186">
        <ele>318</ele>
        <time>2016-04-15T06:39:20Z</time>
      </trkpt>
      <trkpt lat="43.74401" lon="3.54183">
        <ele>317</ele>
        <time>2016-04-15T06:39:26Z</time>
      </trkpt>
      <trkpt lat="43.74421" lon="3.54174">
        <ele>318</ele>
        <time>2016-04-15T06:39:58Z</time>
      </trkpt>
      <trkpt lat="43.74426" lon="3.54173">
        <ele>319</ele>
        <time>2016-04-15T06:40:04Z</time>
      </trkpt>
      <trkpt lat="43.74431" lon="3.54171">
        <ele>319</ele>
        <time>2016-04-15T06:40:10Z</time>
      </trkpt>
      <trkpt lat="43.74435" lon="3.54171">
        <ele>319</ele>
        <time>2016-04-15T06:40:16Z</time>
      </trkpt>
      <trkpt lat="43.74445" lon="3.54175">
        <ele>319</ele>
        <time>2016-04-15T06:40:30Z</time>
      </trkpt>
      <trkpt lat="43.74449" lon="3.54176">
        <ele>321</ele>
        <time>2016-04-15T06:40:35Z</time>
      </trkpt>
      <trkpt lat="43.74453" lon="3.54172">
        <ele>321</ele>
        <time>2016-04-15T06:40:40Z</time>
      </trkpt>
      <trkpt lat="43.74456" lon="3.54167">
        <ele>322</ele>
        <time>2016-04-15T06:40:44Z</time>
      </trkpt>
      <trkpt lat="43.74461" lon="3.54163">
        <ele>321</ele>
        <time>2016-04-15T06:40:49Z</time>
      </trkpt>
      <trkpt lat="43.74465" lon="3.5416">
        <ele>320</ele>
        <time>2016-04-15T06:40:54Z</time>
      </trkpt>
      <trkpt lat="43.74471" lon="3.5416">
        <ele>320</ele>
        <time>2016-04-15T06:40:59Z</time>
      </trkpt>
      <trkpt lat="43.74475" lon="3.54156">
        <ele>320</ele>
        <time>2016-04-15T06:41:04Z</time>
      </trkpt>
      <trkpt lat="43.74478" lon="3.54152">
        <ele>319</ele>
        <time>2016-04-15T06:41:09Z</time>
      </trkpt>
      <trkpt lat="43.74493" lon="3.5415">
        <ele>316</ele>
        <time>2016-04-15T06:41:24Z</time>
      </trkpt>
      <trkpt lat="43.74502" lon="3.54153">
        <ele>318</ele>
        <time>2016-04-15T06:41:33Z</time>
      </trkpt>
      <trkpt lat="43.74507" lon="3.54154">
        <ele>317</ele>
        <time>2016-04-15T06:41:38Z</time>
      </trkpt>
      <trkpt lat="43.74512" lon="3.54151">
        <ele>316</ele>
        <time>2016-04-15T06:41:43Z</time>
      </trkpt>
      <trkpt lat="43.74521" lon="3.5415">
        <ele>316</ele>
        <time>2016-04-15T06:41:52Z</time>
      </trkpt>
      <trkpt lat="43.74541" lon="3.54143">
        <ele>318</ele>
        <time>2016-04-15T06:42:11Z</time>
      </trkpt>
      <trkpt lat="43.74545" lon="3.54144">
        <ele>317</ele>
        <time>2016-04-15T06:42:16Z</time>
      </trkpt>
      <trkpt lat="43.74551" lon="3.54142">
        <ele>317</ele>
        <time>2016-04-15T06:42:21Z</time>
      </trkpt>
      <trkpt lat="43.74555" lon="3.54142">
        <ele>318</ele>
        <time>2016-04-15T06:42:26Z</time>
      </trkpt>
      <trkpt lat="43.74563" lon="3.5415">
        <ele>317</ele>
        <time>2016-04-15T06:42:38Z</time>
      </trkpt>
      <trkpt lat="43.74568" lon="3.54151">
        <ele>317</ele>
        <time>2016-04-15T06:42:44Z</time>
      </trkpt>
      <trkpt lat="43.74572" lon="3.54147">
        <ele>316</ele>
        <time>2016-04-15T06:42:50Z</time>
      </trkpt>
      <trkpt lat="43.74576" lon="3.54143">
        <ele>316</ele>
        <time>2016-04-15T06:42:56Z</time>
      </trkpt>
      <trkpt lat="43.7458" lon="3.5414">
        <ele>319</ele>
        <time>2016-04-15T06:43:03Z</time>
      </trkpt>
      <trkpt lat="43.74585" lon="3.54139">
        <ele>321</ele>
        <time>2016-04-15T06:43:10Z</time>
      </trkpt>
      <trkpt lat="43.74607" lon="3.54127">
        <ele>328</ele>
        <time>2016-04-15T06:43:46Z</time>
      </trkpt>
      <trkpt lat="43.74612" lon="3.54126">
        <ele>328</ele>
        <time>2016-04-15T06:43:53Z</time>
      </trkpt>
      <trkpt lat="43.74628" lon="3.54118">
        <ele>325</ele>
        <time>2016-04-15T06:44:19Z</time>
      </trkpt>
      <trkpt lat="43.74632" lon="3.54115">
        <ele>325</ele>
        <time>2016-04-15T06:44:25Z</time>
      </trkpt>
      <trkpt lat="43.74637" lon="3.54113">
        <ele>324</ele>
        <time>2016-04-15T06:44:30Z</time>
      </trkpt>
      <trkpt lat="43.74667" lon="3.54122">
        <ele>320</ele>
        <time>2016-04-15T06:45:00Z</time>
      </trkpt>
      <trkpt lat="43.74681" lon="3.54118">
        <ele>317</ele>
        <time>2016-04-15T06:45:18Z</time>
      </trkpt>
      <trkpt lat="43.74686" lon="3.54117">
        <ele>319</ele>
        <time>2016-04-15T06:45:25Z</time>
      </trkpt>
      <trkpt lat="43.74691" lon="3.54119">
        <ele>319</ele>
        <time>2016-04-15T06:45:32Z</time>
      </trkpt>
      <trkpt lat="43.74695" lon="3.54123">
        <ele>321</ele>
        <time>2016-04-15T06:45:39Z</time>
      </trkpt>
      <trkpt lat="43.74699" lon="3.54124">
        <ele>322</ele>
        <time>2016-04-15T06:45:47Z</time>
      </trkpt>
      <trkpt lat="43.74704" lon="3.54123">
        <ele>322</ele>
        <time>2016-04-15T06:45:53Z</time>
      </trkpt>
      <trkpt lat="43.74714" lon="3.54121">
        <ele>321</ele>
        <time>2016-04-15T06:46:05Z</time>
      </trkpt>
      <trkpt lat="43.74718" lon="3.54125">
        <ele>321</ele>
        <time>2016-04-15T06:46:12Z</time>
      </trkpt>
      <trkpt lat="43.74723" lon="3.54125">
        <ele>321</ele>
        <time>2016-04-15T06:46:19Z</time>
      </trkpt>
      <trkpt lat="43.74733" lon="3.54123">
        <ele>323</ele>
        <time>2016-04-15T06:46:30Z</time>
      </trkpt>
      <trkpt lat="43.74737" lon="3.54126">
        <ele>325</ele>
        <time>2016-04-15T06:46:35Z</time>
      </trkpt>
      <trkpt lat="43.74741" lon="3.54131">
        <ele>326</ele>
        <time>2016-04-15T06:46:40Z</time>
      </trkpt>
      <trkpt lat="43.74745" lon="3.54135">
        <ele>325</ele>
        <time>2016-04-15T06:46:45Z</time>
      </trkpt>
      <trkpt lat="43.7475" lon="3.54139">
        <ele>325</ele>
        <time>2016-04-15T06:46:52Z</time>
      </trkpt>
      <trkpt lat="43.74755" lon="3.54139">
        <ele>325</ele>
        <time>2016-04-15T06:46:58Z</time>
      </trkpt>
      <trkpt lat="43.74765" lon="3.54144">
        <ele>323</ele>
        <time>2016-04-15T06:47:08Z</time>
      </trkpt>
      <trkpt lat="43.74768" lon="3.5415">
        <ele>322</ele>
        <time>2016-04-15T06:47:13Z</time>
      </trkpt>
      <trkpt lat="43.74767" lon="3.54156">
        <ele>321</ele>
        <time>2016-04-15T06:47:17Z</time>
      </trkpt>
      <trkpt lat="43.74765" lon="3.54163">
        <ele>321</ele>
        <time>2016-04-15T06:47:21Z</time>
      </trkpt>
      <trkpt lat="43.74758" lon="3.54182">
        <ele>324</ele>
        <time>2016-04-15T06:47:35Z</time>
      </trkpt>
      <trkpt lat="43.74757" lon="3.54188">
        <ele>324</ele>
        <time>2016-04-15T06:47:40Z</time>
      </trkpt>
      <trkpt lat="43.74756" lon="3.54196">
        <ele>322</ele>
        <time>2016-04-15T06:47:45Z</time>
      </trkpt>
      <trkpt lat="43.74755" lon="3.54202">
        <ele>322</ele>
        <time>2016-04-15T06:47:50Z</time>
      </trkpt>
      <trkpt lat="43.74755" lon="3.54208">
        <ele>321</ele>
        <time>2016-04-15T06:47:59Z</time>
      </trkpt>
      <trkpt lat="43.7475" lon="3.54209">
        <ele>320</ele>
        <time>2016-04-15T06:48:13Z</time>
      </trkpt>
      <trkpt lat="43.74751" lon="3.54216">
        <ele>320</ele>
        <time>2016-04-15T06:48:18Z</time>
      </trkpt>
      <trkpt lat="43.74753" lon="3.54243">
        <ele>318</ele>
        <time>2016-04-15T06:48:40Z</time>
      </trkpt>
      <trkpt lat="43.74759" lon="3.54255">
        <ele>318</ele>
        <time>2016-04-15T06:48:53Z</time>
      </trkpt>
      <trkpt lat="43.74762" lon="3.5426">
        <ele>318</ele>
        <time>2016-04-15T06:49:02Z</time>
      </trkpt>
      <trkpt lat="43.74761" lon="3.54267">
        <ele>319</ele>
        <time>2016-04-15T06:49:09Z</time>
      </trkpt>
      <trkpt lat="43.74759" lon="3.54274">
        <ele>318</ele>
        <time>2016-04-15T06:49:16Z</time>
      </trkpt>
      <trkpt lat="43.74757" lon="3.54279">
        <ele>318</ele>
        <time>2016-04-15T06:49:22Z</time>
      </trkpt>
      <trkpt lat="43.74757" lon="3.54286">
        <ele>318</ele>
        <time>2016-04-15T06:49:29Z</time>
      </trkpt>
      <trkpt lat="43.74757" lon="3.54299">
        <ele>315</ele>
        <time>2016-04-15T06:49:46Z</time>
      </trkpt>
      <trkpt lat="43.74755" lon="3.54305">
        <ele>314</ele>
        <time>2016-04-15T06:49:52Z</time>
      </trkpt>
      <trkpt lat="43.74756" lon="3.54312">
        <ele>313</ele>
        <time>2016-04-15T06:49:59Z</time>
      </trkpt>
      <trkpt lat="43.74755" lon="3.54325">
        <ele>313</ele>
        <time>2016-04-15T06:50:17Z</time>
      </trkpt>
      <trkpt lat="43.74753" lon="3.54338">
        <ele>315</ele>
        <time>2016-04-15T06:50:33Z</time>
      </trkpt>
      <trkpt lat="43.74751" lon="3.54344">
        <ele>315</ele>
        <time>2016-04-15T06:50:41Z</time>
      </trkpt>
      <trkpt lat="43.74752" lon="3.54351">
        <ele>315</ele>
        <time>2016-04-15T06:50:49Z</time>
      </trkpt>
      <trkpt lat="43.74752" lon="3.54376">
        <ele>318</ele>
        <time>2016-04-15T06:51:22Z</time>
      </trkpt>
      <trkpt lat="43.74754" lon="3.54397">
        <ele>321</ele>
        <time>2016-04-15T06:51:39Z</time>
      </trkpt>
      <trkpt lat="43.74753" lon="3.54407">
        <ele>321</ele>
        <time>2016-04-15T06:51:50Z</time>
      </trkpt>
      <trkpt lat="43.74751" lon="3.54415">
        <ele>320</ele>
        <time>2016-04-15T06:52:01Z</time>
      </trkpt>
      <trkpt lat="43.74751" lon="3.54422">
        <ele>320</ele>
        <time>2016-04-15T06:52:06Z</time>
      </trkpt>
      <trkpt lat="43.7475" lon="3.54428">
        <ele>320</ele>
        <time>2016-04-15T06:52:10Z</time>
      </trkpt>
      <trkpt lat="43.74747" lon="3.54441">
        <ele>316</ele>
        <time>2016-04-15T06:52:18Z</time>
      </trkpt>
      <trkpt lat="43.74747" lon="3.54447">
        <ele>316</ele>
        <time>2016-04-15T06:52:23Z</time>
      </trkpt>
      <trkpt lat="43.74744" lon="3.54453">
        <ele>316</ele>
        <time>2016-04-15T06:52:28Z</time>
      </trkpt>
      <trkpt lat="43.74743" lon="3.54459">
        <ele>316</ele>
        <time>2016-04-15T06:52:33Z</time>
      </trkpt>
      <trkpt lat="43.74734" lon="3.54476">
        <ele>314</ele>
        <time>2016-04-15T06:52:51Z</time>
      </trkpt>
      <trkpt lat="43.74726" lon="3.54494">
        <ele>318</ele>
        <time>2016-04-15T06:53:09Z</time>
      </trkpt>
      <trkpt lat="43.74722" lon="3.54498">
        <ele>316</ele>
        <time>2016-04-15T06:53:14Z</time>
      </trkpt>
      <trkpt lat="43.74719" lon="3.54503">
        <ele>316</ele>
        <time>2016-04-15T06:53:20Z</time>
      </trkpt>
      <trkpt lat="43.74712" lon="3.54521">
        <ele>322</ele>
        <time>2016-04-15T06:53:45Z</time>
      </trkpt>
      <trkpt lat="43.74712" lon="3.54525">
        <ele>324</ele>
        <time>2016-04-15T06:53:52Z</time>
      </trkpt>
      <trkpt lat="43.74707" lon="3.54543">
        <ele>328</ele>
        <time>2016-04-15T06:54:13Z</time>
      </trkpt>
      <trkpt lat="43.74705" lon="3.54549">
        <ele>328</ele>
        <time>2016-04-15T06:54:20Z</time>
      </trkpt>
      <trkpt lat="43.74706" lon="3.54556">
        <ele>329</ele>
        <time>2016-04-15T06:54:29Z</time>
      </trkpt>
      <trkpt lat="43.7471" lon="3.54561">
        <ele>330</ele>
        <time>2016-04-15T06:54:37Z</time>
      </trkpt>
      <trkpt lat="43.74713" lon="3.54566">
        <ele>331</ele>
        <time>2016-04-15T06:54:44Z</time>
      </trkpt>
      <trkpt lat="43.74717" lon="3.54568">
        <ele>331</ele>
        <time>2016-04-15T06:54:51Z</time>
      </trkpt>
      <trkpt lat="43.74729" lon="3.54579">
        <ele>337</ele>
        <time>2016-04-15T06:55:16Z</time>
      </trkpt>
      <trkpt lat="43.74734" lon="3.54581">
        <ele>337</ele>
        <time>2016-04-15T06:55:26Z</time>
      </trkpt>
      <trkpt lat="43.74741" lon="3.54577">
        <ele>340</ele>
        <time>2016-04-15T06:55:44Z</time>
      </trkpt>
      <trkpt lat="43.74745" lon="3.54573">
        <ele>340</ele>
        <time>2016-04-15T06:55:56Z</time>
      </trkpt>
      <trkpt lat="43.7475" lon="3.54573">
        <ele>341</ele>
        <time>2016-04-15T06:56:05Z</time>
      </trkpt>
      <trkpt lat="43.74755" lon="3.54573">
        <ele>341</ele>
        <time>2016-04-15T06:56:15Z</time>
      </trkpt>
      <trkpt lat="43.74759" lon="3.54569">
        <ele>342</ele>
        <time>2016-04-15T06:56:21Z</time>
      </trkpt>
      <trkpt lat="43.74763" lon="3.54567">
        <ele>342</ele>
        <time>2016-04-15T06:56:27Z</time>
      </trkpt>
      <trkpt lat="43.74768" lon="3.54568">
        <ele>344</ele>
        <time>2016-04-15T06:56:34Z</time>
      </trkpt>
      <trkpt lat="43.74772" lon="3.5457">
        <ele>345</ele>
        <time>2016-04-15T06:56:43Z</time>
      </trkpt>
      <trkpt lat="43.74776" lon="3.54569">
        <ele>345</ele>
        <time>2016-04-15T06:56:52Z</time>
      </trkpt>
      <trkpt lat="43.74781" lon="3.54567">
        <ele>346</ele>
        <time>2016-04-15T06:56:58Z</time>
      </trkpt>
      <trkpt lat="43.7479" lon="3.54563">
        <ele>348</ele>
        <time>2016-04-15T06:57:10Z</time>
      </trkpt>
      <trkpt lat="43.74798" lon="3.54557">
        <ele>345</ele>
        <time>2016-04-15T06:57:26Z</time>
      </trkpt>
      <trkpt lat="43.74817" lon="3.54553">
        <ele>347</ele>
        <time>2016-04-15T06:57:50Z</time>
      </trkpt>
      <trkpt lat="43.7484" lon="3.54545">
        <ele>338</ele>
        <time>2016-04-15T06:58:20Z</time>
      </trkpt>
      <trkpt lat="43.74854" lon="3.54539">
        <ele>345</ele>
        <time>2016-04-15T06:58:36Z</time>
      </trkpt>
      <trkpt lat="43.74859" lon="3.54542">
        <ele>345</ele>
        <time>2016-04-15T06:58:40Z</time>
      </trkpt>
      <trkpt lat="43.74863" lon="3.54544">
        <ele>347</ele>
        <time>2016-04-15T06:58:44Z</time>
      </trkpt>
      <trkpt lat="43.74869" lon="3.54541">
        <ele>349</ele>
        <time>2016-04-15T06:58:49Z</time>
      </trkpt>
      <trkpt lat="43.74873" lon="3.54542">
        <ele>350</ele>
        <time>2016-04-15T06:58:53Z</time>
      </trkpt>
      <trkpt lat="43.74877" lon="3.54547">
        <ele>352</ele>
        <time>2016-04-15T06:58:58Z</time>
      </trkpt>
      <trkpt lat="43.74879" lon="3.54553">
        <ele>354</ele>
        <time>2016-04-15T06:59:04Z</time>
      </trkpt>
      <trkpt lat="43.74884" lon="3.54556">
        <ele>354</ele>
        <time>2016-04-15T06:59:10Z</time>
      </trkpt>
      <trkpt lat="43.74893" lon="3.54571">
        <ele>359</ele>
        <time>2016-04-15T06:59:29Z</time>
      </trkpt>
      <trkpt lat="43.74894" lon="3.54578">
        <ele>359</ele>
        <time>2016-04-15T06:59:37Z</time>
      </trkpt>
      <trkpt lat="43.74899" lon="3.54581">
        <ele>357</ele>
        <time>2016-04-15T06:59:45Z</time>
      </trkpt>
      <trkpt lat="43.74904" lon="3.54591">
        <ele>355</ele>
        <time>2016-04-15T07:00:01Z</time>
      </trkpt>
      <trkpt lat="43.74909" lon="3.54593">
        <ele>355</ele>
        <time>2016-04-15T07:00:07Z</time>
      </trkpt>
      <trkpt lat="43.74914" lon="3.54595">
        <ele>356</ele>
        <time>2016-04-15T07:00:14Z</time>
      </trkpt>
      <trkpt lat="43.74918" lon="3.54598">
        <ele>357</ele>
        <time>2016-04-15T07:00:21Z</time>
      </trkpt>
      <trkpt lat="43.74924" lon="3.5461">
        <ele>358</ele>
        <time>2016-04-15T07:00:35Z</time>
      </trkpt>
      <trkpt lat="43.74927" lon="3.54622">
        <ele>361</ele>
        <time>2016-04-15T07:00:50Z</time>
      </trkpt>
      <trkpt lat="43.74931" lon="3.54627">
        <ele>362</ele>
        <time>2016-04-15T07:00:57Z</time>
      </trkpt>
      <trkpt lat="43.74938" lon="3.54636">
        <ele>360</ele>
        <time>2016-04-15T07:01:12Z</time>
      </trkpt>
      <trkpt lat="43.74952" lon="3.54654">
        <ele>365</ele>
        <time>2016-04-15T07:01:45Z</time>
      </trkpt>
      <trkpt lat="43.74958" lon="3.54665">
        <ele>362</ele>
        <time>2016-04-15T07:02:00Z</time>
      </trkpt>
      <trkpt lat="43.74963" lon="3.54665">
        <ele>360</ele>
        <time>2016-04-15T07:02:07Z</time>
      </trkpt>
      <trkpt lat="43.74966" lon="3.5467">
        <ele>361</ele>
        <time>2016-04-15T07:02:14Z</time>
      </trkpt>
      <trkpt lat="43.74966" lon="3.54666">
        <ele>361</ele>
        <time>2016-04-15T07:02:43Z</time>
      </trkpt>
      <trkpt lat="43.74968" lon="3.5466">
        <ele>361</ele>
        <time>2016-04-15T07:02:49Z</time>
      </trkpt>
      <trkpt lat="43.74986" lon="3.5463">
        <ele>366</ele>
        <time>2016-04-15T07:03:24Z</time>
      </trkpt>
      <trkpt lat="43.74988" lon="3.54624">
        <ele>366</ele>
        <time>2016-04-15T07:03:30Z</time>
      </trkpt>
      <trkpt lat="43.74991" lon="3.54618">
        <ele>366</ele>
        <time>2016-04-15T07:03:38Z</time>
      </trkpt>
      <trkpt lat="43.75005" lon="3.54589">
        <ele>372</ele>
        <time>2016-04-15T07:04:10Z</time>
      </trkpt>
      <trkpt lat="43.75011" lon="3.54579">
        <ele>375</ele>
        <time>2016-04-15T07:04:21Z</time>
      </trkpt>
      <trkpt lat="43.75018" lon="3.5456">
        <ele>376</ele>
        <time>2016-04-15T07:04:38Z</time>
      </trkpt>
      <trkpt lat="43.75026" lon="3.54543">
        <ele>375</ele>
        <time>2016-04-15T07:04:54Z</time>
      </trkpt>
      <trkpt lat="43.75028" lon="3.54538">
        <ele>375</ele>
        <time>2016-04-15T07:04:59Z</time>
      </trkpt>
      <trkpt lat="43.7503" lon="3.54525">
        <ele>377</ele>
        <time>2016-04-15T07:05:10Z</time>
      </trkpt>
      <trkpt lat="43.75032" lon="3.54519">
        <ele>376</ele>
        <time>2016-04-15T07:05:15Z</time>
      </trkpt>
      <trkpt lat="43.75034" lon="3.54513">
        <ele>376</ele>
        <time>2016-04-15T07:05:19Z</time>
      </trkpt>
      <trkpt lat="43.75035" lon="3.54507">
        <ele>376</ele>
        <time>2016-04-15T07:05:25Z</time>
      </trkpt>
      <trkpt lat="43.75039" lon="3.545">
        <ele>380</ele>
        <time>2016-04-15T07:06:01Z</time>
      </trkpt>
      <trkpt lat="43.7504" lon="3.54493">
        <ele>382</ele>
        <time>2016-04-15T07:06:07Z</time>
      </trkpt>
      <trkpt lat="43.75051" lon="3.54479">
        <ele>384</ele>
        <time>2016-04-15T07:06:20Z</time>
      </trkpt>
      <trkpt lat="43.75055" lon="3.54474">
        <ele>384</ele>
        <time>2016-04-15T07:06:25Z</time>
      </trkpt>
      <trkpt lat="43.7506" lon="3.54462">
        <ele>383</ele>
        <time>2016-04-15T07:06:37Z</time>
      </trkpt>
      <trkpt lat="43.7506" lon="3.54458">
        <ele>383</ele>
        <time>2016-04-15T07:06:44Z</time>
      </trkpt>
      <trkpt lat="43.75061" lon="3.54454">
        <ele>380</ele>
        <time>2016-04-15T07:06:58Z</time>
      </trkpt>
      <trkpt lat="43.75067" lon="3.54442">
        <ele>378</ele>
        <time>2016-04-15T07:07:08Z</time>
      </trkpt>
      <trkpt lat="43.75071" lon="3.5444">
        <ele>378</ele>
        <time>2016-04-15T07:07:13Z</time>
      </trkpt>
      <trkpt lat="43.75076" lon="3.54437">
        <ele>379</ele>
        <time>2016-04-15T07:07:18Z</time>
      </trkpt>
      <trkpt lat="43.75078" lon="3.54432">
        <ele>380</ele>
        <time>2016-04-15T07:07:24Z</time>
      </trkpt>
      <trkpt lat="43.75082" lon="3.5443">
        <ele>380</ele>
        <time>2016-04-15T07:07:33Z</time>
      </trkpt>
      <trkpt lat="43.75097" lon="3.54429">
        <ele>383</ele>
        <time>2016-04-15T07:07:57Z</time>
      </trkpt>
      <trkpt lat="43.75101" lon="3.54427">
        <ele>383</ele>
        <time>2016-04-15T07:08:05Z</time>
      </trkpt>
      <trkpt lat="43.75104" lon="3.54428">
        <ele>383</ele>
        <time>2016-04-15T07:08:11Z</time>
      </trkpt>
      <trkpt lat="43.75111" lon="3.54423">
        <ele>381</ele>
        <time>2016-04-15T07:08:24Z</time>
      </trkpt>
      <trkpt lat="43.75115" lon="3.54419">
        <ele>380</ele>
        <time>2016-04-15T07:08:31Z</time>
      </trkpt>
      <trkpt lat="43.75119" lon="3.54421">
        <ele>380</ele>
        <time>2016-04-15T07:08:46Z</time>
      </trkpt>
      <trkpt lat="43.75127" lon="3.54427">
        <ele>380</ele>
        <time>2016-04-15T07:09:00Z</time>
      </trkpt>
      <trkpt lat="43.75131" lon="3.5443">
        <ele>379</ele>
        <time>2016-04-15T07:09:07Z</time>
      </trkpt>
      <trkpt lat="43.75135" lon="3.54434">
        <ele>379</ele>
        <time>2016-04-15T07:09:13Z</time>
      </trkpt>
      <trkpt lat="43.75142" lon="3.54443">
        <ele>384</ele>
        <time>2016-04-15T07:09:27Z</time>
      </trkpt>
      <trkpt lat="43.75157" lon="3.54449">
        <ele>388</ele>
        <time>2016-04-15T07:09:46Z</time>
      </trkpt>
      <trkpt lat="43.75161" lon="3.54452">
        <ele>388</ele>
        <time>2016-04-15T07:09:52Z</time>
      </trkpt>
      <trkpt lat="43.75169" lon="3.54458">
        <ele>388</ele>
        <time>2016-04-15T07:10:04Z</time>
      </trkpt>
      <trkpt lat="43.75174" lon="3.5446">
        <ele>388</ele>
        <time>2016-04-15T07:10:13Z</time>
      </trkpt>
      <trkpt lat="43.75183" lon="3.54466">
        <ele>389</ele>
        <time>2016-04-15T07:10:27Z</time>
      </trkpt>
      <trkpt lat="43.75187" lon="3.54468">
        <ele>388</ele>
        <time>2016-04-15T07:10:34Z</time>
      </trkpt>
      <trkpt lat="43.75189" lon="3.54463">
        <ele>387</ele>
        <time>2016-04-15T07:10:42Z</time>
      </trkpt>
      <trkpt lat="43.75194" lon="3.5446">
        <ele>389</ele>
        <time>2016-04-15T07:11:20Z</time>
      </trkpt>
      <trkpt lat="43.75199" lon="3.5446">
        <ele>391</ele>
        <time>2016-04-15T07:11:26Z</time>
      </trkpt>
      <trkpt lat="43.75204" lon="3.54458">
        <ele>392</ele>
        <time>2016-04-15T07:11:33Z</time>
      </trkpt>
      <trkpt lat="43.75208" lon="3.54455">
        <ele>391</ele>
        <time>2016-04-15T07:11:39Z</time>
      </trkpt>
      <trkpt lat="43.75213" lon="3.54453">
        <ele>390</ele>
        <time>2016-04-15T07:11:45Z</time>
      </trkpt>
      <trkpt lat="43.75218" lon="3.54449">
        <ele>391</ele>
        <time>2016-04-15T07:11:51Z</time>
      </trkpt>
      <trkpt lat="43.75221" lon="3.54444">
        <ele>391</ele>
        <time>2016-04-15T07:11:58Z</time>
      </trkpt>
      <trkpt lat="43.75231" lon="3.54439">
        <ele>393</ele>
        <time>2016-04-15T07:12:08Z</time>
      </trkpt>
      <trkpt lat="43.75236" lon="3.54436">
        <ele>393</ele>
        <time>2016-04-15T07:12:13Z</time>
      </trkpt>
      <trkpt lat="43.7524" lon="3.54432">
        <ele>393</ele>
        <time>2016-04-15T07:12:21Z</time>
      </trkpt>
      <trkpt lat="43.75244" lon="3.54428">
        <ele>393</ele>
        <time>2016-04-15T07:12:25Z</time>
      </trkpt>
      <trkpt lat="43.75248" lon="3.54424">
        <ele>393</ele>
        <time>2016-04-15T07:12:29Z</time>
      </trkpt>
      <trkpt lat="43.75251" lon="3.54419">
        <ele>393</ele>
        <time>2016-04-15T07:12:34Z</time>
      </trkpt>
      <trkpt lat="43.75254" lon="3.54413">
        <ele>392</ele>
        <time>2016-04-15T07:12:39Z</time>
      </trkpt>
      <trkpt lat="43.75262" lon="3.54408">
        <ele>391</ele>
        <time>2016-04-15T07:12:47Z</time>
      </trkpt>
      <trkpt lat="43.75284" lon="3.54392">
        <ele>386</ele>
        <time>2016-04-15T07:13:10Z</time>
      </trkpt>
      <trkpt lat="43.75289" lon="3.54392">
        <ele>386</ele>
        <time>2016-04-15T07:13:15Z</time>
      </trkpt>
      <trkpt lat="43.75293" lon="3.5439">
        <ele>386</ele>
        <time>2016-04-15T07:13:20Z</time>
      </trkpt>
      <trkpt lat="43.753" lon="3.54381">
        <ele>384</ele>
        <time>2016-04-15T07:13:28Z</time>
      </trkpt>
      <trkpt lat="43.75309" lon="3.5438">
        <ele>384</ele>
        <time>2016-04-15T07:13:38Z</time>
      </trkpt>
      <trkpt lat="43.75314" lon="3.54375">
        <ele>383</ele>
        <time>2016-04-15T07:13:43Z</time>
      </trkpt>
      <trkpt lat="43.75318" lon="3.54373">
        <ele>383</ele>
        <time>2016-04-15T07:13:48Z</time>
      </trkpt>
      <trkpt lat="43.75321" lon="3.54368">
        <ele>388</ele>
        <time>2016-04-15T07:14:30Z</time>
      </trkpt>
      <trkpt lat="43.75325" lon="3.54365">
        <ele>388</ele>
        <time>2016-04-15T07:14:38Z</time>
      </trkpt>
      <trkpt lat="43.75341" lon="3.5435">
        <ele>391</ele>
        <time>2016-04-15T07:15:03Z</time>
      </trkpt>
      <trkpt lat="43.75343" lon="3.54343">
        <ele>391</ele>
        <time>2016-04-15T07:15:10Z</time>
      </trkpt>
      <trkpt lat="43.75347" lon="3.54339">
        <ele>390</ele>
        <time>2016-04-15T07:15:17Z</time>
      </trkpt>
      <trkpt lat="43.75351" lon="3.54336">
        <ele>389</ele>
        <time>2016-04-15T07:15:24Z</time>
      </trkpt>
      <trkpt lat="43.75356" lon="3.54334">
        <ele>390</ele>
        <time>2016-04-15T07:15:32Z</time>
      </trkpt>
      <trkpt lat="43.75362" lon="3.5433">
        <ele>390</ele>
        <time>2016-04-15T07:15:39Z</time>
      </trkpt>
      <trkpt lat="43.75368" lon="3.54323">
        <ele>390</ele>
        <time>2016-04-15T07:15:47Z</time>
      </trkpt>
      <trkpt lat="43.75372" lon="3.5432">
        <ele>390</ele>
        <time>2016-04-15T07:15:54Z</time>
      </trkpt>
      <trkpt lat="43.75377" lon="3.54317">
        <ele>391</ele>
        <time>2016-04-15T07:16:04Z</time>
      </trkpt>
      <trkpt lat="43.75392" lon="3.54319">
        <ele>387</ele>
        <time>2016-04-15T07:16:37Z</time>
      </trkpt>
      <trkpt lat="43.75398" lon="3.54319">
        <ele>388</ele>
        <time>2016-04-15T07:16:42Z</time>
      </trkpt>
      <trkpt lat="43.75412" lon="3.54318">
        <ele>388</ele>
        <time>2016-04-15T07:17:04Z</time>
      </trkpt>
      <trkpt lat="43.75417" lon="3.54316">
        <ele>387</ele>
        <time>2016-04-15T07:17:31Z</time>
      </trkpt>
      <trkpt lat="43.75421" lon="3.54314">
        <ele>388</ele>
        <time>2016-04-15T07:17:36Z</time>
      </trkpt>
      <trkpt lat="43.75423" lon="3.54311">
        <ele>389</ele>
        <time>2016-04-15T07:17:50Z</time>
      </trkpt>
      <trkpt lat="43.75416" lon="3.5431">
        <ele>391</ele>
        <time>2016-04-15T07:18:02Z</time>
      </trkpt>
      <trkpt lat="43.75414" lon="3.54311">
        <ele>392</ele>
        <time>2016-04-15T07:18:18Z</time>
      </trkpt>
      <trkpt lat="43.75421" lon="3.54312">
        <ele>392</ele>
        <time>2016-04-15T07:18:43Z</time>
      </trkpt>
      <trkpt lat="43.75425" lon="3.5431">
        <ele>393</ele>
        <time>2016-04-15T07:18:50Z</time>
      </trkpt>
      <trkpt lat="43.75428" lon="3.54311">
        <ele>393</ele>
        <time>2016-04-15T07:19:02Z</time>
      </trkpt>
      <trkpt lat="43.75432" lon="3.5431">
        <ele>393</ele>
        <time>2016-04-15T07:19:12Z</time>
      </trkpt>
      <trkpt lat="43.75449" lon="3.54312">
        <ele>383</ele>
        <time>2016-04-15T07:19:38Z</time>
      </trkpt>
      <trkpt lat="43.75458" lon="3.54319">
        <ele>380</ele>
        <time>2016-04-15T07:19:50Z</time>
      </trkpt>
      <trkpt lat="43.75463" lon="3.54322">
        <ele>381</ele>
        <time>2016-04-15T07:19:56Z</time>
      </trkpt>
      <trkpt lat="43.75467" lon="3.54324">
        <ele>382</ele>
        <time>2016-04-15T07:20:02Z</time>
      </trkpt>
      <trkpt lat="43.75482" lon="3.5432">
        <ele>386</ele>
        <time>2016-04-15T07:20:20Z</time>
      </trkpt>
      <trkpt lat="43.75492" lon="3.54318">
        <ele>387</ele>
        <time>2016-04-15T07:20:30Z</time>
      </trkpt>
      <trkpt lat="43.75497" lon="3.54317">
        <ele>387</ele>
        <time>2016-04-15T07:20:37Z</time>
      </trkpt>
      <trkpt lat="43.75506" lon="3.54311">
        <ele>388</ele>
        <time>2016-04-15T07:20:49Z</time>
      </trkpt>
      <trkpt lat="43.75511" lon="3.54311">
        <ele>388</ele>
        <time>2016-04-15T07:20:54Z</time>
      </trkpt>
      <trkpt lat="43.75516" lon="3.54312">
        <ele>389</ele>
        <time>2016-04-15T07:21:00Z</time>
      </trkpt>
      <trkpt lat="43.75521" lon="3.5431">
        <ele>389</ele>
        <time>2016-04-15T07:21:06Z</time>
      </trkpt>
      <trkpt lat="43.75525" lon="3.54312">
        <ele>388</ele>
        <time>2016-04-15T07:21:11Z</time>
      </trkpt>
      <trkpt lat="43.75529" lon="3.54317">
        <ele>386</ele>
        <time>2016-04-15T07:21:16Z</time>
      </trkpt>
      <trkpt lat="43.75532" lon="3.54322">
        <ele>386</ele>
        <time>2016-04-15T07:21:22Z</time>
      </trkpt>
      <trkpt lat="43.75534" lon="3.54325">
        <ele>387</ele>
        <time>2016-04-15T07:21:28Z</time>
      </trkpt>
      <trkpt lat="43.75539" lon="3.54326">
        <ele>386</ele>
        <time>2016-04-15T07:21:37Z</time>
      </trkpt>
      <trkpt lat="43.75545" lon="3.54322">
        <ele>386</ele>
        <time>2016-04-15T07:21:51Z</time>
      </trkpt>
      <trkpt lat="43.75551" lon="3.54322">
        <ele>391</ele>
        <time>2016-04-15T07:22:06Z</time>
      </trkpt>
      <trkpt lat="43.75554" lon="3.54316">
        <ele>392</ele>
        <time>2016-04-15T07:22:14Z</time>
      </trkpt>
      <trkpt lat="43.75558" lon="3.54296">
        <ele>398</ele>
        <time>2016-04-15T07:22:46Z</time>
      </trkpt>
      <trkpt lat="43.75558" lon="3.54289">
        <ele>399</ele>
        <time>2016-04-15T07:22:53Z</time>
      </trkpt>
      <trkpt lat="43.75562" lon="3.54277">
        <ele>397</ele>
        <time>2016-04-15T07:23:05Z</time>
      </trkpt>
      <trkpt lat="43.75565" lon="3.54268">
        <ele>398</ele>
        <time>2016-04-15T07:23:17Z</time>
      </trkpt>
      <trkpt lat="43.75576" lon="3.54238">
        <ele>402</ele>
        <time>2016-04-15T07:23:48Z</time>
      </trkpt>
      <trkpt lat="43.75575" lon="3.54231">
        <ele>403</ele>
        <time>2016-04-15T07:23:56Z</time>
      </trkpt>
      <trkpt lat="43.75577" lon="3.54226">
        <ele>403</ele>
        <time>2016-04-15T07:24:05Z</time>
      </trkpt>
      <trkpt lat="43.75574" lon="3.54219">
        <ele>402</ele>
        <time>2016-04-15T07:24:11Z</time>
      </trkpt>
      <trkpt lat="43.75575" lon="3.54213">
        <ele>402</ele>
        <time>2016-04-15T07:24:17Z</time>
      </trkpt>
      <trkpt lat="43.75578" lon="3.5421">
        <ele>403</ele>
        <time>2016-04-15T07:24:28Z</time>
      </trkpt>
      <trkpt lat="43.7558" lon="3.54203">
        <ele>403</ele>
        <time>2016-04-15T07:24:34Z</time>
      </trkpt>
      <trkpt lat="43.75584" lon="3.54186">
        <ele>407</ele>
        <time>2016-04-15T07:24:54Z</time>
      </trkpt>
      <trkpt lat="43.75583" lon="3.54177">
        <ele>409</ele>
        <time>2016-04-15T07:25:08Z</time>
      </trkpt>
      <trkpt lat="43.75582" lon="3.5417">
        <ele>410</ele>
        <time>2016-04-15T07:25:16Z</time>
      </trkpt>
      <trkpt lat="43.75585" lon="3.54166">
        <ele>410</ele>
        <time>2016-04-15T07:25:23Z</time>
      </trkpt>
      <trkpt lat="43.75588" lon="3.54153">
        <ele>408</ele>
        <time>2016-04-15T07:25:36Z</time>
      </trkpt>
      <trkpt lat="43.75589" lon="3.54146">
        <ele>409</ele>
        <time>2016-04-15T07:25:41Z</time>
      </trkpt>
      <trkpt lat="43.75592" lon="3.54141">
        <ele>410</ele>
        <time>2016-04-15T07:25:48Z</time>
      </trkpt>
      <trkpt lat="43.75596" lon="3.54137">
        <ele>413</ele>
        <time>2016-04-15T07:25:55Z</time>
      </trkpt>
      <trkpt lat="43.75598" lon="3.54131">
        <ele>412</ele>
        <time>2016-04-15T07:26:02Z</time>
      </trkpt>
      <trkpt lat="43.75603" lon="3.54115">
        <ele>410</ele>
        <time>2016-04-15T07:26:24Z</time>
      </trkpt>
      <trkpt lat="43.75605" lon="3.54106">
        <ele>410</ele>
        <time>2016-04-15T07:26:39Z</time>
      </trkpt>
      <trkpt lat="43.75611" lon="3.54096">
        <ele>410</ele>
        <time>2016-04-15T07:26:50Z</time>
      </trkpt>
      <trkpt lat="43.75614" lon="3.54091">
        <ele>410</ele>
        <time>2016-04-15T07:26:56Z</time>
      </trkpt>
      <trkpt lat="43.75615" lon="3.54084">
        <ele>412</ele>
        <time>2016-04-15T07:27:04Z</time>
      </trkpt>
      <trkpt lat="43.75615" lon="3.54078">
        <ele>412</ele>
        <time>2016-04-15T07:27:12Z</time>
      </trkpt>
      <trkpt lat="43.75618" lon="3.54069">
        <ele>415</ele>
        <time>2016-04-15T07:27:24Z</time>
      </trkpt>
      <trkpt lat="43.7562" lon="3.54063">
        <ele>416</ele>
        <time>2016-04-15T07:27:31Z</time>
      </trkpt>
      <trkpt lat="43.75625" lon="3.54052">
        <ele>418</ele>
        <time>2016-04-15T07:27:46Z</time>
      </trkpt>
      <trkpt lat="43.75623" lon="3.54046">
        <ele>420</ele>
        <time>2016-04-15T07:27:54Z</time>
      </trkpt>
      <trkpt lat="43.75619" lon="3.54043">
        <ele>423</ele>
        <time>2016-04-15T07:28:04Z</time>
      </trkpt>
      <trkpt lat="43.75615" lon="3.54045">
        <ele>428</ele>
        <time>2016-04-15T07:28:18Z</time>
      </trkpt>
      <trkpt lat="43.75606" lon="3.54046">
        <ele>433</ele>
        <time>2016-04-15T07:28:36Z</time>
      </trkpt>
      <trkpt lat="43.75596" lon="3.54046">
        <ele>434</ele>
        <time>2016-04-15T07:28:49Z</time>
      </trkpt>
      <trkpt lat="43.75593" lon="3.54051">
        <ele>435</ele>
        <time>2016-04-15T07:28:55Z</time>
      </trkpt>
      <trkpt lat="43.75589" lon="3.54052">
        <ele>434</ele>
        <time>2016-04-15T07:29:06Z</time>
      </trkpt>
      <trkpt lat="43.75584" lon="3.54052">
        <ele>433</ele>
        <time>2016-04-15T07:29:09Z</time>
      </trkpt>
      <trkpt lat="43.75569" lon="3.54058">
        <ele>431</ele>
        <time>2016-04-15T07:29:37Z</time>
      </trkpt>
      <trkpt lat="43.75565" lon="3.54062">
        <ele>431</ele>
        <time>2016-04-15T07:29:44Z</time>
      </trkpt>
      <trkpt lat="43.75562" lon="3.54067">
        <ele>430</ele>
        <time>2016-04-15T07:29:51Z</time>
      </trkpt>
      <trkpt lat="43.75557" lon="3.54065">
        <ele>430</ele>
        <time>2016-04-15T07:30:00Z</time>
      </trkpt>
      <trkpt lat="43.75554" lon="3.5407">
        <ele>430</ele>
        <time>2016-04-15T07:30:06Z</time>
      </trkpt>
      <trkpt lat="43.75547" lon="3.54081">
        <ele>434</ele>
        <time>2016-04-15T07:30:18Z</time>
      </trkpt>
      <trkpt lat="43.75543" lon="3.54083">
        <ele>433</ele>
        <time>2016-04-15T07:30:22Z</time>
      </trkpt>
      <trkpt lat="43.75538" lon="3.54086">
        <ele>433</ele>
        <time>2016-04-15T07:30:28Z</time>
      </trkpt>
      <trkpt lat="43.75533" lon="3.54089">
        <ele>434</ele>
        <time>2016-04-15T07:30:36Z</time>
      </trkpt>
      <trkpt lat="43.75529" lon="3.54088">
        <ele>435</ele>
        <time>2016-04-15T07:30:44Z</time>
      </trkpt>
      <trkpt lat="43.75524" lon="3.54087">
        <ele>435</ele>
        <time>2016-04-15T07:30:50Z</time>
      </trkpt>
      <trkpt lat="43.7552" lon="3.54091">
        <ele>435</ele>
        <time>2016-04-15T07:30:55Z</time>
      </trkpt>
      <trkpt lat="43.75515" lon="3.54092">
        <ele>435</ele>
        <time>2016-04-15T07:30:59Z</time>
      </trkpt>
      <trkpt lat="43.75512" lon="3.54097">
        <ele>437</ele>
        <time>2016-04-15T07:31:10Z</time>
      </trkpt>
      <trkpt lat="43.75503" lon="3.54112">
        <ele>443</ele>
        <time>2016-04-15T07:31:29Z</time>
      </trkpt>
      <trkpt lat="43.75502" lon="3.54119">
        <ele>447</ele>
        <time>2016-04-15T07:31:36Z</time>
      </trkpt>
      <trkpt lat="43.75498" lon="3.54126">
        <ele>446</ele>
        <time>2016-04-15T07:31:43Z</time>
      </trkpt>
      <trkpt lat="43.75491" lon="3.54134">
        <ele>444</ele>
        <time>2016-04-15T07:31:54Z</time>
      </trkpt>
      <trkpt lat="43.75494" lon="3.5414">
        <ele>443</ele>
        <time>2016-04-15T07:32:00Z</time>
      </trkpt>
      <trkpt lat="43.75494" lon="3.5415">
        <ele>444</ele>
        <time>2016-04-15T07:32:09Z</time>
      </trkpt>
      <trkpt lat="43.75493" lon="3.54153">
        <ele>445</ele>
        <time>2016-04-15T07:32:15Z</time>
      </trkpt>
      <trkpt lat="43.75493" lon="3.54148">
        <ele>449</ele>
        <time>2016-04-15T07:32:30Z</time>
      </trkpt>
      <trkpt lat="43.75491" lon="3.54141">
        <ele>450</ele>
        <time>2016-04-15T07:32:47Z</time>
      </trkpt>
      <trkpt lat="43.75489" lon="3.54135">
        <ele>450</ele>
        <time>2016-04-15T07:32:53Z</time>
      </trkpt>
      <trkpt lat="43.75488" lon="3.54126">
        <ele>450</ele>
        <time>2016-04-15T07:33:04Z</time>
      </trkpt>
      <trkpt lat="43.75491" lon="3.5412">
        <ele>451</ele>
        <time>2016-04-15T07:33:10Z</time>
      </trkpt>
      <trkpt lat="43.75492" lon="3.54112">
        <ele>454</ele>
        <time>2016-04-15T07:33:20Z</time>
      </trkpt>
      <trkpt lat="43.75492" lon="3.54099">
        <ele>455</ele>
        <time>2016-04-15T07:33:33Z</time>
      </trkpt>
      <trkpt lat="43.75492" lon="3.54092">
        <ele>455</ele>
        <time>2016-04-15T07:33:40Z</time>
      </trkpt>
      <trkpt lat="43.75494" lon="3.54087">
        <ele>454</ele>
        <time>2016-04-15T07:33:45Z</time>
      </trkpt>
      <trkpt lat="43.75493" lon="3.54073">
        <ele>452</ele>
        <time>2016-04-15T07:33:57Z</time>
      </trkpt>
      <trkpt lat="43.75493" lon="3.54066">
        <ele>452</ele>
        <time>2016-04-15T07:34:06Z</time>
      </trkpt>
      <trkpt lat="43.75497" lon="3.54062">
        <ele>452</ele>
        <time>2016-04-15T07:34:12Z</time>
      </trkpt>
      <trkpt lat="43.75503" lon="3.54056">
        <ele>453</ele>
        <time>2016-04-15T07:34:18Z</time>
      </trkpt>
      <trkpt lat="43.75504" lon="3.54049">
        <ele>452</ele>
        <time>2016-04-15T07:34:24Z</time>
      </trkpt>
      <trkpt lat="43.75508" lon="3.54045">
        <ele>452</ele>
        <time>2016-04-15T07:34:28Z</time>
      </trkpt>
      <trkpt lat="43.75514" lon="3.54042">
        <ele>452</ele>
        <time>2016-04-15T07:34:33Z</time>
      </trkpt>
      <trkpt lat="43.7552" lon="3.54041">
        <ele>453</ele>
        <time>2016-04-15T07:34:39Z</time>
      </trkpt>
      <trkpt lat="43.75524" lon="3.54044">
        <ele>454</ele>
        <time>2016-04-15T07:34:44Z</time>
      </trkpt>
      <trkpt lat="43.75529" lon="3.54046">
        <ele>455</ele>
        <time>2016-04-15T07:34:49Z</time>
      </trkpt>
      <trkpt lat="43.75535" lon="3.54047">
        <ele>454</ele>
        <time>2016-04-15T07:34:56Z</time>
      </trkpt>
      <trkpt lat="43.75539" lon="3.54044">
        <ele>454</ele>
        <time>2016-04-15T07:35:02Z</time>
      </trkpt>
      <trkpt lat="43.75545" lon="3.54035">
        <ele>455</ele>
        <time>2016-04-15T07:35:17Z</time>
      </trkpt>
      <trkpt lat="43.7554" lon="3.54034">
        <ele>455</ele>
        <time>2016-04-15T07:35:29Z</time>
      </trkpt>
      <trkpt lat="43.75542" lon="3.54027">
        <ele>455</ele>
        <time>2016-04-15T07:35:37Z</time>
      </trkpt>
      <trkpt lat="43.75542" lon="3.54021">
        <ele>456</ele>
        <time>2016-04-15T07:35:46Z</time>
      </trkpt>
      <trkpt lat="43.75547" lon="3.54018">
        <ele>457</ele>
        <time>2016-04-15T07:35:55Z</time>
      </trkpt>
      <trkpt lat="43.75556" lon="3.54011">
        <ele>462</ele>
        <time>2016-04-15T07:36:09Z</time>
      </trkpt>
      <trkpt lat="43.75557" lon="3.54006">
        <ele>462</ele>
        <time>2016-04-15T07:36:42Z</time>
      </trkpt>
      <trkpt lat="43.75552" lon="3.54005">
        <ele>462</ele>
        <time>2016-04-15T07:36:47Z</time>
      </trkpt>
      <trkpt lat="43.75552" lon="3.54001">
        <ele>461</ele>
        <time>2016-04-15T07:37:14Z</time>
      </trkpt>
      <trkpt lat="43.75555" lon="3.53995">
        <ele>461</ele>
        <time>2016-04-15T07:37:22Z</time>
      </trkpt>
      <trkpt lat="43.75558" lon="3.53987">
        <ele>461</ele>
        <time>2016-04-15T07:37:34Z</time>
      </trkpt>
      <trkpt lat="43.75562" lon="3.53977">
        <ele>462</ele>
        <time>2016-04-15T07:37:49Z</time>
      </trkpt>
      <trkpt lat="43.75567" lon="3.53965">
        <ele>470</ele>
        <time>2016-04-15T07:38:26Z</time>
      </trkpt>
      <trkpt lat="43.7557" lon="3.5396">
        <ele>471</ele>
        <time>2016-04-15T07:38:34Z</time>
      </trkpt>
      <trkpt lat="43.75576" lon="3.53952">
        <ele>470</ele>
        <time>2016-04-15T07:38:55Z</time>
      </trkpt>
      <trkpt lat="43.75576" lon="3.53947">
        <ele>472</ele>
        <time>2016-04-15T07:39:12Z</time>
      </trkpt>
      <trkpt lat="43.75574" lon="3.53942">
        <ele>472</ele>
        <time>2016-04-15T07:39:30Z</time>
      </trkpt>
      <trkpt lat="43.75578" lon="3.53939">
        <ele>472</ele>
        <time>2016-04-15T07:39:38Z</time>
      </trkpt>
      <trkpt lat="43.75588" lon="3.5394">
        <ele>473</ele>
        <time>2016-04-15T07:39:49Z</time>
      </trkpt>
      <trkpt lat="43.75591" lon="3.53938">
        <ele>472</ele>
        <time>2016-04-15T07:39:59Z</time>
      </trkpt>
      <trkpt lat="43.75597" lon="3.53924">
        <ele>473</ele>
        <time>2016-04-15T07:40:18Z</time>
      </trkpt>
      <trkpt lat="43.75597" lon="3.53918">
        <ele>474</ele>
        <time>2016-04-15T07:40:26Z</time>
      </trkpt>
      <trkpt lat="43.756" lon="3.53912">
        <ele>474</ele>
        <time>2016-04-15T07:40:34Z</time>
      </trkpt>
      <trkpt lat="43.75604" lon="3.53908">
        <ele>474</ele>
        <time>2016-04-15T07:40:41Z</time>
      </trkpt>
      <trkpt lat="43.75608" lon="3.53904">
        <ele>474</ele>
        <time>2016-04-15T07:40:51Z</time>
      </trkpt>
      <trkpt lat="43.7561" lon="3.53899">
        <ele>475</ele>
        <time>2016-04-15T07:41:01Z</time>
      </trkpt>
      <trkpt lat="43.75614" lon="3.53896">
        <ele>476</ele>
        <time>2016-04-15T07:41:09Z</time>
      </trkpt>
      <trkpt lat="43.75619" lon="3.53898">
        <ele>476</ele>
        <time>2016-04-15T07:41:16Z</time>
      </trkpt>
      <trkpt lat="43.75623" lon="3.53897">
        <ele>476</ele>
        <time>2016-04-15T07:41:21Z</time>
      </trkpt>
      <trkpt lat="43.75634" lon="3.53893">
        <ele>475</ele>
        <time>2016-04-15T07:41:32Z</time>
      </trkpt>
      <trkpt lat="43.75644" lon="3.53889">
        <ele>474</ele>
        <time>2016-04-15T07:41:42Z</time>
      </trkpt>
      <trkpt lat="43.75647" lon="3.53883">
        <ele>474</ele>
        <time>2016-04-15T07:41:48Z</time>
      </trkpt>
      <trkpt lat="43.75649" lon="3.53877">
        <ele>474</ele>
        <time>2016-04-15T07:41:56Z</time>
      </trkpt>
      <trkpt lat="43.75651" lon="3.53872">
        <ele>474</ele>
        <time>2016-04-15T07:42:05Z</time>
      </trkpt>
      <trkpt lat="43.75656" lon="3.53869">
        <ele>475</ele>
        <time>2016-04-15T07:42:12Z</time>
      </trkpt>
      <trkpt lat="43.75654" lon="3.53865">
        <ele>472</ele>
        <time>2016-04-15T07:42:27Z</time>
      </trkpt>
      <trkpt lat="43.75658" lon="3.53862">
        <ele>472</ele>
        <time>2016-04-15T07:42:33Z</time>
      </trkpt>
      <trkpt lat="43.75671" lon="3.53857">
        <ele>471</ele>
        <time>2016-04-15T07:42:43Z</time>
      </trkpt>
      <trkpt lat="43.7568" lon="3.53856">
        <ele>468</ele>
        <time>2016-04-15T07:42:52Z</time>
      </trkpt>
      <trkpt lat="43.75684" lon="3.53854">
        <ele>468</ele>
        <time>2016-04-15T07:43:01Z</time>
      </trkpt>
      <trkpt lat="43.75689" lon="3.53854">
        <ele>468</ele>
        <time>2016-04-15T07:43:08Z</time>
      </trkpt>
      <trkpt lat="43.75693" lon="3.53854">
        <ele>468</ele>
        <time>2016-04-15T07:43:18Z</time>
      </trkpt>
      <trkpt lat="43.75706" lon="3.53847">
        <ele>472</ele>
        <time>2016-04-15T07:43:42Z</time>
      </trkpt>
      <trkpt lat="43.7571" lon="3.53848">
        <ele>472</ele>
        <time>2016-04-15T07:43:50Z</time>
      </trkpt>
      <trkpt lat="43.75714" lon="3.5385">
        <ele>472</ele>
        <time>2016-04-15T07:43:58Z</time>
      </trkpt>
      <trkpt lat="43.75714" lon="3.53843">
        <ele>472</ele>
        <time>2016-04-15T07:44:04Z</time>
      </trkpt>
      <trkpt lat="43.75708" lon="3.53843">
        <ele>476</ele>
        <time>2016-04-15T07:44:20Z</time>
      </trkpt>
      <trkpt lat="43.75704" lon="3.53841">
        <ele>480</ele>
        <time>2016-04-15T07:44:25Z</time>
      </trkpt>
      <trkpt lat="43.75705" lon="3.53834">
        <ele>482</ele>
        <time>2016-04-15T07:44:33Z</time>
      </trkpt>
      <trkpt lat="43.75709" lon="3.53833">
        <ele>482</ele>
        <time>2016-04-15T07:44:39Z</time>
      </trkpt>
      <trkpt lat="43.75714" lon="3.53831">
        <ele>483</ele>
        <time>2016-04-15T07:44:47Z</time>
      </trkpt>
      <trkpt lat="43.75719" lon="3.53832">
        <ele>483</ele>
        <time>2016-04-15T07:44:53Z</time>
      </trkpt>
      <trkpt lat="43.7572" lon="3.53828">
        <ele>484</ele>
        <time>2016-04-15T07:45:06Z</time>
      </trkpt>
      <trkpt lat="43.75711" lon="3.53822">
        <ele>488</ele>
        <time>2016-04-15T07:45:23Z</time>
      </trkpt>
      <trkpt lat="43.75711" lon="3.53818">
        <ele>489</ele>
        <time>2016-04-15T07:45:31Z</time>
      </trkpt>
      <trkpt lat="43.75715" lon="3.53816">
        <ele>489</ele>
        <time>2016-04-15T07:45:38Z</time>
      </trkpt>
      <trkpt lat="43.7572" lon="3.53815">
        <ele>489</ele>
        <time>2016-04-15T07:45:45Z</time>
      </trkpt>
      <trkpt lat="43.75719" lon="3.53814">
        <ele>489</ele>
        <time>2016-04-15T07:46:08Z</time>
      </trkpt>
      <trkpt lat="43.75712" lon="3.53812">
        <ele>492</ele>
        <time>2016-04-15T07:46:26Z</time>
      </trkpt>
      <trkpt lat="43.75712" lon="3.53807">
        <ele>496</ele>
        <time>2016-04-15T07:46:37Z</time>
      </trkpt>
      <trkpt lat="43.75716" lon="3.53804">
        <ele>496</ele>
        <time>2016-04-15T07:46:43Z</time>
      </trkpt>
      <trkpt lat="43.75724" lon="3.538">
        <ele>492</ele>
        <time>2016-04-15T07:46:56Z</time>
      </trkpt>
      <trkpt lat="43.75722" lon="3.53797">
        <ele>493</ele>
        <time>2016-04-15T07:47:04Z</time>
      </trkpt>
      <trkpt lat="43.75721" lon="3.53793">
        <ele>495</ele>
        <time>2016-04-15T07:47:29Z</time>
      </trkpt>
      <trkpt lat="43.75721" lon="3.53788">
        <ele>494</ele>
        <time>2016-04-15T07:48:05Z</time>
      </trkpt>
      <trkpt lat="43.75716" lon="3.53791">
        <ele>494</ele>
        <time>2016-04-15T07:48:12Z</time>
      </trkpt>
      <trkpt lat="43.75715" lon="3.53795">
        <ele>495</ele>
        <time>2016-04-15T07:48:19Z</time>
      </trkpt>
      <trkpt lat="43.75712" lon="3.53792">
        <ele>497</ele>
        <time>2016-04-15T07:48:49Z</time>
      </trkpt>
      <trkpt lat="43.75709" lon="3.53788">
        <ele>498</ele>
        <time>2016-04-15T08:05:50Z</time>
      </trkpt>
      <trkpt lat="43.75706" lon="3.53792">
        <ele>499</ele>
        <time>2016-04-15T08:06:01Z</time>
      </trkpt>
      <trkpt lat="43.75705" lon="3.53786">
        <ele>500</ele>
        <time>2016-04-15T08:06:53Z</time>
      </trkpt>
      <trkpt lat="43.75709" lon="3.53787">
        <ele>501</ele>
        <time>2016-04-15T08:07:22Z</time>
      </trkpt>
      <trkpt lat="43.75708" lon="3.5379">
        <ele>505</ele>
        <time>2016-04-15T08:11:13Z</time>
      </trkpt>
      <trkpt lat="43.75708" lon="3.53793">
        <ele>505</ele>
        <time>2016-04-15T08:11:53Z</time>
      </trkpt>
      <trkpt lat="43.75711" lon="3.5379">
        <ele>505</ele>
        <time>2016-04-15T08:12:15Z</time>
      </trkpt>
      <trkpt lat="43.75711" lon="3.53785">
        <ele>505</ele>
        <time>2016-04-15T08:12:25Z</time>
      </trkpt>
      <trkpt lat="43.75712" lon="3.53778">
        <ele>505</ele>
        <time>2016-04-15T08:12:33Z</time>
      </trkpt>
      <trkpt lat="43.75711" lon="3.53771">
        <ele>504</ele>
        <time>2016-04-15T08:12:39Z</time>
      </trkpt>
      <trkpt lat="43.75714" lon="3.5377">
        <ele>503</ele>
        <time>2016-04-15T08:13:05Z</time>
      </trkpt>
      <trkpt lat="43.75717" lon="3.53767">
        <ele>506</ele>
        <time>2016-04-15T08:13:25Z</time>
      </trkpt>
      <trkpt lat="43.75715" lon="3.5376">
        <ele>506</ele>
        <time>2016-04-15T08:13:32Z</time>
      </trkpt>
      <trkpt lat="43.75718" lon="3.53757">
        <ele>508</ele>
        <time>2016-04-15T08:13:51Z</time>
      </trkpt>
      <trkpt lat="43.75724" lon="3.53762">
        <ele>509</ele>
        <time>2016-04-15T08:14:04Z</time>
      </trkpt>
      <trkpt lat="43.75727" lon="3.53762">
        <ele>510</ele>
        <time>2016-04-15T08:14:12Z</time>
      </trkpt>
      <trkpt lat="43.75727" lon="3.53756">
        <ele>511</ele>
        <time>2016-04-15T08:14:20Z</time>
      </trkpt>
      <trkpt lat="43.75723" lon="3.53751">
        <ele>513</ele>
        <time>2016-04-15T08:14:33Z</time>
      </trkpt>
      <trkpt lat="43.75711" lon="3.53742">
        <ele>517</ele>
        <time>2016-04-15T08:14:58Z</time>
      </trkpt>
      <trkpt lat="43.75714" lon="3.53737">
        <ele>517</ele>
        <time>2016-04-15T08:15:02Z</time>
      </trkpt>
      <trkpt lat="43.75718" lon="3.53735">
        <ele>517</ele>
        <time>2016-04-15T08:15:08Z</time>
      </trkpt>
      <trkpt lat="43.75722" lon="3.53733">
        <ele>517</ele>
        <time>2016-04-15T08:15:20Z</time>
      </trkpt>
      <trkpt lat="43.75724" lon="3.53734">
        <ele>518</ele>
        <time>2016-04-15T08:15:30Z</time>
      </trkpt>
      <trkpt lat="43.75729" lon="3.53737">
        <ele>516</ele>
        <time>2016-04-15T08:15:38Z</time>
      </trkpt>
      <trkpt lat="43.7573" lon="3.53741">
        <ele>517</ele>
        <time>2016-04-15T08:15:45Z</time>
      </trkpt>
      <trkpt lat="43.75735" lon="3.53743">
        <ele>519</ele>
        <time>2016-04-15T08:15:53Z</time>
      </trkpt>
      <trkpt lat="43.75741" lon="3.53752">
        <ele>522</ele>
        <time>2016-04-15T08:16:09Z</time>
      </trkpt>
      <trkpt lat="43.75745" lon="3.53757">
        <ele>522</ele>
        <time>2016-04-15T08:16:16Z</time>
      </trkpt>
      <trkpt lat="43.75747" lon="3.53763">
        <ele>523</ele>
        <time>2016-04-15T08:16:23Z</time>
      </trkpt>
      <trkpt lat="43.75756" lon="3.53775">
        <ele>528</ele>
        <time>2016-04-15T08:16:55Z</time>
      </trkpt>
      <trkpt lat="43.75754" lon="3.53771">
        <ele>528</ele>
        <time>2016-04-15T08:17:31Z</time>
      </trkpt>
      <trkpt lat="43.75753" lon="3.53767">
        <ele>528</ele>
        <time>2016-04-15T08:17:39Z</time>
      </trkpt>
      <trkpt lat="43.75753" lon="3.53761">
        <ele>529</ele>
        <time>2016-04-15T08:17:51Z</time>
      </trkpt>
      <trkpt lat="43.75755" lon="3.53748">
        <ele>533</ele>
        <time>2016-04-15T08:18:09Z</time>
      </trkpt>
      <trkpt lat="43.75759" lon="3.53748">
        <ele>533</ele>
        <time>2016-04-15T08:18:15Z</time>
      </trkpt>
      <trkpt lat="43.75762" lon="3.53754">
        <ele>532</ele>
        <time>2016-04-15T08:18:24Z</time>
      </trkpt>
      <trkpt lat="43.75764" lon="3.53759">
        <ele>533</ele>
        <time>2016-04-15T08:18:33Z</time>
      </trkpt>
      <trkpt lat="43.75769" lon="3.53762">
        <ele>532</ele>
        <time>2016-04-15T08:18:53Z</time>
      </trkpt>
      <trkpt lat="43.75771" lon="3.53759">
        <ele>534</ele>
        <time>2016-04-15T08:19:34Z</time>
      </trkpt>
      <trkpt lat="43.75772" lon="3.53756">
        <ele>535</ele>
        <time>2016-04-15T08:19:45Z</time>
      </trkpt>
      <trkpt lat="43.75774" lon="3.53752">
        <ele>535</ele>
        <time>2016-04-15T08:19:57Z</time>
      </trkpt>
      <trkpt lat="43.75773" lon="3.53749">
        <ele>537</ele>
        <time>2016-04-15T08:20:03Z</time>
      </trkpt>
      <trkpt lat="43.75774" lon="3.53743">
        <ele>536</ele>
        <time>2016-04-15T08:20:10Z</time>
      </trkpt>
      <trkpt lat="43.75776" lon="3.53732">
        <ele>535</ele>
        <time>2016-04-15T08:20:26Z</time>
      </trkpt>
      <trkpt lat="43.75776" lon="3.53727">
        <ele>535</ele>
        <time>2016-04-15T08:20:37Z</time>
      </trkpt>
      <trkpt lat="43.75772" lon="3.53722">
        <ele>534</ele>
        <time>2016-04-15T08:20:43Z</time>
      </trkpt>
      <trkpt lat="43.75774" lon="3.53716">
        <ele>533</ele>
        <time>2016-04-15T08:20:50Z</time>
      </trkpt>
      <trkpt lat="43.75776" lon="3.5371">
        <ele>532</ele>
        <time>2016-04-15T08:21:00Z</time>
      </trkpt>
      <trkpt lat="43.75777" lon="3.53704">
        <ele>532</ele>
        <time>2016-04-15T08:21:07Z</time>
      </trkpt>
      <trkpt lat="43.75776" lon="3.53697">
        <ele>531</ele>
        <time>2016-04-15T08:21:13Z</time>
      </trkpt>
      <trkpt lat="43.75776" lon="3.53691">
        <ele>530</ele>
        <time>2016-04-15T08:21:23Z</time>
      </trkpt>
      <trkpt lat="43.75775" lon="3.53687">
        <ele>528</ele>
        <time>2016-04-15T08:21:29Z</time>
      </trkpt>
      <trkpt lat="43.7578" lon="3.53687">
        <ele>527</ele>
        <time>2016-04-15T08:21:44Z</time>
      </trkpt>
      <trkpt lat="43.75782" lon="3.53694">
        <ele>527</ele>
        <time>2016-04-15T08:21:58Z</time>
      </trkpt>
      <trkpt lat="43.75781" lon="3.53696">
        <ele>526</ele>
        <time>2016-04-15T08:22:13Z</time>
      </trkpt>
      <trkpt lat="43.75785" lon="3.53689">
        <ele>527</ele>
        <time>2016-04-15T08:22:26Z</time>
      </trkpt>
      <trkpt lat="43.75781" lon="3.53684">
        <ele>527</ele>
        <time>2016-04-15T08:22:36Z</time>
      </trkpt>
      <trkpt lat="43.75776" lon="3.53679">
        <ele>527</ele>
        <time>2016-04-15T08:22:41Z</time>
      </trkpt>
      <trkpt lat="43.75776" lon="3.53672">
        <ele>527</ele>
        <time>2016-04-15T08:22:47Z</time>
      </trkpt>
      <trkpt lat="43.75783" lon="3.53665">
        <ele>526</ele>
        <time>2016-04-15T08:22:51Z</time>
      </trkpt>
      <trkpt lat="43.75779" lon="3.53654">
        <ele>523</ele>
        <time>2016-04-15T08:23:03Z</time>
      </trkpt>
      <trkpt lat="43.75781" lon="3.53658">
        <ele>521</ele>
        <time>2016-04-15T08:23:28Z</time>
      </trkpt>
      <trkpt lat="43.75787" lon="3.5366">
        <ele>521</ele>
        <time>2016-04-15T08:23:32Z</time>
      </trkpt>
      <trkpt lat="43.75798" lon="3.53666">
        <ele>523</ele>
        <time>2016-04-15T08:23:41Z</time>
      </trkpt>
      <trkpt lat="43.75801" lon="3.53672">
        <ele>523</ele>
        <time>2016-04-15T08:23:45Z</time>
      </trkpt>
      <trkpt lat="43.75805" lon="3.53694">
        <ele>516</ele>
        <time>2016-04-15T08:23:58Z</time>
      </trkpt>
      <trkpt lat="43.75804" lon="3.53701">
        <ele>515</ele>
        <time>2016-04-15T08:24:02Z</time>
      </trkpt>
      <trkpt lat="43.75802" lon="3.53706">
        <ele>514</ele>
        <time>2016-04-15T08:24:05Z</time>
      </trkpt>
      <trkpt lat="43.75804" lon="3.53712">
        <ele>513</ele>
        <time>2016-04-15T08:24:11Z</time>
      </trkpt>
      <trkpt lat="43.75806" lon="3.53719">
        <ele>512</ele>
        <time>2016-04-15T08:24:16Z</time>
      </trkpt>
      <trkpt lat="43.75809" lon="3.53724">
        <ele>512</ele>
        <time>2016-04-15T08:24:24Z</time>
      </trkpt>
      <trkpt lat="43.75813" lon="3.53727">
        <ele>513</ele>
        <time>2016-04-15T08:24:31Z</time>
      </trkpt>
      <trkpt lat="43.75814" lon="3.53733">
        <ele>512</ele>
        <time>2016-04-15T08:24:38Z</time>
      </trkpt>
      <trkpt lat="43.75819" lon="3.53734">
        <ele>512</ele>
        <time>2016-04-15T08:24:46Z</time>
      </trkpt>
      <trkpt lat="43.75825" lon="3.53721">
        <ele>515</ele>
        <time>2016-04-15T08:25:24Z</time>
      </trkpt>
      <trkpt lat="43.75828" lon="3.53714">
        <ele>516</ele>
        <time>2016-04-15T08:25:35Z</time>
      </trkpt>
      <trkpt lat="43.75835" lon="3.53711">
        <ele>513</ele>
        <time>2016-04-15T08:25:48Z</time>
      </trkpt>
      <trkpt lat="43.75842" lon="3.53701">
        <ele>505</ele>
        <time>2016-04-15T08:26:09Z</time>
      </trkpt>
      <trkpt lat="43.75847" lon="3.53698">
        <ele>503</ele>
        <time>2016-04-15T08:26:14Z</time>
      </trkpt>
      <trkpt lat="43.75856" lon="3.53703">
        <ele>500</ele>
        <time>2016-04-15T08:26:29Z</time>
      </trkpt>
      <trkpt lat="43.75861" lon="3.53703">
        <ele>501</ele>
        <time>2016-04-15T08:26:36Z</time>
      </trkpt>
      <trkpt lat="43.75866" lon="3.537">
        <ele>501</ele>
        <time>2016-04-15T08:26:42Z</time>
      </trkpt>
      <trkpt lat="43.75875" lon="3.53698">
        <ele>504</ele>
        <time>2016-04-15T08:26:55Z</time>
      </trkpt>
      <trkpt lat="43.75876" lon="3.53693">
        <ele>504</ele>
        <time>2016-04-15T08:27:05Z</time>
      </trkpt>
      <trkpt lat="43.75876" lon="3.5369">
        <ele>502</ele>
        <time>2016-04-15T08:27:30Z</time>
      </trkpt>
      <trkpt lat="43.75905" lon="3.5369">
        <ele>496</ele>
        <time>2016-04-15T08:28:02Z</time>
      </trkpt>
      <trkpt lat="43.7591" lon="3.53688">
        <ele>496</ele>
        <time>2016-04-15T08:28:07Z</time>
      </trkpt>
      <trkpt lat="43.75939" lon="3.53663">
        <ele>500</ele>
        <time>2016-04-15T08:28:41Z</time>
      </trkpt>
      <trkpt lat="43.75942" lon="3.53658">
        <ele>502</ele>
        <time>2016-04-15T08:28:47Z</time>
      </trkpt>
      <trkpt lat="43.75955" lon="3.53648">
        <ele>504</ele>
        <time>2016-04-15T08:29:07Z</time>
      </trkpt>
      <trkpt lat="43.7596" lon="3.53644">
        <ele>504</ele>
        <time>2016-04-15T08:29:13Z</time>
      </trkpt>
      <trkpt lat="43.75964" lon="3.53642">
        <ele>503</ele>
        <time>2016-04-15T08:29:18Z</time>
      </trkpt>
      <trkpt lat="43.75968" lon="3.53637">
        <ele>504</ele>
        <time>2016-04-15T08:29:24Z</time>
      </trkpt>
      <trkpt lat="43.75974" lon="3.53627">
        <ele>506</ele>
        <time>2016-04-15T08:29:36Z</time>
      </trkpt>
      <trkpt lat="43.75979" lon="3.53624">
        <ele>507</ele>
        <time>2016-04-15T08:29:42Z</time>
      </trkpt>
      <trkpt lat="43.75982" lon="3.53619">
        <ele>507</ele>
        <time>2016-04-15T08:29:47Z</time>
      </trkpt>
      <trkpt lat="43.75985" lon="3.53614">
        <ele>507</ele>
        <time>2016-04-15T08:29:53Z</time>
      </trkpt>
      <trkpt lat="43.75989" lon="3.5361">
        <ele>509</ele>
        <time>2016-04-15T08:29:59Z</time>
      </trkpt>
      <trkpt lat="43.75992" lon="3.53605">
        <ele>509</ele>
        <time>2016-04-15T08:30:05Z</time>
      </trkpt>
      <trkpt lat="43.75995" lon="3.53601">
        <ele>509</ele>
        <time>2016-04-15T08:30:11Z</time>
      </trkpt>
      <trkpt lat="43.75999" lon="3.53596">
        <ele>511</ele>
        <time>2016-04-15T08:30:17Z</time>
      </trkpt>
      <trkpt lat="43.76003" lon="3.53591">
        <ele>510</ele>
        <time>2016-04-15T08:30:24Z</time>
      </trkpt>
      <trkpt lat="43.76006" lon="3.53586">
        <ele>510</ele>
        <time>2016-04-15T08:30:31Z</time>
      </trkpt>
      <trkpt lat="43.76008" lon="3.53579">
        <ele>511</ele>
        <time>2016-04-15T08:30:38Z</time>
      </trkpt>
      <trkpt lat="43.7601" lon="3.53573">
        <ele>511</ele>
        <time>2016-04-15T08:30:45Z</time>
      </trkpt>
      <trkpt lat="43.76013" lon="3.53569">
        <ele>510</ele>
        <time>2016-04-15T08:30:52Z</time>
      </trkpt>
      <trkpt lat="43.76015" lon="3.53563">
        <ele>511</ele>
        <time>2016-04-15T08:31:00Z</time>
      </trkpt>
      <trkpt lat="43.76019" lon="3.53558">
        <ele>512</ele>
        <time>2016-04-15T08:31:05Z</time>
      </trkpt>
      <trkpt lat="43.76022" lon="3.53552">
        <ele>512</ele>
        <time>2016-04-15T08:31:12Z</time>
      </trkpt>
      <trkpt lat="43.76027" lon="3.53549">
        <ele>512</ele>
        <time>2016-04-15T08:31:17Z</time>
      </trkpt>
      <trkpt lat="43.76031" lon="3.53546">
        <ele>512</ele>
        <time>2016-04-15T08:31:22Z</time>
      </trkpt>
      <trkpt lat="43.76036" lon="3.53542">
        <ele>512</ele>
        <time>2016-04-15T08:31:27Z</time>
      </trkpt>
      <trkpt lat="43.76044" lon="3.53535">
        <ele>512</ele>
        <time>2016-04-15T08:31:37Z</time>
      </trkpt>
      <trkpt lat="43.76048" lon="3.53531">
        <ele>512</ele>
        <time>2016-04-15T08:31:42Z</time>
      </trkpt>
      <trkpt lat="43.76055" lon="3.53519">
        <ele>511</ele>
        <time>2016-04-15T08:31:52Z</time>
      </trkpt>
      <trkpt lat="43.76058" lon="3.53514">
        <ele>512</ele>
        <time>2016-04-15T08:31:58Z</time>
      </trkpt>
      <trkpt lat="43.76062" lon="3.5351">
        <ele>511</ele>
        <time>2016-04-15T08:32:03Z</time>
      </trkpt>
      <trkpt lat="43.76065" lon="3.53504">
        <ele>511</ele>
        <time>2016-04-15T08:32:08Z</time>
      </trkpt>
      <trkpt lat="43.76068" lon="3.53499">
        <ele>513</ele>
        <time>2016-04-15T08:32:14Z</time>
      </trkpt>
      <trkpt lat="43.76073" lon="3.53497">
        <ele>512</ele>
        <time>2016-04-15T08:32:19Z</time>
      </trkpt>
      <trkpt lat="43.76076" lon="3.53489">
        <ele>508</ele>
        <time>2016-04-15T08:32:34Z</time>
      </trkpt>
      <trkpt lat="43.7609" lon="3.53473">
        <ele>505</ele>
        <time>2016-04-15T08:33:02Z</time>
      </trkpt>
      <trkpt lat="43.76098" lon="3.53464">
        <ele>505</ele>
        <time>2016-04-15T08:33:14Z</time>
      </trkpt>
      <trkpt lat="43.76103" lon="3.53461">
        <ele>505</ele>
        <time>2016-04-15T08:33:22Z</time>
      </trkpt>
      <trkpt lat="43.76107" lon="3.53457">
        <ele>505</ele>
        <time>2016-04-15T08:33:28Z</time>
      </trkpt>
      <trkpt lat="43.76117" lon="3.53445">
        <ele>507</ele>
        <time>2016-04-15T08:33:45Z</time>
      </trkpt>
      <trkpt lat="43.76121" lon="3.5344">
        <ele>506</ele>
        <time>2016-04-15T08:33:54Z</time>
      </trkpt>
      <trkpt lat="43.76125" lon="3.53437">
        <ele>507</ele>
        <time>2016-04-15T08:34:02Z</time>
      </trkpt>
      <trkpt lat="43.76145" lon="3.53429">
        <ele>507</ele>
        <time>2016-04-15T08:34:24Z</time>
      </trkpt>
      <trkpt lat="43.76174" lon="3.53423">
        <ele>500</ele>
        <time>2016-04-15T08:34:56Z</time>
      </trkpt>
      <trkpt lat="43.76188" lon="3.53426">
        <ele>499</ele>
        <time>2016-04-15T08:35:10Z</time>
      </trkpt>
      <trkpt lat="43.76193" lon="3.53427">
        <ele>498</ele>
        <time>2016-04-15T08:35:15Z</time>
      </trkpt>
      <trkpt lat="43.76198" lon="3.53426">
        <ele>499</ele>
        <time>2016-04-15T08:35:21Z</time>
      </trkpt>
      <trkpt lat="43.76203" lon="3.53425">
        <ele>499</ele>
        <time>2016-04-15T08:35:26Z</time>
      </trkpt>
      <trkpt lat="43.76214" lon="3.53423">
        <ele>498</ele>
        <time>2016-04-15T08:35:36Z</time>
      </trkpt>
      <trkpt lat="43.76219" lon="3.53422">
        <ele>498</ele>
        <time>2016-04-15T08:35:41Z</time>
      </trkpt>
      <trkpt lat="43.76223" lon="3.53421">
        <ele>497</ele>
        <time>2016-04-15T08:35:46Z</time>
      </trkpt>
      <trkpt lat="43.76228" lon="3.53421">
        <ele>497</ele>
        <time>2016-04-15T08:35:52Z</time>
      </trkpt>
      <trkpt lat="43.76256" lon="3.53429">
        <ele>492</ele>
        <time>2016-04-15T08:36:26Z</time>
      </trkpt>
      <trkpt lat="43.7626" lon="3.53433">
        <ele>491</ele>
        <time>2016-04-15T08:36:32Z</time>
      </trkpt>
      <trkpt lat="43.76262" lon="3.53439">
        <ele>491</ele>
        <time>2016-04-15T08:36:38Z</time>
      </trkpt>
      <trkpt lat="43.76262" lon="3.53446">
        <ele>490</ele>
        <time>2016-04-15T08:36:43Z</time>
      </trkpt>
      <trkpt lat="43.76273" lon="3.53477">
        <ele>483</ele>
        <time>2016-04-15T08:37:07Z</time>
      </trkpt>
      <trkpt lat="43.76274" lon="3.53483">
        <ele>484</ele>
        <time>2016-04-15T08:37:13Z</time>
      </trkpt>
      <trkpt lat="43.76276" lon="3.53497">
        <ele>482</ele>
        <time>2016-04-15T08:37:34Z</time>
      </trkpt>
      <trkpt lat="43.76277" lon="3.53503">
        <ele>482</ele>
        <time>2016-04-15T08:37:39Z</time>
      </trkpt>
      <trkpt lat="43.76277" lon="3.53538">
        <ele>477</ele>
        <time>2016-04-15T08:38:04Z</time>
      </trkpt>
      <trkpt lat="43.76275" lon="3.53544">
        <ele>478</ele>
        <time>2016-04-15T08:38:09Z</time>
      </trkpt>
      <trkpt lat="43.76271" lon="3.53556">
        <ele>479</ele>
        <time>2016-04-15T08:38:21Z</time>
      </trkpt>
      <trkpt lat="43.76266" lon="3.53557">
        <ele>479</ele>
        <time>2016-04-15T08:38:26Z</time>
      </trkpt>
      <trkpt lat="43.76264" lon="3.53562">
        <ele>479</ele>
        <time>2016-04-15T08:38:31Z</time>
      </trkpt>
      <trkpt lat="43.76265" lon="3.53569">
        <ele>479</ele>
        <time>2016-04-15T08:38:37Z</time>
      </trkpt>
      <trkpt lat="43.76269" lon="3.53572">
        <ele>480</ele>
        <time>2016-04-15T08:38:45Z</time>
      </trkpt>
      <trkpt lat="43.76274" lon="3.53568">
        <ele>480</ele>
        <time>2016-04-15T08:38:52Z</time>
      </trkpt>
      <trkpt lat="43.76282" lon="3.53561">
        <ele>481</ele>
        <time>2016-04-15T08:39:01Z</time>
      </trkpt>
      <trkpt lat="43.76293" lon="3.53543">
        <ele>474</ele>
        <time>2016-04-15T08:39:29Z</time>
      </trkpt>
      <trkpt lat="43.76297" lon="3.53539">
        <ele>475</ele>
        <time>2016-04-15T08:39:38Z</time>
      </trkpt>
      <trkpt lat="43.76301" lon="3.53535">
        <ele>474</ele>
        <time>2016-04-15T08:39:44Z</time>
      </trkpt>
      <trkpt lat="43.76305" lon="3.53529">
        <ele>472</ele>
        <time>2016-04-15T08:39:49Z</time>
      </trkpt>
      <trkpt lat="43.76312" lon="3.53519">
        <ele>471</ele>
        <time>2016-04-15T08:39:59Z</time>
      </trkpt>
      <trkpt lat="43.76317" lon="3.53518">
        <ele>471</ele>
        <time>2016-04-15T08:40:03Z</time>
      </trkpt>
      <trkpt lat="43.76323" lon="3.53517">
        <ele>473</ele>
        <time>2016-04-15T08:40:08Z</time>
      </trkpt>
      <trkpt lat="43.76327" lon="3.53514">
        <ele>473</ele>
        <time>2016-04-15T08:40:12Z</time>
      </trkpt>
      <trkpt lat="43.76333" lon="3.53508">
        <ele>470</ele>
        <time>2016-04-15T08:40:20Z</time>
      </trkpt>
      <trkpt lat="43.76338" lon="3.53507">
        <ele>469</ele>
        <time>2016-04-15T08:40:29Z</time>
      </trkpt>
      <trkpt lat="43.76347" lon="3.53506">
        <ele>468</ele>
        <time>2016-04-15T08:40:37Z</time>
      </trkpt>
      <trkpt lat="43.76353" lon="3.53499">
        <ele>470</ele>
        <time>2016-04-15T08:40:45Z</time>
      </trkpt>
      <trkpt lat="43.76357" lon="3.535">
        <ele>470</ele>
        <time>2016-04-15T08:40:50Z</time>
      </trkpt>
      <trkpt lat="43.76362" lon="3.53501">
        <ele>471</ele>
        <time>2016-04-15T08:40:54Z</time>
      </trkpt>
      <trkpt lat="43.76372" lon="3.535">
        <ele>474</ele>
        <time>2016-04-15T08:41:01Z</time>
      </trkpt>
      <trkpt lat="43.76393" lon="3.53501">
        <ele>471</ele>
        <time>2016-04-15T08:41:19Z</time>
      </trkpt>
      <trkpt lat="43.76398" lon="3.53503">
        <ele>471</ele>
        <time>2016-04-15T08:41:22Z</time>
      </trkpt>
      <trkpt lat="43.76403" lon="3.53503">
        <ele>471</ele>
        <time>2016-04-15T08:41:26Z</time>
      </trkpt>
      <trkpt lat="43.76413" lon="3.535">
        <ele>475</ele>
        <time>2016-04-15T08:41:39Z</time>
      </trkpt>
      <trkpt lat="43.76417" lon="3.53496">
        <ele>474</ele>
        <time>2016-04-15T08:41:43Z</time>
      </trkpt>
      <trkpt lat="43.76426" lon="3.53489">
        <ele>473</ele>
        <time>2016-04-15T08:41:51Z</time>
      </trkpt>
      <trkpt lat="43.76434" lon="3.53482">
        <ele>473</ele>
        <time>2016-04-15T08:41:59Z</time>
      </trkpt>
      <trkpt lat="43.76442" lon="3.53474">
        <ele>472</ele>
        <time>2016-04-15T08:42:09Z</time>
      </trkpt>
      <trkpt lat="43.76447" lon="3.53462">
        <ele>471</ele>
        <time>2016-04-15T08:42:19Z</time>
      </trkpt>
      <trkpt lat="43.76452" lon="3.53458">
        <ele>472</ele>
        <time>2016-04-15T08:42:25Z</time>
      </trkpt>
      <trkpt lat="43.76454" lon="3.53452">
        <ele>471</ele>
        <time>2016-04-15T08:42:30Z</time>
      </trkpt>
      <trkpt lat="43.76455" lon="3.53445">
        <ele>471</ele>
        <time>2016-04-15T08:42:35Z</time>
      </trkpt>
      <trkpt lat="43.76455" lon="3.53439">
        <ele>472</ele>
        <time>2016-04-15T08:42:41Z</time>
      </trkpt>
      <trkpt lat="43.76457" lon="3.53433">
        <ele>472</ele>
        <time>2016-04-15T08:42:48Z</time>
      </trkpt>
      <trkpt lat="43.7646" lon="3.53428">
        <ele>472</ele>
        <time>2016-04-15T08:42:54Z</time>
      </trkpt>
      <trkpt lat="43.76462" lon="3.53415">
        <ele>472</ele>
        <time>2016-04-15T08:43:06Z</time>
      </trkpt>
      <trkpt lat="43.76463" lon="3.53408">
        <ele>471</ele>
        <time>2016-04-15T08:43:13Z</time>
      </trkpt>
      <trkpt lat="43.76468" lon="3.53405">
        <ele>471</ele>
        <time>2016-04-15T08:43:17Z</time>
      </trkpt>
      <trkpt lat="43.76471" lon="3.534">
        <ele>472</ele>
        <time>2016-04-15T08:43:21Z</time>
      </trkpt>
      <trkpt lat="43.76478" lon="3.53389">
        <ele>474</ele>
        <time>2016-04-15T08:43:32Z</time>
      </trkpt>
      <trkpt lat="43.76481" lon="3.53384">
        <ele>474</ele>
        <time>2016-04-15T08:43:39Z</time>
      </trkpt>
      <trkpt lat="43.76484" lon="3.5338">
        <ele>475</ele>
        <time>2016-04-15T08:43:46Z</time>
      </trkpt>
      <trkpt lat="43.76494" lon="3.53377">
        <ele>480</ele>
        <time>2016-04-15T08:44:01Z</time>
      </trkpt>
      <trkpt lat="43.76499" lon="3.53377">
        <ele>481</ele>
        <time>2016-04-15T08:44:05Z</time>
      </trkpt>
      <trkpt lat="43.76528" lon="3.53366">
        <ele>472</ele>
        <time>2016-04-15T08:44:32Z</time>
      </trkpt>
      <trkpt lat="43.76536" lon="3.53358">
        <ele>471</ele>
        <time>2016-04-15T08:44:46Z</time>
      </trkpt>
      <trkpt lat="43.76539" lon="3.53355">
        <ele>471</ele>
        <time>2016-04-15T08:44:51Z</time>
      </trkpt>
      <trkpt lat="43.76562" lon="3.53342">
        <ele>481</ele>
        <time>2016-04-15T08:45:25Z</time>
      </trkpt>
      <trkpt lat="43.7659" lon="3.53328">
        <ele>476</ele>
        <time>2016-04-15T08:46:00Z</time>
      </trkpt>
      <trkpt lat="43.76604" lon="3.53318">
        <ele>474</ele>
        <time>2016-04-15T08:46:16Z</time>
      </trkpt>
      <trkpt lat="43.76613" lon="3.53312">
        <ele>478</ele>
        <time>2016-04-15T08:46:29Z</time>
      </trkpt>
      <trkpt lat="43.76616" lon="3.53307">
        <ele>477</ele>
        <time>2016-04-15T08:46:36Z</time>
      </trkpt>
      <trkpt lat="43.76619" lon="3.53301">
        <ele>476</ele>
        <time>2016-04-15T08:46:43Z</time>
      </trkpt>
      <trkpt lat="43.76628" lon="3.53295">
        <ele>475</ele>
        <time>2016-04-15T08:46:55Z</time>
      </trkpt>
      <trkpt lat="43.76632" lon="3.53292">
        <ele>474</ele>
        <time>2016-04-15T08:47:00Z</time>
      </trkpt>
      <trkpt lat="43.76636" lon="3.53288">
        <ele>474</ele>
        <time>2016-04-15T08:47:06Z</time>
      </trkpt>
      <trkpt lat="43.76648" lon="3.53275">
        <ele>476</ele>
        <time>2016-04-15T08:47:23Z</time>
      </trkpt>
      <trkpt lat="43.76652" lon="3.53271">
        <ele>476</ele>
        <time>2016-04-15T08:47:30Z</time>
      </trkpt>
      <trkpt lat="43.76656" lon="3.53268">
        <ele>476</ele>
        <time>2016-04-15T08:47:38Z</time>
      </trkpt>
      <trkpt lat="43.7666" lon="3.53265">
        <ele>476</ele>
        <time>2016-04-15T08:47:47Z</time>
      </trkpt>
      <trkpt lat="43.76664" lon="3.53262">
        <ele>478</ele>
        <time>2016-04-15T08:47:55Z</time>
      </trkpt>
      <trkpt lat="43.76679" lon="3.53246">
        <ele>482</ele>
        <time>2016-04-15T08:48:23Z</time>
      </trkpt>
      <trkpt lat="43.76687" lon="3.53239">
        <ele>480</ele>
        <time>2016-04-15T08:48:35Z</time>
      </trkpt>
      <trkpt lat="43.7669" lon="3.53234">
        <ele>481</ele>
        <time>2016-04-15T08:48:44Z</time>
      </trkpt>
      <trkpt lat="43.76702" lon="3.53224">
        <ele>479</ele>
        <time>2016-04-15T08:49:07Z</time>
      </trkpt>
      <trkpt lat="43.7671" lon="3.53217">
        <ele>482</ele>
        <time>2016-04-15T08:49:21Z</time>
      </trkpt>
      <trkpt lat="43.76719" lon="3.5321">
        <ele>479</ele>
        <time>2016-04-15T08:49:32Z</time>
      </trkpt>
      <trkpt lat="43.76727" lon="3.53202">
        <ele>478</ele>
        <time>2016-04-15T08:49:43Z</time>
      </trkpt>
      <trkpt lat="43.76741" lon="3.53197">
        <ele>480</ele>
        <time>2016-04-15T08:50:02Z</time>
      </trkpt>
      <trkpt lat="43.76746" lon="3.53197">
        <ele>480</ele>
        <time>2016-04-15T08:50:08Z</time>
      </trkpt>
      <trkpt lat="43.76751" lon="3.53197">
        <ele>480</ele>
        <time>2016-04-15T08:50:14Z</time>
      </trkpt>
      <trkpt lat="43.76756" lon="3.53197">
        <ele>482</ele>
        <time>2016-04-15T08:50:21Z</time>
      </trkpt>
      <trkpt lat="43.76761" lon="3.532">
        <ele>483</ele>
        <time>2016-04-15T08:50:28Z</time>
      </trkpt>
      <trkpt lat="43.76765" lon="3.53204">
        <ele>483</ele>
        <time>2016-04-15T08:50:34Z</time>
      </trkpt>
      <trkpt lat="43.76772" lon="3.53214">
        <ele>486</ele>
        <time>2016-04-15T08:50:46Z</time>
      </trkpt>
      <trkpt lat="43.76777" lon="3.53213">
        <ele>486</ele>
        <time>2016-04-15T08:50:52Z</time>
      </trkpt>
      <trkpt lat="43.76782" lon="3.5321">
        <ele>486</ele>
        <time>2016-04-15T08:50:58Z</time>
      </trkpt>
      <trkpt lat="43.76802" lon="3.53213">
        <ele>482</ele>
        <time>2016-04-15T08:51:18Z</time>
      </trkpt>
      <trkpt lat="43.76806" lon="3.5321">
        <ele>481</ele>
        <time>2016-04-15T08:51:25Z</time>
      </trkpt>
      <trkpt lat="43.7681" lon="3.53209">
        <ele>479</ele>
        <time>2016-04-15T08:51:31Z</time>
      </trkpt>
      <trkpt lat="43.76813" lon="3.53203">
        <ele>478</ele>
        <time>2016-04-15T08:51:38Z</time>
      </trkpt>
      <trkpt lat="43.76817" lon="3.53183">
        <ele>480</ele>
        <time>2016-04-15T08:51:59Z</time>
      </trkpt>
      <trkpt lat="43.7682" lon="3.53177">
        <ele>480</ele>
        <time>2016-04-15T08:52:06Z</time>
      </trkpt>
      <trkpt lat="43.76824" lon="3.53175">
        <ele>481</ele>
        <time>2016-04-15T08:52:13Z</time>
      </trkpt>
      <trkpt lat="43.76827" lon="3.5317">
        <ele>482</ele>
        <time>2016-04-15T08:52:22Z</time>
      </trkpt>
      <trkpt lat="43.7683" lon="3.53164">
        <ele>483</ele>
        <time>2016-04-15T08:52:30Z</time>
      </trkpt>
      <trkpt lat="43.76834" lon="3.5316">
        <ele>484</ele>
        <time>2016-04-15T08:52:36Z</time>
      </trkpt>
      <trkpt lat="43.76839" lon="3.5316">
        <ele>486</ele>
        <time>2016-04-15T08:52:43Z</time>
      </trkpt>
      <trkpt lat="43.76849" lon="3.53165">
        <ele>487</ele>
        <time>2016-04-15T08:52:54Z</time>
      </trkpt>
      <trkpt lat="43.76853" lon="3.53164">
        <ele>486</ele>
        <time>2016-04-15T08:52:58Z</time>
      </trkpt>
      <trkpt lat="43.76857" lon="3.5316">
        <ele>485</ele>
        <time>2016-04-15T08:53:03Z</time>
      </trkpt>
      <trkpt lat="43.76861" lon="3.53158">
        <ele>485</ele>
        <time>2016-04-15T08:53:08Z</time>
      </trkpt>
      <trkpt lat="43.76865" lon="3.53153">
        <ele>484</ele>
        <time>2016-04-15T08:53:14Z</time>
      </trkpt>
      <trkpt lat="43.76869" lon="3.53148">
        <ele>484</ele>
        <time>2016-04-15T08:53:20Z</time>
      </trkpt>
      <trkpt lat="43.76879" lon="3.53145">
        <ele>486</ele>
        <time>2016-04-15T08:53:31Z</time>
      </trkpt>
      <trkpt lat="43.76883" lon="3.53143">
        <ele>487</ele>
        <time>2016-04-15T08:53:36Z</time>
      </trkpt>
      <trkpt lat="43.76891" lon="3.53135">
        <ele>488</ele>
        <time>2016-04-15T08:53:46Z</time>
      </trkpt>
      <trkpt lat="43.76894" lon="3.53132">
        <ele>488</ele>
        <time>2016-04-15T08:53:51Z</time>
      </trkpt>
      <trkpt lat="43.76898" lon="3.53127">
        <ele>487</ele>
        <time>2016-04-15T08:53:57Z</time>
      </trkpt>
      <trkpt lat="43.76902" lon="3.53123">
        <ele>487</ele>
        <time>2016-04-15T08:54:02Z</time>
      </trkpt>
      <trkpt lat="43.76907" lon="3.5312">
        <ele>487</ele>
        <time>2016-04-15T08:54:07Z</time>
      </trkpt>
      <trkpt lat="43.76912" lon="3.53116">
        <ele>487</ele>
        <time>2016-04-15T08:54:13Z</time>
      </trkpt>
      <trkpt lat="43.76916" lon="3.53116">
        <ele>488</ele>
        <time>2016-04-15T08:54:18Z</time>
      </trkpt>
      <trkpt lat="43.76922" lon="3.53118">
        <ele>488</ele>
        <time>2016-04-15T08:54:24Z</time>
      </trkpt>
      <trkpt lat="43.76926" lon="3.5312">
        <ele>489</ele>
        <time>2016-04-15T08:54:29Z</time>
      </trkpt>
      <trkpt lat="43.76931" lon="3.53116">
        <ele>490</ele>
        <time>2016-04-15T08:54:35Z</time>
      </trkpt>
      <trkpt lat="43.76933" lon="3.53118">
        <ele>490</ele>
        <time>2016-04-15T08:54:51Z</time>
      </trkpt>
      <trkpt lat="43.76938" lon="3.53116">
        <ele>490</ele>
        <time>2016-04-15T08:54:59Z</time>
      </trkpt>
      <trkpt lat="43.76942" lon="3.53114">
        <ele>490</ele>
        <time>2016-04-15T08:55:05Z</time>
      </trkpt>
      <trkpt lat="43.76952" lon="3.53112">
        <ele>489</ele>
        <time>2016-04-15T08:55:16Z</time>
      </trkpt>
      <trkpt lat="43.76956" lon="3.53109">
        <ele>489</ele>
        <time>2016-04-15T08:55:22Z</time>
      </trkpt>
      <trkpt lat="43.76958" lon="3.53103">
        <ele>490</ele>
        <time>2016-04-15T08:55:29Z</time>
      </trkpt>
      <trkpt lat="43.76958" lon="3.53096">
        <ele>490</ele>
        <time>2016-04-15T08:55:35Z</time>
      </trkpt>
      <trkpt lat="43.7696" lon="3.5309">
        <ele>490</ele>
        <time>2016-04-15T08:55:42Z</time>
      </trkpt>
      <trkpt lat="43.7697" lon="3.53068">
        <ele>495</ele>
        <time>2016-04-15T08:56:10Z</time>
      </trkpt>
      <trkpt lat="43.76972" lon="3.53066">
        <ele>495</ele>
        <time>2016-04-15T08:56:16Z</time>
      </trkpt>
      <trkpt lat="43.76975" lon="3.53072">
        <ele>495</ele>
        <time>2016-04-15T08:56:24Z</time>
      </trkpt>
      <trkpt lat="43.76993" lon="3.53085">
        <ele>489</ele>
        <time>2016-04-15T08:56:45Z</time>
      </trkpt>
      <trkpt lat="43.76998" lon="3.53087">
        <ele>490</ele>
        <time>2016-04-15T08:56:50Z</time>
      </trkpt>
      <trkpt lat="43.77002" lon="3.53091">
        <ele>490</ele>
        <time>2016-04-15T08:56:56Z</time>
      </trkpt>
      <trkpt lat="43.77025" lon="3.53115">
        <ele>496</ele>
        <time>2016-04-15T08:57:28Z</time>
      </trkpt>
      <trkpt lat="43.77028" lon="3.53121">
        <ele>497</ele>
        <time>2016-04-15T08:57:34Z</time>
      </trkpt>
      <trkpt lat="43.77035" lon="3.53139">
        <ele>492</ele>
        <time>2016-04-15T08:57:47Z</time>
      </trkpt>
      <trkpt lat="43.77037" lon="3.53145">
        <ele>492</ele>
        <time>2016-04-15T08:57:52Z</time>
      </trkpt>
      <trkpt lat="43.77041" lon="3.53149">
        <ele>491</ele>
        <time>2016-04-15T08:57:58Z</time>
      </trkpt>
      <trkpt lat="43.77046" lon="3.53148">
        <ele>491</ele>
        <time>2016-04-15T08:58:04Z</time>
      </trkpt>
      <trkpt lat="43.77071" lon="3.53143">
        <ele>499</ele>
        <time>2016-04-15T08:58:39Z</time>
      </trkpt>
      <trkpt lat="43.77076" lon="3.53143">
        <ele>500</ele>
        <time>2016-04-15T08:58:45Z</time>
      </trkpt>
      <trkpt lat="43.7709" lon="3.53136">
        <ele>502</ele>
        <time>2016-04-15T08:59:01Z</time>
      </trkpt>
      <trkpt lat="43.77095" lon="3.53136">
        <ele>503</ele>
        <time>2016-04-15T08:59:08Z</time>
      </trkpt>
      <trkpt lat="43.771" lon="3.53136">
        <ele>503</ele>
        <time>2016-04-15T08:59:14Z</time>
      </trkpt>
      <trkpt lat="43.77109" lon="3.53141">
        <ele>505</ele>
        <time>2016-04-15T08:59:24Z</time>
      </trkpt>
      <trkpt lat="43.77119" lon="3.53142">
        <ele>504</ele>
        <time>2016-04-15T08:59:34Z</time>
      </trkpt>
      <trkpt lat="43.77123" lon="3.53144">
        <ele>505</ele>
        <time>2016-04-15T08:59:40Z</time>
      </trkpt>
      <trkpt lat="43.77138" lon="3.53145">
        <ele>505</ele>
        <time>2016-04-15T08:59:55Z</time>
      </trkpt>
      <trkpt lat="43.77149" lon="3.5315">
        <ele>507</ele>
        <time>2016-04-15T09:00:15Z</time>
      </trkpt>
      <trkpt lat="43.77161" lon="3.53162">
        <ele>506</ele>
        <time>2016-04-15T09:00:34Z</time>
      </trkpt>
      <trkpt lat="43.77164" lon="3.53168">
        <ele>504</ele>
        <time>2016-04-15T09:00:40Z</time>
      </trkpt>
      <trkpt lat="43.77167" lon="3.53174">
        <ele>504</ele>
        <time>2016-04-15T09:00:47Z</time>
      </trkpt>
      <trkpt lat="43.77172" lon="3.53185">
        <ele>508</ele>
        <time>2016-04-15T09:00:56Z</time>
      </trkpt>
      <trkpt lat="43.77176" lon="3.53188">
        <ele>509</ele>
        <time>2016-04-15T09:01:01Z</time>
      </trkpt>
      <trkpt lat="43.77186" lon="3.53188">
        <ele>509</ele>
        <time>2016-04-15T09:01:12Z</time>
      </trkpt>
      <trkpt lat="43.77196" lon="3.53184">
        <ele>509</ele>
        <time>2016-04-15T09:01:23Z</time>
      </trkpt>
      <trkpt lat="43.77201" lon="3.53182">
        <ele>509</ele>
        <time>2016-04-15T09:01:29Z</time>
      </trkpt>
      <trkpt lat="43.77205" lon="3.53184">
        <ele>510</ele>
        <time>2016-04-15T09:01:36Z</time>
      </trkpt>
      <trkpt lat="43.7721" lon="3.53191">
        <ele>513</ele>
        <time>2016-04-15T09:02:44Z</time>
      </trkpt>
      <trkpt lat="43.77214" lon="3.53197">
        <ele>513</ele>
        <time>2016-04-15T09:02:57Z</time>
      </trkpt>
      <trkpt lat="43.77217" lon="3.53201">
        <ele>514</ele>
        <time>2016-04-15T09:03:02Z</time>
      </trkpt>
      <trkpt lat="43.7722" lon="3.53207">
        <ele>514</ele>
        <time>2016-04-15T09:03:07Z</time>
      </trkpt>
      <trkpt lat="43.77224" lon="3.5321">
        <ele>513</ele>
        <time>2016-04-15T09:03:11Z</time>
      </trkpt>
      <trkpt lat="43.77231" lon="3.53221">
        <ele>513</ele>
        <time>2016-04-15T09:03:25Z</time>
      </trkpt>
      <trkpt lat="43.77234" lon="3.53226">
        <ele>512</ele>
        <time>2016-04-15T09:03:29Z</time>
      </trkpt>
      <trkpt lat="43.77239" lon="3.53237">
        <ele>512</ele>
        <time>2016-04-15T09:03:41Z</time>
      </trkpt>
      <trkpt lat="43.77242" lon="3.53243">
        <ele>513</ele>
        <time>2016-04-15T09:03:48Z</time>
      </trkpt>
      <trkpt lat="43.77245" lon="3.53247">
        <ele>514</ele>
        <time>2016-04-15T09:03:54Z</time>
      </trkpt>
      <trkpt lat="43.77249" lon="3.53253">
        <ele>513</ele>
        <time>2016-04-15T09:03:59Z</time>
      </trkpt>
      <trkpt lat="43.77251" lon="3.53259">
        <ele>513</ele>
        <time>2016-04-15T09:04:05Z</time>
      </trkpt>
      <trkpt lat="43.77251" lon="3.53263">
        <ele>516</ele>
        <time>2016-04-15T09:04:12Z</time>
      </trkpt>
      <trkpt lat="43.77253" lon="3.53278">
        <ele>517</ele>
        <time>2016-04-15T09:04:25Z</time>
      </trkpt>
      <trkpt lat="43.77253" lon="3.53286">
        <ele>517</ele>
        <time>2016-04-15T09:04:29Z</time>
      </trkpt>
      <trkpt lat="43.77252" lon="3.5332">
        <ele>520</ele>
        <time>2016-04-15T09:04:49Z</time>
      </trkpt>
      <trkpt lat="43.77254" lon="3.53326">
        <ele>520</ele>
        <time>2016-04-15T09:04:53Z</time>
      </trkpt>
      <trkpt lat="43.77257" lon="3.53331">
        <ele>520</ele>
        <time>2016-04-15T09:04:57Z</time>
      </trkpt>
      <trkpt lat="43.77261" lon="3.53335">
        <ele>520</ele>
        <time>2016-04-15T09:05:01Z</time>
      </trkpt>
      <trkpt lat="43.77264" lon="3.53341">
        <ele>520</ele>
        <time>2016-04-15T09:05:07Z</time>
      </trkpt>
      <trkpt lat="43.77265" lon="3.53348">
        <ele>521</ele>
        <time>2016-04-15T09:05:41Z</time>
      </trkpt>
      <trkpt lat="43.77286" lon="3.53388">
        <ele>517</ele>
        <time>2016-04-15T09:06:15Z</time>
      </trkpt>
      <trkpt lat="43.77291" lon="3.53392">
        <ele>517</ele>
        <time>2016-04-15T09:06:20Z</time>
      </trkpt>
      <trkpt lat="43.77293" lon="3.53398">
        <ele>517</ele>
        <time>2016-04-15T09:06:24Z</time>
      </trkpt>
      <trkpt lat="43.77298" lon="3.53411">
        <ele>517</ele>
        <time>2016-04-15T09:06:34Z</time>
      </trkpt>
      <trkpt lat="43.77302" lon="3.53423">
        <ele>519</ele>
        <time>2016-04-15T09:06:43Z</time>
      </trkpt>
      <trkpt lat="43.77309" lon="3.53434">
        <ele>518</ele>
        <time>2016-04-15T09:06:51Z</time>
      </trkpt>
      <trkpt lat="43.77321" lon="3.53455">
        <ele>512</ele>
        <time>2016-04-15T09:07:06Z</time>
      </trkpt>
      <trkpt lat="43.77328" lon="3.53465">
        <ele>512</ele>
        <time>2016-04-15T09:07:14Z</time>
      </trkpt>
      <trkpt lat="43.77331" lon="3.53471">
        <ele>513</ele>
        <time>2016-04-15T09:07:19Z</time>
      </trkpt>
      <trkpt lat="43.77333" lon="3.53472">
        <ele>514</ele>
        <time>2016-04-15T09:07:58Z</time>
      </trkpt>
      <trkpt lat="43.77336" lon="3.53478">
        <ele>514</ele>
        <time>2016-04-15T09:08:04Z</time>
      </trkpt>
      <trkpt lat="43.77345" lon="3.53489">
        <ele>517</ele>
        <time>2016-04-15T09:08:20Z</time>
      </trkpt>
      <trkpt lat="43.77348" lon="3.53488">
        <ele>517</ele>
        <time>2016-04-15T09:09:16Z</time>
      </trkpt>
      <trkpt lat="43.77353" lon="3.5349">
        <ele>516</ele>
        <time>2016-04-15T09:09:40Z</time>
      </trkpt>
      <trkpt lat="43.77356" lon="3.53492">
        <ele>511</ele>
        <time>2016-04-15T09:11:12Z</time>
      </trkpt>
      <trkpt lat="43.77356" lon="3.53496">
        <ele>508</ele>
        <time>2016-04-15T09:12:16Z</time>
      </trkpt>
      <trkpt lat="43.77359" lon="3.53494">
        <ele>508</ele>
        <time>2016-04-15T09:12:55Z</time>
      </trkpt>
      <trkpt lat="43.77357" lon="3.53495">
        <ele>510</ele>
        <time>2016-04-15T09:13:37Z</time>
      </trkpt>
      <trkpt lat="43.77358" lon="3.53492">
        <ele>507</ele>
        <time>2016-04-15T09:20:18Z</time>
      </trkpt>
      <trkpt lat="43.77362" lon="3.53495">
        <ele>507</ele>
        <time>2016-04-15T09:20:26Z</time>
      </trkpt>
      <trkpt lat="43.77368" lon="3.535">
        <ele>507</ele>
        <time>2016-04-15T09:20:38Z</time>
      </trkpt>
      <trkpt lat="43.77379" lon="3.53518">
        <ele>504</ele>
        <time>2016-04-15T09:20:51Z</time>
      </trkpt>
      <trkpt lat="43.77383" lon="3.53522">
        <ele>504</ele>
        <time>2016-04-15T09:20:54Z</time>
      </trkpt>
      <trkpt lat="43.77388" lon="3.53526">
        <ele>505</ele>
        <time>2016-04-15T09:20:58Z</time>
      </trkpt>
      <trkpt lat="43.77392" lon="3.53531">
        <ele>505</ele>
        <time>2016-04-15T09:21:02Z</time>
      </trkpt>
      <trkpt lat="43.77402" lon="3.53537">
        <ele>506</ele>
        <time>2016-04-15T09:21:11Z</time>
      </trkpt>
      <trkpt lat="43.77412" lon="3.53536">
        <ele>506</ele>
        <time>2016-04-15T09:21:22Z</time>
      </trkpt>
      <trkpt lat="43.77417" lon="3.53534">
        <ele>506</ele>
        <time>2016-04-15T09:21:27Z</time>
      </trkpt>
      <trkpt lat="43.77421" lon="3.53536">
        <ele>506</ele>
        <time>2016-04-15T09:21:31Z</time>
      </trkpt>
      <trkpt lat="43.77426" lon="3.53538">
        <ele>506</ele>
        <time>2016-04-15T09:21:36Z</time>
      </trkpt>
      <trkpt lat="43.77451" lon="3.53542">
        <ele>512</ele>
        <time>2016-04-15T09:22:07Z</time>
      </trkpt>
      <trkpt lat="43.7746" lon="3.53543">
        <ele>515</ele>
        <time>2016-04-15T09:22:20Z</time>
      </trkpt>
      <trkpt lat="43.77474" lon="3.53546">
        <ele>511</ele>
        <time>2016-04-15T09:22:38Z</time>
      </trkpt>
      <trkpt lat="43.77483" lon="3.53554">
        <ele>513</ele>
        <time>2016-04-15T09:22:49Z</time>
      </trkpt>
      <trkpt lat="43.77488" lon="3.53555">
        <ele>513</ele>
        <time>2016-04-15T09:22:56Z</time>
      </trkpt>
      <trkpt lat="43.77492" lon="3.53552">
        <ele>514</ele>
        <time>2016-04-15T09:23:01Z</time>
      </trkpt>
      <trkpt lat="43.77502" lon="3.53554">
        <ele>520</ele>
        <time>2016-04-15T09:23:14Z</time>
      </trkpt>
      <trkpt lat="43.77506" lon="3.53557">
        <ele>519</ele>
        <time>2016-04-15T09:23:21Z</time>
      </trkpt>
      <trkpt lat="43.77518" lon="3.53568">
        <ele>515</ele>
        <time>2016-04-15T09:23:35Z</time>
      </trkpt>
      <trkpt lat="43.77523" lon="3.53571">
        <ele>515</ele>
        <time>2016-04-15T09:23:39Z</time>
      </trkpt>
      <trkpt lat="43.77548" lon="3.53603">
        <ele>526</ele>
        <time>2016-04-15T09:24:11Z</time>
      </trkpt>
      <trkpt lat="43.77552" lon="3.53607">
        <ele>526</ele>
        <time>2016-04-15T09:24:15Z</time>
      </trkpt>
      <trkpt lat="43.77556" lon="3.53612">
        <ele>524</ele>
        <time>2016-04-15T09:24:19Z</time>
      </trkpt>
      <trkpt lat="43.7756" lon="3.53615">
        <ele>524</ele>
        <time>2016-04-15T09:24:24Z</time>
      </trkpt>
      <trkpt lat="43.77564" lon="3.53621">
        <ele>524</ele>
        <time>2016-04-15T09:24:29Z</time>
      </trkpt>
      <trkpt lat="43.77572" lon="3.53644">
        <ele>521</ele>
        <time>2016-04-15T09:24:45Z</time>
      </trkpt>
      <trkpt lat="43.77575" lon="3.53649">
        <ele>521</ele>
        <time>2016-04-15T09:24:51Z</time>
      </trkpt>
      <trkpt lat="43.7758" lon="3.53651">
        <ele>521</ele>
        <time>2016-04-15T09:24:59Z</time>
      </trkpt>
      <trkpt lat="43.77598" lon="3.53665">
        <ele>525</ele>
        <time>2016-04-15T09:25:17Z</time>
      </trkpt>
      <trkpt lat="43.77601" lon="3.5367">
        <ele>525</ele>
        <time>2016-04-15T09:25:20Z</time>
      </trkpt>
      <trkpt lat="43.77605" lon="3.53674">
        <ele>524</ele>
        <time>2016-04-15T09:25:24Z</time>
      </trkpt>
      <trkpt lat="43.7761" lon="3.53675">
        <ele>524</ele>
        <time>2016-04-15T09:25:29Z</time>
      </trkpt>
      <trkpt lat="43.77614" lon="3.53678">
        <ele>523</ele>
        <time>2016-04-15T09:25:34Z</time>
      </trkpt>
      <trkpt lat="43.77617" lon="3.53683">
        <ele>524</ele>
        <time>2016-04-15T09:25:39Z</time>
      </trkpt>
      <trkpt lat="43.7763" lon="3.53695">
        <ele>528</ele>
        <time>2016-04-15T09:25:53Z</time>
      </trkpt>
      <trkpt lat="43.77634" lon="3.537">
        <ele>528</ele>
        <time>2016-04-15T09:25:59Z</time>
      </trkpt>
      <trkpt lat="43.77635" lon="3.53706">
        <ele>527</ele>
        <time>2016-04-15T09:26:04Z</time>
      </trkpt>
      <trkpt lat="43.77639" lon="3.5371">
        <ele>525</ele>
        <time>2016-04-15T09:26:10Z</time>
      </trkpt>
      <trkpt lat="43.77646" lon="3.53719">
        <ele>524</ele>
        <time>2016-04-15T09:26:25Z</time>
      </trkpt>
      <trkpt lat="43.7765" lon="3.53722">
        <ele>524</ele>
        <time>2016-04-15T09:26:30Z</time>
      </trkpt>
      <trkpt lat="43.77669" lon="3.53744">
        <ele>529</ele>
        <time>2016-04-15T09:26:55Z</time>
      </trkpt>
      <trkpt lat="43.77668" lon="3.53751">
        <ele>530</ele>
        <time>2016-04-15T09:27:05Z</time>
      </trkpt>
      <trkpt lat="43.77671" lon="3.53756">
        <ele>530</ele>
        <time>2016-04-15T09:27:12Z</time>
      </trkpt>
      <trkpt lat="43.77674" lon="3.53761">
        <ele>529</ele>
        <time>2016-04-15T09:27:20Z</time>
      </trkpt>
      <trkpt lat="43.77677" lon="3.53766">
        <ele>529</ele>
        <time>2016-04-15T09:27:26Z</time>
      </trkpt>
      <trkpt lat="43.77681" lon="3.53767">
        <ele>529</ele>
        <time>2016-04-15T09:27:40Z</time>
      </trkpt>
      <trkpt lat="43.77685" lon="3.53767">
        <ele>529</ele>
        <time>2016-04-15T09:27:46Z</time>
      </trkpt>
      <trkpt lat="43.777" lon="3.53768">
        <ele>533</ele>
        <time>2016-04-15T09:28:08Z</time>
      </trkpt>
      <trkpt lat="43.77709" lon="3.53771">
        <ele>531</ele>
        <time>2016-04-15T09:28:22Z</time>
      </trkpt>
      <trkpt lat="43.77714" lon="3.53771">
        <ele>531</ele>
        <time>2016-04-15T09:28:27Z</time>
      </trkpt>
      <trkpt lat="43.77719" lon="3.53773">
        <ele>531</ele>
        <time>2016-04-15T09:28:33Z</time>
      </trkpt>
      <trkpt lat="43.77724" lon="3.53774">
        <ele>530</ele>
        <time>2016-04-15T09:28:39Z</time>
      </trkpt>
      <trkpt lat="43.77729" lon="3.53772">
        <ele>530</ele>
        <time>2016-04-15T09:28:47Z</time>
      </trkpt>
      <trkpt lat="43.77733" lon="3.53772">
        <ele>533</ele>
        <time>2016-04-15T09:28:56Z</time>
      </trkpt>
      <trkpt lat="43.77747" lon="3.53761">
        <ele>545</ele>
        <time>2016-04-15T09:29:26Z</time>
      </trkpt>
      <trkpt lat="43.7775" lon="3.53765">
        <ele>545</ele>
        <time>2016-04-15T09:29:33Z</time>
      </trkpt>
      <trkpt lat="43.77753" lon="3.53771">
        <ele>545</ele>
        <time>2016-04-15T09:29:39Z</time>
      </trkpt>
      <trkpt lat="43.77762" lon="3.53773">
        <ele>546</ele>
        <time>2016-04-15T09:29:57Z</time>
      </trkpt>
      <trkpt lat="43.77771" lon="3.53781">
        <ele>550</ele>
        <time>2016-04-15T09:30:22Z</time>
      </trkpt>
      <trkpt lat="43.77776" lon="3.5378">
        <ele>551</ele>
        <time>2016-04-15T09:30:32Z</time>
      </trkpt>
      <trkpt lat="43.7778" lon="3.53778">
        <ele>551</ele>
        <time>2016-04-15T09:30:41Z</time>
      </trkpt>
      <trkpt lat="43.77785" lon="3.53777">
        <ele>551</ele>
        <time>2016-04-15T09:30:49Z</time>
      </trkpt>
      <trkpt lat="43.7779" lon="3.5378">
        <ele>551</ele>
        <time>2016-04-15T09:30:57Z</time>
      </trkpt>
      <trkpt lat="43.77794" lon="3.53784">
        <ele>551</ele>
        <time>2016-04-15T09:31:03Z</time>
      </trkpt>
      <trkpt lat="43.77802" lon="3.5379">
        <ele>552</ele>
        <time>2016-04-15T09:31:15Z</time>
      </trkpt>
      <trkpt lat="43.77812" lon="3.53804">
        <ele>555</ele>
        <time>2016-04-15T09:31:35Z</time>
      </trkpt>
      <trkpt lat="43.77816" lon="3.53807">
        <ele>555</ele>
        <time>2016-04-15T09:31:42Z</time>
      </trkpt>
      <trkpt lat="43.77825" lon="3.53813">
        <ele>557</ele>
        <time>2016-04-15T09:31:53Z</time>
      </trkpt>
      <trkpt lat="43.77829" lon="3.53815">
        <ele>557</ele>
        <time>2016-04-15T09:32:00Z</time>
      </trkpt>
      <trkpt lat="43.77838" lon="3.5382">
        <ele>558</ele>
        <time>2016-04-15T09:32:15Z</time>
      </trkpt>
      <trkpt lat="43.77842" lon="3.5382">
        <ele>558</ele>
        <time>2016-04-15T09:32:24Z</time>
      </trkpt>
      <trkpt lat="43.77846" lon="3.53825">
        <ele>559</ele>
        <time>2016-04-15T09:32:37Z</time>
      </trkpt>
      <trkpt lat="43.77851" lon="3.53826">
        <ele>559</ele>
        <time>2016-04-15T09:32:43Z</time>
      </trkpt>
      <trkpt lat="43.77855" lon="3.53828">
        <ele>561</ele>
        <time>2016-04-15T09:32:50Z</time>
      </trkpt>
      <trkpt lat="43.77864" lon="3.53835">
        <ele>563</ele>
        <time>2016-04-15T09:33:07Z</time>
      </trkpt>
      <trkpt lat="43.77867" lon="3.53831">
        <ele>564</ele>
        <time>2016-04-15T09:33:18Z</time>
      </trkpt>
      <trkpt lat="43.77872" lon="3.53825">
        <ele>563</ele>
        <time>2016-04-15T09:33:34Z</time>
      </trkpt>
      <trkpt lat="43.77873" lon="3.53819">
        <ele>563</ele>
        <time>2016-04-15T09:33:42Z</time>
      </trkpt>
      <trkpt lat="43.77877" lon="3.53815">
        <ele>563</ele>
        <time>2016-04-15T09:33:51Z</time>
      </trkpt>
      <trkpt lat="43.77879" lon="3.53812">
        <ele>564</ele>
        <time>2016-04-15T09:34:02Z</time>
      </trkpt>
      <trkpt lat="43.77884" lon="3.53811">
        <ele>565</ele>
        <time>2016-04-15T09:34:11Z</time>
      </trkpt>
      <trkpt lat="43.77888" lon="3.53809">
        <ele>565</ele>
        <time>2016-04-15T09:34:19Z</time>
      </trkpt>
      <trkpt lat="43.77892" lon="3.53809">
        <ele>566</ele>
        <time>2016-04-15T09:34:31Z</time>
      </trkpt>
      <trkpt lat="43.77895" lon="3.53809">
        <ele>565</ele>
        <time>2016-04-15T09:34:47Z</time>
      </trkpt>
      <trkpt lat="43.77899" lon="3.53807">
        <ele>565</ele>
        <time>2016-04-15T09:34:57Z</time>
      </trkpt>
      <trkpt lat="43.77906" lon="3.538">
        <ele>569</ele>
        <time>2016-04-15T09:35:18Z</time>
      </trkpt>
      <trkpt lat="43.7791" lon="3.53799">
        <ele>575</ele>
        <time>2016-04-15T09:35:48Z</time>
      </trkpt>
      <trkpt lat="43.77914" lon="3.53798">
        <ele>575</ele>
        <time>2016-04-15T09:36:00Z</time>
      </trkpt>
      <trkpt lat="43.77918" lon="3.538">
        <ele>573</ele>
        <time>2016-04-15T09:36:09Z</time>
      </trkpt>
      <trkpt lat="43.77923" lon="3.53803">
        <ele>574</ele>
        <time>2016-04-15T09:36:18Z</time>
      </trkpt>
      <trkpt lat="43.77928" lon="3.53805">
        <ele>576</ele>
        <time>2016-04-15T09:36:30Z</time>
      </trkpt>
      <trkpt lat="43.77933" lon="3.53804">
        <ele>578</ele>
        <time>2016-04-15T09:36:39Z</time>
      </trkpt>
      <trkpt lat="43.77942" lon="3.53814">
        <ele>581</ele>
        <time>2016-04-15T09:36:55Z</time>
      </trkpt>
      <trkpt lat="43.77945" lon="3.53819">
        <ele>581</ele>
        <time>2016-04-15T09:37:01Z</time>
      </trkpt>
      <trkpt lat="43.77949" lon="3.53822">
        <ele>579</ele>
        <time>2016-04-15T09:37:07Z</time>
      </trkpt>
      <trkpt lat="43.77959" lon="3.53837">
        <ele>582</ele>
        <time>2016-04-15T09:37:21Z</time>
      </trkpt>
      <trkpt lat="43.77961" lon="3.53844">
        <ele>583</ele>
        <time>2016-04-15T09:37:29Z</time>
      </trkpt>
      <trkpt lat="43.77963" lon="3.53849">
        <ele>584</ele>
        <time>2016-04-15T09:37:35Z</time>
      </trkpt>
      <trkpt lat="43.77986" lon="3.53862">
        <ele>590</ele>
        <time>2016-04-15T09:38:05Z</time>
      </trkpt>
      <trkpt lat="43.7799" lon="3.5386">
        <ele>589</ele>
        <time>2016-04-15T09:38:14Z</time>
      </trkpt>
      <trkpt lat="43.77995" lon="3.53862">
        <ele>587</ele>
        <time>2016-04-15T09:38:20Z</time>
      </trkpt>
      <trkpt lat="43.78" lon="3.53861">
        <ele>587</ele>
        <time>2016-04-15T09:38:27Z</time>
      </trkpt>
      <trkpt lat="43.78004" lon="3.53863">
        <ele>587</ele>
        <time>2016-04-15T09:38:33Z</time>
      </trkpt>
      <trkpt lat="43.78015" lon="3.53865">
        <ele>587</ele>
        <time>2016-04-15T09:38:43Z</time>
      </trkpt>
      <trkpt lat="43.78024" lon="3.53869">
        <ele>588</ele>
        <time>2016-04-15T09:38:54Z</time>
      </trkpt>
      <trkpt lat="43.7804" lon="3.53865">
        <ele>591</ele>
        <time>2016-04-15T09:39:13Z</time>
      </trkpt>
      <trkpt lat="43.78044" lon="3.53866">
        <ele>590</ele>
        <time>2016-04-15T09:39:22Z</time>
      </trkpt>
      <trkpt lat="43.78054" lon="3.53867">
        <ele>591</ele>
        <time>2016-04-15T09:39:35Z</time>
      </trkpt>
      <trkpt lat="43.78059" lon="3.53868">
        <ele>590</ele>
        <time>2016-04-15T09:39:44Z</time>
      </trkpt>
      <trkpt lat="43.78064" lon="3.53866">
        <ele>590</ele>
        <time>2016-04-15T09:39:52Z</time>
      </trkpt>
      <trkpt lat="43.78069" lon="3.53867">
        <ele>591</ele>
        <time>2016-04-15T09:40:02Z</time>
      </trkpt>
      <trkpt lat="43.78071" lon="3.5387">
        <ele>592</ele>
        <time>2016-04-15T09:40:10Z</time>
      </trkpt>
      <trkpt lat="43.78074" lon="3.53869">
        <ele>592</ele>
        <time>2016-04-15T09:40:16Z</time>
      </trkpt>
      <trkpt lat="43.78078" lon="3.53865">
        <ele>591</ele>
        <time>2016-04-15T09:40:26Z</time>
      </trkpt>
      <trkpt lat="43.78082" lon="3.53863">
        <ele>591</ele>
        <time>2016-04-15T09:40:35Z</time>
      </trkpt>
      <trkpt lat="43.78087" lon="3.53866">
        <ele>592</ele>
        <time>2016-04-15T09:40:43Z</time>
      </trkpt>
      <trkpt lat="43.7809" lon="3.53871">
        <ele>592</ele>
        <time>2016-04-15T09:40:49Z</time>
      </trkpt>
      <trkpt lat="43.78092" lon="3.53876">
        <ele>593</ele>
        <time>2016-04-15T09:40:59Z</time>
      </trkpt>
      <trkpt lat="43.78097" lon="3.53875">
        <ele>592</ele>
        <time>2016-04-15T09:41:06Z</time>
      </trkpt>
      <trkpt lat="43.78115" lon="3.53885">
        <ele>597</ele>
        <time>2016-04-15T09:41:30Z</time>
      </trkpt>
      <trkpt lat="43.78118" lon="3.53888">
        <ele>600</ele>
        <time>2016-04-15T09:41:38Z</time>
      </trkpt>
      <trkpt lat="43.78123" lon="3.5389">
        <ele>600</ele>
        <time>2016-04-15T09:41:47Z</time>
      </trkpt>
      <trkpt lat="43.78128" lon="3.53891">
        <ele>603</ele>
        <time>2016-04-15T09:41:56Z</time>
      </trkpt>
      <trkpt lat="43.78138" lon="3.53887">
        <ele>606</ele>
        <time>2016-04-15T09:42:31Z</time>
      </trkpt>
      <trkpt lat="43.78151" lon="3.53883">
        <ele>611</ele>
        <time>2016-04-15T09:42:57Z</time>
      </trkpt>
      <trkpt lat="43.78154" lon="3.53883">
        <ele>617</ele>
        <time>2016-04-15T09:44:56Z</time>
      </trkpt>
      <trkpt lat="43.78156" lon="3.53885">
        <ele>617</ele>
        <time>2016-04-15T09:45:03Z</time>
      </trkpt>
      <trkpt lat="43.78161" lon="3.53883">
        <ele>617</ele>
        <time>2016-04-15T09:45:10Z</time>
      </trkpt>
      <trkpt lat="43.78175" lon="3.53886">
        <ele>613</ele>
        <time>2016-04-15T09:45:26Z</time>
      </trkpt>
      <trkpt lat="43.7818" lon="3.53884">
        <ele>613</ele>
        <time>2016-04-15T09:45:30Z</time>
      </trkpt>
      <trkpt lat="43.78189" lon="3.53884">
        <ele>614</ele>
        <time>2016-04-15T09:45:40Z</time>
      </trkpt>
      <trkpt lat="43.78197" lon="3.53878">
        <ele>616</ele>
        <time>2016-04-15T09:45:51Z</time>
      </trkpt>
      <trkpt lat="43.78205" lon="3.53878">
        <ele>614</ele>
        <time>2016-04-15T09:46:05Z</time>
      </trkpt>
      <trkpt lat="43.78209" lon="3.53881">
        <ele>614</ele>
        <time>2016-04-15T09:46:10Z</time>
      </trkpt>
      <trkpt lat="43.78214" lon="3.53879">
        <ele>615</ele>
        <time>2016-04-15T09:46:19Z</time>
      </trkpt>
      <trkpt lat="43.7822" lon="3.53878">
        <ele>615</ele>
        <time>2016-04-15T09:46:27Z</time>
      </trkpt>
      <trkpt lat="43.78223" lon="3.53882">
        <ele>616</ele>
        <time>2016-04-15T09:46:32Z</time>
      </trkpt>
      <trkpt lat="43.78226" lon="3.53881">
        <ele>622</ele>
        <time>2016-04-15T09:47:04Z</time>
      </trkpt>
      <trkpt lat="43.78231" lon="3.53882">
        <ele>623</ele>
        <time>2016-04-15T09:47:13Z</time>
      </trkpt>
      <trkpt lat="43.78235" lon="3.53878">
        <ele>623</ele>
        <time>2016-04-15T09:47:19Z</time>
      </trkpt>
      <trkpt lat="43.7824" lon="3.53875">
        <ele>623</ele>
        <time>2016-04-15T09:47:26Z</time>
      </trkpt>
      <trkpt lat="43.78243" lon="3.53875">
        <ele>624</ele>
        <time>2016-04-15T09:47:33Z</time>
      </trkpt>
      <trkpt lat="43.78248" lon="3.53879">
        <ele>625</ele>
        <time>2016-04-15T09:47:46Z</time>
      </trkpt>
      <trkpt lat="43.78252" lon="3.53883">
        <ele>623</ele>
        <time>2016-04-15T09:47:54Z</time>
      </trkpt>
      <trkpt lat="43.78255" lon="3.53885">
        <ele>621</ele>
        <time>2016-04-15T09:48:32Z</time>
      </trkpt>
      <trkpt lat="43.78258" lon="3.53883">
        <ele>621</ele>
        <time>2016-04-15T09:48:39Z</time>
      </trkpt>
      <trkpt lat="43.7826" lon="3.53878">
        <ele>621</ele>
        <time>2016-04-15T09:48:55Z</time>
      </trkpt>
      <trkpt lat="43.78261" lon="3.53864">
        <ele>625</ele>
        <time>2016-04-15T09:49:14Z</time>
      </trkpt>
      <trkpt lat="43.78265" lon="3.53865">
        <ele>627</ele>
        <time>2016-04-15T09:49:25Z</time>
      </trkpt>
      <trkpt lat="43.78267" lon="3.53873">
        <ele>629</ele>
        <time>2016-04-15T09:49:56Z</time>
      </trkpt>
      <trkpt lat="43.78271" lon="3.53873">
        <ele>633</ele>
        <time>2016-04-15T09:50:14Z</time>
      </trkpt>
      <trkpt lat="43.78273" lon="3.53867">
        <ele>639</ele>
        <time>2016-04-15T09:50:37Z</time>
      </trkpt>
      <trkpt lat="43.78273" lon="3.53861">
        <ele>645</ele>
        <time>2016-04-15T09:50:48Z</time>
      </trkpt>
      <trkpt lat="43.78275" lon="3.53861">
        <ele>646</ele>
        <time>2016-04-15T09:50:54Z</time>
      </trkpt>
      <trkpt lat="43.78279" lon="3.53856">
        <ele>647</ele>
        <time>2016-04-15T09:51:00Z</time>
      </trkpt>
      <trkpt lat="43.78283" lon="3.53859">
        <ele>648</ele>
        <time>2016-04-15T09:51:09Z</time>
      </trkpt>
      <trkpt lat="43.78282" lon="3.53864">
        <ele>648</ele>
        <time>2016-04-15T09:51:19Z</time>
      </trkpt>
      <trkpt lat="43.78286" lon="3.53868">
        <ele>649</ele>
        <time>2016-04-15T09:51:28Z</time>
      </trkpt>
      <trkpt lat="43.78286" lon="3.53865">
        <ele>650</ele>
        <time>2016-04-15T09:51:42Z</time>
      </trkpt>
      <trkpt lat="43.78287" lon="3.53859">
        <ele>651</ele>
        <time>2016-04-15T09:51:51Z</time>
      </trkpt>
      <trkpt lat="43.78287" lon="3.53853">
        <ele>651</ele>
        <time>2016-04-15T09:52:00Z</time>
      </trkpt>
      <trkpt lat="43.78286" lon="3.53849">
        <ele>652</ele>
        <time>2016-04-15T09:52:18Z</time>
      </trkpt>
      <trkpt lat="43.78288" lon="3.53846">
        <ele>652</ele>
        <time>2016-04-15T09:52:29Z</time>
      </trkpt>
      <trkpt lat="43.7829" lon="3.53848">
        <ele>652</ele>
        <time>2016-04-15T09:52:35Z</time>
      </trkpt>
      <trkpt lat="43.78303" lon="3.53859">
        <ele>656</ele>
        <time>2016-04-15T09:53:05Z</time>
      </trkpt>
      <trkpt lat="43.78304" lon="3.53865">
        <ele>658</ele>
        <time>2016-04-15T09:53:12Z</time>
      </trkpt>
      <trkpt lat="43.78302" lon="3.53872">
        <ele>659</ele>
        <time>2016-04-15T09:53:19Z</time>
      </trkpt>
      <trkpt lat="43.78304" lon="3.53874">
        <ele>659</ele>
        <time>2016-04-15T09:53:25Z</time>
      </trkpt>
      <trkpt lat="43.78305" lon="3.53879">
        <ele>657</ele>
        <time>2016-04-15T09:53:42Z</time>
      </trkpt>
      <trkpt lat="43.78306" lon="3.53885">
        <ele>659</ele>
        <time>2016-04-15T09:53:50Z</time>
      </trkpt>
      <trkpt lat="43.78314" lon="3.53897">
        <ele>668</ele>
        <time>2016-04-15T09:54:23Z</time>
      </trkpt>
      <trkpt lat="43.78327" lon="3.53913">
        <ele>676</ele>
        <time>2016-04-15T09:55:08Z</time>
      </trkpt>
      <trkpt lat="43.78337" lon="3.53921">
        <ele>679</ele>
        <time>2016-04-15T09:55:34Z</time>
      </trkpt>
      <trkpt lat="43.78336" lon="3.53925">
        <ele>679</ele>
        <time>2016-04-15T09:55:40Z</time>
      </trkpt>
      <trkpt lat="43.78339" lon="3.53929">
        <ele>679</ele>
        <time>2016-04-15T09:56:08Z</time>
      </trkpt>
      <trkpt lat="43.78347" lon="3.53932">
        <ele>677</ele>
        <time>2016-04-15T09:56:31Z</time>
      </trkpt>
      <trkpt lat="43.78351" lon="3.53935">
        <ele>679</ele>
        <time>2016-04-15T09:56:41Z</time>
      </trkpt>
      <trkpt lat="43.78356" lon="3.53935">
        <ele>680</ele>
        <time>2016-04-15T09:56:56Z</time>
      </trkpt>
      <trkpt lat="43.7836" lon="3.53933">
        <ele>681</ele>
        <time>2016-04-15T09:57:01Z</time>
      </trkpt>
      <trkpt lat="43.78362" lon="3.53939">
        <ele>682</ele>
        <time>2016-04-15T09:57:11Z</time>
      </trkpt>
      <trkpt lat="43.78378" lon="3.53953">
        <ele>688</ele>
        <time>2016-04-15T09:57:44Z</time>
      </trkpt>
      <trkpt lat="43.78382" lon="3.53956">
        <ele>688</ele>
        <time>2016-04-15T09:57:50Z</time>
      </trkpt>
      <trkpt lat="43.78384" lon="3.53963">
        <ele>687</ele>
        <time>2016-04-15T09:57:55Z</time>
      </trkpt>
      <trkpt lat="43.78387" lon="3.53975">
        <ele>685</ele>
        <time>2016-04-15T09:58:06Z</time>
      </trkpt>
      <trkpt lat="43.78397" lon="3.53991">
        <ele>682</ele>
        <time>2016-04-15T09:58:25Z</time>
      </trkpt>
      <trkpt lat="43.78401" lon="3.53989">
        <ele>682</ele>
        <time>2016-04-15T09:58:34Z</time>
      </trkpt>
      <trkpt lat="43.78403" lon="3.53995">
        <ele>683</ele>
        <time>2016-04-15T09:58:41Z</time>
      </trkpt>
      <trkpt lat="43.78402" lon="3.53989">
        <ele>686</ele>
        <time>2016-04-15T09:59:10Z</time>
      </trkpt>
      <trkpt lat="43.78404" lon="3.53985">
        <ele>687</ele>
        <time>2016-04-15T09:59:18Z</time>
      </trkpt>
      <trkpt lat="43.78408" lon="3.53988">
        <ele>688</ele>
        <time>2016-04-15T09:59:26Z</time>
      </trkpt>
      <trkpt lat="43.78425" lon="3.53998">
        <ele>696</ele>
        <time>2016-04-15T09:59:58Z</time>
      </trkpt>
      <trkpt lat="43.78431" lon="3.54005">
        <ele>698</ele>
        <time>2016-04-15T10:00:14Z</time>
      </trkpt>
      <trkpt lat="43.78436" lon="3.54016">
        <ele>697</ele>
        <time>2016-04-15T10:00:25Z</time>
      </trkpt>
      <trkpt lat="43.7844" lon="3.5402">
        <ele>697</ele>
        <time>2016-04-15T10:00:34Z</time>
      </trkpt>
      <trkpt lat="43.78442" lon="3.54026">
        <ele>697</ele>
        <time>2016-04-15T10:00:42Z</time>
      </trkpt>
      <trkpt lat="43.78445" lon="3.54031">
        <ele>697</ele>
        <time>2016-04-15T10:00:49Z</time>
      </trkpt>
      <trkpt lat="43.78451" lon="3.54042">
        <ele>699</ele>
        <time>2016-04-15T10:01:02Z</time>
      </trkpt>
      <trkpt lat="43.78459" lon="3.54051">
        <ele>700</ele>
        <time>2016-04-15T10:01:15Z</time>
      </trkpt>
      <trkpt lat="43.7847" lon="3.54068">
        <ele>694</ele>
        <time>2016-04-15T10:01:42Z</time>
      </trkpt>
      <trkpt lat="43.78476" lon="3.54069">
        <ele>694</ele>
        <time>2016-04-15T10:01:47Z</time>
      </trkpt>
      <trkpt lat="43.78485" lon="3.5407">
        <ele>693</ele>
        <time>2016-04-15T10:01:56Z</time>
      </trkpt>
      <trkpt lat="43.7849" lon="3.54072">
        <ele>693</ele>
        <time>2016-04-15T10:02:01Z</time>
      </trkpt>
      <trkpt lat="43.78511" lon="3.54088">
        <ele>698</ele>
        <time>2016-04-15T10:02:24Z</time>
      </trkpt>
      <trkpt lat="43.78526" lon="3.54093">
        <ele>698</ele>
        <time>2016-04-15T10:02:39Z</time>
      </trkpt>
      <trkpt lat="43.78531" lon="3.54092">
        <ele>698</ele>
        <time>2016-04-15T10:02:44Z</time>
      </trkpt>
      <trkpt lat="43.78535" lon="3.54089">
        <ele>697</ele>
        <time>2016-04-15T10:02:50Z</time>
      </trkpt>
      <trkpt lat="43.78549" lon="3.54092">
        <ele>697</ele>
        <time>2016-04-15T10:03:03Z</time>
      </trkpt>
      <trkpt lat="43.78555" lon="3.54093">
        <ele>697</ele>
        <time>2016-04-15T10:03:08Z</time>
      </trkpt>
      <trkpt lat="43.78564" lon="3.54093">
        <ele>696</ele>
        <time>2016-04-15T10:03:22Z</time>
      </trkpt>
      <trkpt lat="43.78569" lon="3.54093">
        <ele>696</ele>
        <time>2016-04-15T10:03:30Z</time>
      </trkpt>
      <trkpt lat="43.78573" lon="3.54095">
        <ele>697</ele>
        <time>2016-04-15T10:03:40Z</time>
      </trkpt>
      <trkpt lat="43.78572" lon="3.54096">
        <ele>700</ele>
        <time>2016-04-15T10:04:03Z</time>
      </trkpt>
      <trkpt lat="43.78571" lon="3.54092">
        <ele>699</ele>
        <time>2016-04-15T10:04:24Z</time>
      </trkpt>
      <trkpt lat="43.7858" lon="3.54087">
        <ele>697</ele>
        <time>2016-04-15T10:04:42Z</time>
      </trkpt>
      <trkpt lat="43.78585" lon="3.54089">
        <ele>697</ele>
        <time>2016-04-15T10:04:47Z</time>
      </trkpt>
      <trkpt lat="43.7859" lon="3.54092">
        <ele>698</ele>
        <time>2016-04-15T10:04:54Z</time>
      </trkpt>
      <trkpt lat="43.78604" lon="3.54095">
        <ele>695</ele>
        <time>2016-04-15T10:05:16Z</time>
      </trkpt>
      <trkpt lat="43.78608" lon="3.54091">
        <ele>691</ele>
        <time>2016-04-15T10:05:22Z</time>
      </trkpt>
      <trkpt lat="43.7862" lon="3.54092">
        <ele>686</ele>
        <time>2016-04-15T10:05:45Z</time>
      </trkpt>
      <trkpt lat="43.78624" lon="3.54097">
        <ele>686</ele>
        <time>2016-04-15T10:05:59Z</time>
      </trkpt>
      <trkpt lat="43.78626" lon="3.54098">
        <ele>686</ele>
        <time>2016-04-15T10:06:10Z</time>
      </trkpt>
      <trkpt lat="43.78633" lon="3.54101">
        <ele>685</ele>
        <time>2016-04-15T10:06:23Z</time>
      </trkpt>
      <trkpt lat="43.78637" lon="3.54104">
        <ele>683</ele>
        <time>2016-04-15T10:06:31Z</time>
      </trkpt>
      <trkpt lat="43.7864" lon="3.5411">
        <ele>683</ele>
        <time>2016-04-15T10:06:39Z</time>
      </trkpt>
      <trkpt lat="43.78642" lon="3.54117">
        <ele>683</ele>
        <time>2016-04-15T10:06:46Z</time>
      </trkpt>
      <trkpt lat="43.78646" lon="3.5412">
        <ele>683</ele>
        <time>2016-04-15T10:06:51Z</time>
      </trkpt>
      <trkpt lat="43.78651" lon="3.54122">
        <ele>682</ele>
        <time>2016-04-15T10:06:57Z</time>
      </trkpt>
      <trkpt lat="43.78655" lon="3.54124">
        <ele>683</ele>
        <time>2016-04-15T10:07:06Z</time>
      </trkpt>
      <trkpt lat="43.78659" lon="3.54127">
        <ele>683</ele>
        <time>2016-04-15T10:07:12Z</time>
      </trkpt>
      <trkpt lat="43.78663" lon="3.54131">
        <ele>684</ele>
        <time>2016-04-15T10:07:19Z</time>
      </trkpt>
      <trkpt lat="43.78666" lon="3.54137">
        <ele>685</ele>
        <time>2016-04-15T10:07:25Z</time>
      </trkpt>
      <trkpt lat="43.78675" lon="3.54142">
        <ele>684</ele>
        <time>2016-04-15T10:07:37Z</time>
      </trkpt>
      <trkpt lat="43.78678" lon="3.54147">
        <ele>684</ele>
        <time>2016-04-15T10:07:43Z</time>
      </trkpt>
      <trkpt lat="43.78678" lon="3.54154">
        <ele>683</ele>
        <time>2016-04-15T10:07:49Z</time>
      </trkpt>
      <trkpt lat="43.78682" lon="3.54167">
        <ele>684</ele>
        <time>2016-04-15T10:08:00Z</time>
      </trkpt>
      <trkpt lat="43.78687" lon="3.54194">
        <ele>689</ele>
        <time>2016-04-15T10:08:22Z</time>
      </trkpt>
      <trkpt lat="43.78694" lon="3.54213">
        <ele>688</ele>
        <time>2016-04-15T10:08:37Z</time>
      </trkpt>
      <trkpt lat="43.78697" lon="3.54219">
        <ele>688</ele>
        <time>2016-04-15T10:08:42Z</time>
      </trkpt>
      <trkpt lat="43.78697" lon="3.54225">
        <ele>688</ele>
        <time>2016-04-15T10:08:46Z</time>
      </trkpt>
      <trkpt lat="43.78698" lon="3.54232">
        <ele>687</ele>
        <time>2016-04-15T10:08:50Z</time>
      </trkpt>
      <trkpt lat="43.787" lon="3.54238">
        <ele>687</ele>
        <time>2016-04-15T10:08:54Z</time>
      </trkpt>
      <trkpt lat="43.78703" lon="3.54245">
        <ele>688</ele>
        <time>2016-04-15T10:08:59Z</time>
      </trkpt>
      <trkpt lat="43.78711" lon="3.54252">
        <ele>692</ele>
        <time>2016-04-15T10:09:10Z</time>
      </trkpt>
      <trkpt lat="43.78714" lon="3.54258">
        <ele>693</ele>
        <time>2016-04-15T10:09:17Z</time>
      </trkpt>
      <trkpt lat="43.78716" lon="3.54265">
        <ele>691</ele>
        <time>2016-04-15T10:09:22Z</time>
      </trkpt>
      <trkpt lat="43.78718" lon="3.54272">
        <ele>691</ele>
        <time>2016-04-15T10:09:27Z</time>
      </trkpt>
      <trkpt lat="43.78722" lon="3.54276">
        <ele>691</ele>
        <time>2016-04-15T10:09:32Z</time>
      </trkpt>
      <trkpt lat="43.78731" lon="3.54278">
        <ele>688</ele>
        <time>2016-04-15T10:09:42Z</time>
      </trkpt>
      <trkpt lat="43.78736" lon="3.54277">
        <ele>688</ele>
        <time>2016-04-15T10:09:47Z</time>
      </trkpt>
      <trkpt lat="43.7874" lon="3.54276">
        <ele>688</ele>
        <time>2016-04-15T10:09:52Z</time>
      </trkpt>
      <trkpt lat="43.78745" lon="3.54277">
        <ele>689</ele>
        <time>2016-04-15T10:09:59Z</time>
      </trkpt>
      <trkpt lat="43.7875" lon="3.54275">
        <ele>689</ele>
        <time>2016-04-15T10:10:08Z</time>
      </trkpt>
      <trkpt lat="43.78754" lon="3.54273">
        <ele>689</ele>
        <time>2016-04-15T10:10:15Z</time>
      </trkpt>
      <trkpt lat="43.78759" lon="3.54272">
        <ele>689</ele>
        <time>2016-04-15T10:10:21Z</time>
      </trkpt>
      <trkpt lat="43.78774" lon="3.54276">
        <ele>691</ele>
        <time>2016-04-15T10:10:36Z</time>
      </trkpt>
      <trkpt lat="43.78789" lon="3.54281">
        <ele>687</ele>
        <time>2016-04-15T10:10:52Z</time>
      </trkpt>
      <trkpt lat="43.78793" lon="3.54284">
        <ele>687</ele>
        <time>2016-04-15T10:10:58Z</time>
      </trkpt>
      <trkpt lat="43.78798" lon="3.54282">
        <ele>688</ele>
        <time>2016-04-15T10:11:04Z</time>
      </trkpt>
      <trkpt lat="43.78803" lon="3.54279">
        <ele>686</ele>
        <time>2016-04-15T10:11:11Z</time>
      </trkpt>
      <trkpt lat="43.78806" lon="3.54282">
        <ele>687</ele>
        <time>2016-04-15T10:11:27Z</time>
      </trkpt>
      <trkpt lat="43.78811" lon="3.5428">
        <ele>690</ele>
        <time>2016-04-15T10:11:36Z</time>
      </trkpt>
      <trkpt lat="43.78821" lon="3.5428">
        <ele>695</ele>
        <time>2016-04-15T10:11:51Z</time>
      </trkpt>
      <trkpt lat="43.78824" lon="3.54278">
        <ele>695</ele>
        <time>2016-04-15T10:11:58Z</time>
      </trkpt>
      <trkpt lat="43.78828" lon="3.54275">
        <ele>696</ele>
        <time>2016-04-15T10:12:07Z</time>
      </trkpt>
      <trkpt lat="43.7883" lon="3.54272">
        <ele>698</ele>
        <time>2016-04-15T10:12:13Z</time>
      </trkpt>
      <trkpt lat="43.78834" lon="3.54271">
        <ele>699</ele>
        <time>2016-04-15T10:12:22Z</time>
      </trkpt>
      <trkpt lat="43.78839" lon="3.54269">
        <ele>699</ele>
        <time>2016-04-15T10:12:42Z</time>
      </trkpt>
      <trkpt lat="43.78842" lon="3.5427">
        <ele>693</ele>
        <time>2016-04-15T10:13:37Z</time>
      </trkpt>
      <trkpt lat="43.78842" lon="3.54274">
        <ele>690</ele>
        <time>2016-04-15T10:16:44Z</time>
      </trkpt>
      <trkpt lat="43.78838" lon="3.54274">
        <ele>693</ele>
        <time>2016-04-15T10:37:01Z</time>
      </trkpt>
      <trkpt lat="43.7883" lon="3.54272">
        <ele>697</ele>
        <time>2016-04-15T10:38:18Z</time>
      </trkpt>
      <trkpt lat="43.78829" lon="3.54277">
        <ele>702</ele>
        <time>2016-04-15T10:40:33Z</time>
      </trkpt>
      <trkpt lat="43.78826" lon="3.54266">
        <ele>701</ele>
        <time>2016-04-15T10:41:20Z</time>
      </trkpt>
      <trkpt lat="43.78832" lon="3.54273">
        <ele>698</ele>
        <time>2016-04-15T10:42:39Z</time>
      </trkpt>
      <trkpt lat="43.78836" lon="3.54272">
        <ele>694</ele>
        <time>2016-04-15T10:47:47Z</time>
      </trkpt>
      <trkpt lat="43.78837" lon="3.54273">
        <ele>695</ele>
        <time>2016-04-15T10:55:44Z</time>
      </trkpt>
      <trkpt lat="43.78838" lon="3.54279">
        <ele>695</ele>
        <time>2016-04-15T10:55:53Z</time>
      </trkpt>
      <trkpt lat="43.78843" lon="3.54284">
        <ele>692</ele>
        <time>2016-04-15T10:56:08Z</time>
      </trkpt>
      <trkpt lat="43.78847" lon="3.54286">
        <ele>692</ele>
        <time>2016-04-15T10:56:15Z</time>
      </trkpt>
      <trkpt lat="43.78852" lon="3.54287">
        <ele>694</ele>
        <time>2016-04-15T10:56:22Z</time>
      </trkpt>
      <trkpt lat="43.78866" lon="3.54299">
        <ele>705</ele>
        <time>2016-04-15T10:56:54Z</time>
      </trkpt>
      <trkpt lat="43.7887" lon="3.54301">
        <ele>708</ele>
        <time>2016-04-15T10:57:01Z</time>
      </trkpt>
      <trkpt lat="43.78874" lon="3.54305">
        <ele>709</ele>
        <time>2016-04-15T10:57:08Z</time>
      </trkpt>
      <trkpt lat="43.78879" lon="3.54305">
        <ele>709</ele>
        <time>2016-04-15T10:57:14Z</time>
      </trkpt>
      <trkpt lat="43.78889" lon="3.54311">
        <ele>707</ele>
        <time>2016-04-15T10:57:25Z</time>
      </trkpt>
      <trkpt lat="43.78912" lon="3.5432">
        <ele>709</ele>
        <time>2016-04-15T10:57:49Z</time>
      </trkpt>
      <trkpt lat="43.78921" lon="3.54322">
        <ele>706</ele>
        <time>2016-04-15T10:57:58Z</time>
      </trkpt>
      <trkpt lat="43.78926" lon="3.54321">
        <ele>707</ele>
        <time>2016-04-15T10:58:04Z</time>
      </trkpt>
      <trkpt lat="43.78936" lon="3.5432">
        <ele>706</ele>
        <time>2016-04-15T10:58:15Z</time>
      </trkpt>
      <trkpt lat="43.78941" lon="3.5432">
        <ele>706</ele>
        <time>2016-04-15T10:58:22Z</time>
      </trkpt>
      <trkpt lat="43.78944" lon="3.54319">
        <ele>708</ele>
        <time>2016-04-15T10:58:31Z</time>
      </trkpt>
      <trkpt lat="43.78948" lon="3.54321">
        <ele>708</ele>
        <time>2016-04-15T10:58:37Z</time>
      </trkpt>
      <trkpt lat="43.78963" lon="3.54321">
        <ele>711</ele>
        <time>2016-04-15T10:58:56Z</time>
      </trkpt>
      <trkpt lat="43.78968" lon="3.54321">
        <ele>711</ele>
        <time>2016-04-15T10:59:01Z</time>
      </trkpt>
      <trkpt lat="43.78973" lon="3.54322">
        <ele>710</ele>
        <time>2016-04-15T10:59:06Z</time>
      </trkpt>
      <trkpt lat="43.78997" lon="3.54318">
        <ele>709</ele>
        <time>2016-04-15T10:59:32Z</time>
      </trkpt>
      <trkpt lat="43.79002" lon="3.54318">
        <ele>710</ele>
        <time>2016-04-15T10:59:39Z</time>
      </trkpt>
      <trkpt lat="43.79021" lon="3.54318">
        <ele>715</ele>
        <time>2016-04-15T11:00:03Z</time>
      </trkpt>
      <trkpt lat="43.79026" lon="3.54318">
        <ele>715</ele>
        <time>2016-04-15T11:00:08Z</time>
      </trkpt>
      <trkpt lat="43.79031" lon="3.54316">
        <ele>715</ele>
        <time>2016-04-15T11:00:12Z</time>
      </trkpt>
      <trkpt lat="43.79035" lon="3.54318">
        <ele>715</ele>
        <time>2016-04-15T11:00:20Z</time>
      </trkpt>
      <trkpt lat="43.7904" lon="3.54316">
        <ele>715</ele>
        <time>2016-04-15T11:00:26Z</time>
      </trkpt>
      <trkpt lat="43.79044" lon="3.54317">
        <ele>715</ele>
        <time>2016-04-15T11:00:32Z</time>
      </trkpt>
      <trkpt lat="43.79049" lon="3.5432">
        <ele>714</ele>
        <time>2016-04-15T11:00:37Z</time>
      </trkpt>
      <trkpt lat="43.79054" lon="3.54322">
        <ele>715</ele>
        <time>2016-04-15T11:00:42Z</time>
      </trkpt>
      <trkpt lat="43.79059" lon="3.54322">
        <ele>715</ele>
        <time>2016-04-15T11:00:46Z</time>
      </trkpt>
      <trkpt lat="43.79063" lon="3.54322">
        <ele>715</ele>
        <time>2016-04-15T11:00:51Z</time>
      </trkpt>
      <trkpt lat="43.79088" lon="3.54322">
        <ele>721</ele>
        <time>2016-04-15T11:01:14Z</time>
      </trkpt>
      <trkpt lat="43.79093" lon="3.5432">
        <ele>720</ele>
        <time>2016-04-15T11:01:20Z</time>
      </trkpt>
      <trkpt lat="43.79098" lon="3.54319">
        <ele>720</ele>
        <time>2016-04-15T11:01:25Z</time>
      </trkpt>
      <trkpt lat="43.79103" lon="3.54318">
        <ele>720</ele>
        <time>2016-04-15T11:01:30Z</time>
      </trkpt>
      <trkpt lat="43.79116" lon="3.54313">
        <ele>722</ele>
        <time>2016-04-15T11:01:45Z</time>
      </trkpt>
      <trkpt lat="43.79121" lon="3.54315">
        <ele>723</ele>
        <time>2016-04-15T11:01:52Z</time>
      </trkpt>
      <trkpt lat="43.79126" lon="3.54317">
        <ele>723</ele>
        <time>2016-04-15T11:01:58Z</time>
      </trkpt>
      <trkpt lat="43.79131" lon="3.54319">
        <ele>723</ele>
        <time>2016-04-15T11:02:03Z</time>
      </trkpt>
      <trkpt lat="43.79145" lon="3.54324">
        <ele>726</ele>
        <time>2016-04-15T11:02:18Z</time>
      </trkpt>
      <trkpt lat="43.79149" lon="3.54323">
        <ele>726</ele>
        <time>2016-04-15T11:02:22Z</time>
      </trkpt>
      <trkpt lat="43.79154" lon="3.54326">
        <ele>725</ele>
        <time>2016-04-15T11:02:29Z</time>
      </trkpt>
      <trkpt lat="43.79158" lon="3.5433">
        <ele>725</ele>
        <time>2016-04-15T11:02:34Z</time>
      </trkpt>
      <trkpt lat="43.79163" lon="3.54331">
        <ele>725</ele>
        <time>2016-04-15T11:02:39Z</time>
      </trkpt>
      <trkpt lat="43.79168" lon="3.54332">
        <ele>725</ele>
        <time>2016-04-15T11:02:43Z</time>
      </trkpt>
      <trkpt lat="43.79173" lon="3.54331">
        <ele>725</ele>
        <time>2016-04-15T11:02:48Z</time>
      </trkpt>
      <trkpt lat="43.79177" lon="3.54331">
        <ele>725</ele>
        <time>2016-04-15T11:02:52Z</time>
      </trkpt>
      <trkpt lat="43.79182" lon="3.54335">
        <ele>727</ele>
        <time>2016-04-15T11:02:57Z</time>
      </trkpt>
      <trkpt lat="43.79185" lon="3.5434">
        <ele>727</ele>
        <time>2016-04-15T11:03:00Z</time>
      </trkpt>
      <trkpt lat="43.79189" lon="3.54343">
        <ele>729</ele>
        <time>2016-04-15T11:03:06Z</time>
      </trkpt>
      <trkpt lat="43.79194" lon="3.54345">
        <ele>729</ele>
        <time>2016-04-15T11:03:11Z</time>
      </trkpt>
      <trkpt lat="43.79204" lon="3.54359">
        <ele>729</ele>
        <time>2016-04-15T11:03:28Z</time>
      </trkpt>
      <trkpt lat="43.79209" lon="3.54361">
        <ele>731</ele>
        <time>2016-04-15T11:03:33Z</time>
      </trkpt>
      <trkpt lat="43.79213" lon="3.54365">
        <ele>731</ele>
        <time>2016-04-15T11:03:39Z</time>
      </trkpt>
      <trkpt lat="43.79216" lon="3.54371">
        <ele>730</ele>
        <time>2016-04-15T11:03:45Z</time>
      </trkpt>
      <trkpt lat="43.79217" lon="3.54377">
        <ele>730</ele>
        <time>2016-04-15T11:03:50Z</time>
      </trkpt>
      <trkpt lat="43.7922" lon="3.54383">
        <ele>730</ele>
        <time>2016-04-15T11:03:55Z</time>
      </trkpt>
      <trkpt lat="43.79232" lon="3.54396">
        <ele>730</ele>
        <time>2016-04-15T11:04:07Z</time>
      </trkpt>
      <trkpt lat="43.79235" lon="3.544">
        <ele>730</ele>
        <time>2016-04-15T11:04:11Z</time>
      </trkpt>
      <trkpt lat="43.7924" lon="3.54403">
        <ele>730</ele>
        <time>2016-04-15T11:04:15Z</time>
      </trkpt>
      <trkpt lat="43.79243" lon="3.54408">
        <ele>730</ele>
        <time>2016-04-15T11:04:19Z</time>
      </trkpt>
      <trkpt lat="43.7925" lon="3.54419">
        <ele>730</ele>
        <time>2016-04-15T11:04:28Z</time>
      </trkpt>
      <trkpt lat="43.79259" lon="3.54435">
        <ele>728</ele>
        <time>2016-04-15T11:04:41Z</time>
      </trkpt>
      <trkpt lat="43.7926" lon="3.54448">
        <ele>726</ele>
        <time>2016-04-15T11:04:50Z</time>
      </trkpt>
      <trkpt lat="43.79262" lon="3.54454">
        <ele>726</ele>
        <time>2016-04-15T11:04:54Z</time>
      </trkpt>
      <trkpt lat="43.79265" lon="3.5446">
        <ele>726</ele>
        <time>2016-04-15T11:04:58Z</time>
      </trkpt>
      <trkpt lat="43.79267" lon="3.54465">
        <ele>726</ele>
        <time>2016-04-15T11:05:02Z</time>
      </trkpt>
      <trkpt lat="43.7927" lon="3.54471">
        <ele>726</ele>
        <time>2016-04-15T11:05:06Z</time>
      </trkpt>
      <trkpt lat="43.79272" lon="3.54478">
        <ele>727</ele>
        <time>2016-04-15T11:05:10Z</time>
      </trkpt>
      <trkpt lat="43.79275" lon="3.54483">
        <ele>728</ele>
        <time>2016-04-15T11:05:14Z</time>
      </trkpt>
      <trkpt lat="43.7928" lon="3.54494">
        <ele>728</ele>
        <time>2016-04-15T11:05:23Z</time>
      </trkpt>
      <trkpt lat="43.79295" lon="3.54522">
        <ele>732</ele>
        <time>2016-04-15T11:05:50Z</time>
      </trkpt>
      <trkpt lat="43.79298" lon="3.54527">
        <ele>732</ele>
        <time>2016-04-15T11:05:55Z</time>
      </trkpt>
      <trkpt lat="43.79305" lon="3.54537">
        <ele>730</ele>
        <time>2016-04-15T11:06:06Z</time>
      </trkpt>
      <trkpt lat="43.79308" lon="3.54542">
        <ele>730</ele>
        <time>2016-04-15T11:06:11Z</time>
      </trkpt>
      <trkpt lat="43.79314" lon="3.54553">
        <ele>731</ele>
        <time>2016-04-15T11:06:21Z</time>
      </trkpt>
      <trkpt lat="43.79315" lon="3.54559">
        <ele>731</ele>
        <time>2016-04-15T11:06:26Z</time>
      </trkpt>
      <trkpt lat="43.79315" lon="3.54566">
        <ele>731</ele>
        <time>2016-04-15T11:06:31Z</time>
      </trkpt>
      <trkpt lat="43.79319" lon="3.54578">
        <ele>733</ele>
        <time>2016-04-15T11:06:39Z</time>
      </trkpt>
      <trkpt lat="43.79322" lon="3.54587">
        <ele>733</ele>
        <time>2016-04-15T11:06:51Z</time>
      </trkpt>
      <trkpt lat="43.79327" lon="3.546">
        <ele>732</ele>
        <time>2016-04-15T11:07:00Z</time>
      </trkpt>
      <trkpt lat="43.7933" lon="3.54606">
        <ele>732</ele>
        <time>2016-04-15T11:07:05Z</time>
      </trkpt>
      <trkpt lat="43.79334" lon="3.54611">
        <ele>732</ele>
        <time>2016-04-15T11:07:10Z</time>
      </trkpt>
      <trkpt lat="43.79339" lon="3.54616">
        <ele>732</ele>
        <time>2016-04-15T11:07:15Z</time>
      </trkpt>
      <trkpt lat="43.79348" lon="3.54633">
        <ele>731</ele>
        <time>2016-04-15T11:07:30Z</time>
      </trkpt>
      <trkpt lat="43.79351" lon="3.5464">
        <ele>731</ele>
        <time>2016-04-15T11:07:35Z</time>
      </trkpt>
      <trkpt lat="43.79357" lon="3.54649">
        <ele>732</ele>
        <time>2016-04-15T11:07:43Z</time>
      </trkpt>
      <trkpt lat="43.79365" lon="3.54659">
        <ele>731</ele>
        <time>2016-04-15T11:07:51Z</time>
      </trkpt>
      <trkpt lat="43.79372" lon="3.54669">
        <ele>732</ele>
        <time>2016-04-15T11:07:59Z</time>
      </trkpt>
      <trkpt lat="43.79384" lon="3.5468">
        <ele>732</ele>
        <time>2016-04-15T11:08:12Z</time>
      </trkpt>
      <trkpt lat="43.79388" lon="3.54684">
        <ele>733</ele>
        <time>2016-04-15T11:08:16Z</time>
      </trkpt>
      <trkpt lat="43.79393" lon="3.54687">
        <ele>733</ele>
        <time>2016-04-15T11:08:20Z</time>
      </trkpt>
      <trkpt lat="43.79404" lon="3.54692">
        <ele>732</ele>
        <time>2016-04-15T11:08:28Z</time>
      </trkpt>
      <trkpt lat="43.79409" lon="3.54694">
        <ele>733</ele>
        <time>2016-04-15T11:08:32Z</time>
      </trkpt>
      <trkpt lat="43.79414" lon="3.54697">
        <ele>732</ele>
        <time>2016-04-15T11:08:37Z</time>
      </trkpt>
      <trkpt lat="43.79427" lon="3.54704">
        <ele>728</ele>
        <time>2016-04-15T11:08:50Z</time>
      </trkpt>
      <trkpt lat="43.79436" lon="3.54712">
        <ele>729</ele>
        <time>2016-04-15T11:09:00Z</time>
      </trkpt>
      <trkpt lat="43.7944" lon="3.54714">
        <ele>729</ele>
        <time>2016-04-15T11:09:06Z</time>
      </trkpt>
      <trkpt lat="43.79443" lon="3.5472">
        <ele>728</ele>
        <time>2016-04-15T11:09:12Z</time>
      </trkpt>
      <trkpt lat="43.79444" lon="3.54726">
        <ele>728</ele>
        <time>2016-04-15T11:09:20Z</time>
      </trkpt>
      <trkpt lat="43.79462" lon="3.54759">
        <ele>724</ele>
        <time>2016-04-15T11:09:54Z</time>
      </trkpt>
      <trkpt lat="43.79471" lon="3.54776">
        <ele>722</ele>
        <time>2016-04-15T11:10:07Z</time>
      </trkpt>
      <trkpt lat="43.79478" lon="3.54793">
        <ele>722</ele>
        <time>2016-04-15T11:10:22Z</time>
      </trkpt>
      <trkpt lat="43.79488" lon="3.54807">
        <ele>718</ele>
        <time>2016-04-15T11:10:36Z</time>
      </trkpt>
      <trkpt lat="43.79507" lon="3.54817">
        <ele>716</ele>
        <time>2016-04-15T11:10:53Z</time>
      </trkpt>
      <trkpt lat="43.79515" lon="3.54825">
        <ele>716</ele>
        <time>2016-04-15T11:11:02Z</time>
      </trkpt>
      <trkpt lat="43.79528" lon="3.54837">
        <ele>715</ele>
        <time>2016-04-15T11:11:15Z</time>
      </trkpt>
      <trkpt lat="43.79536" lon="3.54847">
        <ele>715</ele>
        <time>2016-04-15T11:11:25Z</time>
      </trkpt>
      <trkpt lat="43.79555" lon="3.54887">
        <ele>712</ele>
        <time>2016-04-15T11:11:56Z</time>
      </trkpt>
      <trkpt lat="43.79561" lon="3.54906">
        <ele>709</ele>
        <time>2016-04-15T11:12:09Z</time>
      </trkpt>
      <trkpt lat="43.79566" lon="3.54918">
        <ele>709</ele>
        <time>2016-04-15T11:12:17Z</time>
      </trkpt>
      <trkpt lat="43.79573" lon="3.54937">
        <ele>706</ele>
        <time>2016-04-15T11:12:32Z</time>
      </trkpt>
      <trkpt lat="43.79576" lon="3.54943">
        <ele>707</ele>
        <time>2016-04-15T11:12:37Z</time>
      </trkpt>
      <trkpt lat="43.7958" lon="3.54947">
        <ele>707</ele>
        <time>2016-04-15T11:12:41Z</time>
      </trkpt>
      <trkpt lat="43.79583" lon="3.54952">
        <ele>707</ele>
        <time>2016-04-15T11:12:45Z</time>
      </trkpt>
      <trkpt lat="43.79591" lon="3.54977">
        <ele>706</ele>
        <time>2016-04-15T11:13:05Z</time>
      </trkpt>
      <trkpt lat="43.79591" lon="3.54984">
        <ele>706</ele>
        <time>2016-04-15T11:13:09Z</time>
      </trkpt>
      <trkpt lat="43.79592" lon="3.54991">
        <ele>705</ele>
        <time>2016-04-15T11:13:13Z</time>
      </trkpt>
      <trkpt lat="43.79593" lon="3.54998">
        <ele>705</ele>
        <time>2016-04-15T11:13:18Z</time>
      </trkpt>
      <trkpt lat="43.79598" lon="3.55002">
        <ele>705</ele>
        <time>2016-04-15T11:13:23Z</time>
      </trkpt>
      <trkpt lat="43.79607" lon="3.55005">
        <ele>705</ele>
        <time>2016-04-15T11:13:31Z</time>
      </trkpt>
      <trkpt lat="43.79616" lon="3.55008">
        <ele>705</ele>
        <time>2016-04-15T11:13:39Z</time>
      </trkpt>
      <trkpt lat="43.79626" lon="3.55012">
        <ele>706</ele>
        <time>2016-04-15T11:13:49Z</time>
      </trkpt>
      <trkpt lat="43.79632" lon="3.55013">
        <ele>705</ele>
        <time>2016-04-15T11:13:54Z</time>
      </trkpt>
      <trkpt lat="43.79637" lon="3.55013">
        <ele>704</ele>
        <time>2016-04-15T11:13:59Z</time>
      </trkpt>
      <trkpt lat="43.79642" lon="3.55013">
        <ele>705</ele>
        <time>2016-04-15T11:14:04Z</time>
      </trkpt>
      <trkpt lat="43.79656" lon="3.55012">
        <ele>705</ele>
        <time>2016-04-15T11:14:23Z</time>
      </trkpt>
      <trkpt lat="43.79667" lon="3.55013">
        <ele>704</ele>
        <time>2016-04-15T11:14:33Z</time>
      </trkpt>
      <trkpt lat="43.79672" lon="3.55015">
        <ele>705</ele>
        <time>2016-04-15T11:14:38Z</time>
      </trkpt>
      <trkpt lat="43.79677" lon="3.55015">
        <ele>705</ele>
        <time>2016-04-15T11:14:42Z</time>
      </trkpt>
      <trkpt lat="43.79686" lon="3.55016">
        <ele>703</ele>
        <time>2016-04-15T11:14:50Z</time>
      </trkpt>
      <trkpt lat="43.79691" lon="3.55017">
        <ele>703</ele>
        <time>2016-04-15T11:14:54Z</time>
      </trkpt>
      <trkpt lat="43.79701" lon="3.55021">
        <ele>704</ele>
        <time>2016-04-15T11:15:03Z</time>
      </trkpt>
      <trkpt lat="43.79706" lon="3.55023">
        <ele>704</ele>
        <time>2016-04-15T11:15:07Z</time>
      </trkpt>
      <trkpt lat="43.79711" lon="3.55024">
        <ele>703</ele>
        <time>2016-04-15T11:15:11Z</time>
      </trkpt>
      <trkpt lat="43.79727" lon="3.55037">
        <ele>703</ele>
        <time>2016-04-15T11:15:28Z</time>
      </trkpt>
      <trkpt lat="43.7973" lon="3.55051">
        <ele>704</ele>
        <time>2016-04-15T11:15:38Z</time>
      </trkpt>
      <trkpt lat="43.79732" lon="3.55058">
        <ele>704</ele>
        <time>2016-04-15T11:15:43Z</time>
      </trkpt>
      <trkpt lat="43.79733" lon="3.55064">
        <ele>704</ele>
        <time>2016-04-15T11:15:47Z</time>
      </trkpt>
      <trkpt lat="43.79739" lon="3.5509">
        <ele>703</ele>
        <time>2016-04-15T11:16:05Z</time>
      </trkpt>
      <trkpt lat="43.79743" lon="3.55104">
        <ele>705</ele>
        <time>2016-04-15T11:16:15Z</time>
      </trkpt>
      <trkpt lat="43.79748" lon="3.55116">
        <ele>705</ele>
        <time>2016-04-15T11:16:25Z</time>
      </trkpt>
      <trkpt lat="43.79756" lon="3.55126">
        <ele>705</ele>
        <time>2016-04-15T11:16:35Z</time>
      </trkpt>
      <trkpt lat="43.79775" lon="3.55137">
        <ele>706</ele>
        <time>2016-04-15T11:16:55Z</time>
      </trkpt>
      <trkpt lat="43.79785" lon="3.55141">
        <ele>705</ele>
        <time>2016-04-15T11:17:04Z</time>
      </trkpt>
      <trkpt lat="43.79789" lon="3.55144">
        <ele>705</ele>
        <time>2016-04-15T11:17:08Z</time>
      </trkpt>
      <trkpt lat="43.79793" lon="3.55148">
        <ele>705</ele>
        <time>2016-04-15T11:17:12Z</time>
      </trkpt>
      <trkpt lat="43.79819" lon="3.55179">
        <ele>703</ele>
        <time>2016-04-15T11:17:41Z</time>
      </trkpt>
      <trkpt lat="43.79827" lon="3.55187">
        <ele>704</ele>
        <time>2016-04-15T11:17:50Z</time>
      </trkpt>
      <trkpt lat="43.79842" lon="3.55206">
        <ele>703</ele>
        <time>2016-04-15T11:18:08Z</time>
      </trkpt>
      <trkpt lat="43.79845" lon="3.55211">
        <ele>704</ele>
        <time>2016-04-15T11:18:12Z</time>
      </trkpt>
      <trkpt lat="43.79847" lon="3.55216">
        <ele>703</ele>
        <time>2016-04-15T11:18:16Z</time>
      </trkpt>
      <trkpt lat="43.7985" lon="3.55222">
        <ele>704</ele>
        <time>2016-04-15T11:18:20Z</time>
      </trkpt>
      <trkpt lat="43.79876" lon="3.55257">
        <ele>702</ele>
        <time>2016-04-15T11:18:50Z</time>
      </trkpt>
      <trkpt lat="43.7988" lon="3.5526">
        <ele>702</ele>
        <time>2016-04-15T11:18:55Z</time>
      </trkpt>
      <trkpt lat="43.79897" lon="3.55276">
        <ele>704</ele>
        <time>2016-04-15T11:19:15Z</time>
      </trkpt>
      <trkpt lat="43.7991" lon="3.55288">
        <ele>703</ele>
        <time>2016-04-15T11:19:29Z</time>
      </trkpt>
      <trkpt lat="43.79916" lon="3.55299">
        <ele>702</ele>
        <time>2016-04-15T11:19:40Z</time>
      </trkpt>
      <trkpt lat="43.7992" lon="3.55304">
        <ele>702</ele>
        <time>2016-04-15T11:19:48Z</time>
      </trkpt>
      <trkpt lat="43.79923" lon="3.55309">
        <ele>700</ele>
        <time>2016-04-15T11:19:54Z</time>
      </trkpt>
      <trkpt lat="43.7993" lon="3.55327">
        <ele>700</ele>
        <time>2016-04-15T11:20:12Z</time>
      </trkpt>
      <trkpt lat="43.79931" lon="3.55333">
        <ele>698</ele>
        <time>2016-04-15T11:20:18Z</time>
      </trkpt>
      <trkpt lat="43.79935" lon="3.55338">
        <ele>698</ele>
        <time>2016-04-15T11:20:23Z</time>
      </trkpt>
      <trkpt lat="43.79939" lon="3.55344">
        <ele>698</ele>
        <time>2016-04-15T11:20:28Z</time>
      </trkpt>
      <trkpt lat="43.79945" lon="3.55355">
        <ele>699</ele>
        <time>2016-04-15T11:20:37Z</time>
      </trkpt>
      <trkpt lat="43.79949" lon="3.55368">
        <ele>698</ele>
        <time>2016-04-15T11:20:47Z</time>
      </trkpt>
      <trkpt lat="43.79954" lon="3.5538">
        <ele>699</ele>
        <time>2016-04-15T11:20:56Z</time>
      </trkpt>
      <trkpt lat="43.79955" lon="3.55386">
        <ele>699</ele>
        <time>2016-04-15T11:21:00Z</time>
      </trkpt>
      <trkpt lat="43.79962" lon="3.55405">
        <ele>697</ele>
        <time>2016-04-15T11:21:14Z</time>
      </trkpt>
      <trkpt lat="43.79973" lon="3.55418">
        <ele>696</ele>
        <time>2016-04-15T11:21:33Z</time>
      </trkpt>
      <trkpt lat="43.79979" lon="3.55428">
        <ele>695</ele>
        <time>2016-04-15T11:21:42Z</time>
      </trkpt>
      <trkpt lat="43.79983" lon="3.55434">
        <ele>695</ele>
        <time>2016-04-15T11:21:46Z</time>
      </trkpt>
      <trkpt lat="43.79988" lon="3.55445">
        <ele>694</ele>
        <time>2016-04-15T11:21:54Z</time>
      </trkpt>
      <trkpt lat="43.79996" lon="3.55469">
        <ele>694</ele>
        <time>2016-04-15T11:22:10Z</time>
      </trkpt>
      <trkpt lat="43.79999" lon="3.55475">
        <ele>694</ele>
        <time>2016-04-15T11:22:15Z</time>
      </trkpt>
      <trkpt lat="43.80002" lon="3.55481">
        <ele>694</ele>
        <time>2016-04-15T11:22:20Z</time>
      </trkpt>
      <trkpt lat="43.80005" lon="3.55486">
        <ele>695</ele>
        <time>2016-04-15T11:22:25Z</time>
      </trkpt>
      <trkpt lat="43.80008" lon="3.55492">
        <ele>695</ele>
        <time>2016-04-15T11:22:30Z</time>
      </trkpt>
      <trkpt lat="43.80018" lon="3.55508">
        <ele>696</ele>
        <time>2016-04-15T11:22:45Z</time>
      </trkpt>
      <trkpt lat="43.80021" lon="3.55514">
        <ele>696</ele>
        <time>2016-04-15T11:22:50Z</time>
      </trkpt>
      <trkpt lat="43.80023" lon="3.55519">
        <ele>696</ele>
        <time>2016-04-15T11:22:54Z</time>
      </trkpt>
      <trkpt lat="43.80026" lon="3.55525">
        <ele>695</ele>
        <time>2016-04-15T11:22:58Z</time>
      </trkpt>
      <trkpt lat="43.80028" lon="3.5553">
        <ele>695</ele>
        <time>2016-04-15T11:23:02Z</time>
      </trkpt>
      <trkpt lat="43.80037" lon="3.55548">
        <ele>695</ele>
        <time>2016-04-15T11:23:17Z</time>
      </trkpt>
      <trkpt lat="43.80051" lon="3.55567">
        <ele>696</ele>
        <time>2016-04-15T11:23:35Z</time>
      </trkpt>
      <trkpt lat="43.80055" lon="3.55572">
        <ele>695</ele>
        <time>2016-04-15T11:23:40Z</time>
      </trkpt>
      <trkpt lat="43.8006" lon="3.55584">
        <ele>695</ele>
        <time>2016-04-15T11:23:48Z</time>
      </trkpt>
      <trkpt lat="43.80063" lon="3.5559">
        <ele>694</ele>
        <time>2016-04-15T11:23:53Z</time>
      </trkpt>
      <trkpt lat="43.80066" lon="3.55596">
        <ele>694</ele>
        <time>2016-04-15T11:23:58Z</time>
      </trkpt>
      <trkpt lat="43.8007" lon="3.55608">
        <ele>694</ele>
        <time>2016-04-15T11:24:06Z</time>
      </trkpt>
      <trkpt lat="43.80098" lon="3.55635">
        <ele>690</ele>
        <time>2016-04-15T11:24:38Z</time>
      </trkpt>
      <trkpt lat="43.80102" lon="3.55639">
        <ele>690</ele>
        <time>2016-04-15T11:24:44Z</time>
      </trkpt>
      <trkpt lat="43.80107" lon="3.55651">
        <ele>688</ele>
        <time>2016-04-15T11:24:55Z</time>
      </trkpt>
      <trkpt lat="43.80107" lon="3.55664">
        <ele>686</ele>
        <time>2016-04-15T11:25:03Z</time>
      </trkpt>
      <trkpt lat="43.80105" lon="3.5567">
        <ele>685</ele>
        <time>2016-04-15T11:25:08Z</time>
      </trkpt>
      <trkpt lat="43.80102" lon="3.55676">
        <ele>686</ele>
        <time>2016-04-15T11:25:14Z</time>
      </trkpt>
      <trkpt lat="43.801" lon="3.55682">
        <ele>686</ele>
        <time>2016-04-15T11:25:19Z</time>
      </trkpt>
      <trkpt lat="43.80096" lon="3.55686">
        <ele>685</ele>
        <time>2016-04-15T11:25:24Z</time>
      </trkpt>
      <trkpt lat="43.80093" lon="3.55692">
        <ele>686</ele>
        <time>2016-04-15T11:25:30Z</time>
      </trkpt>
      <trkpt lat="43.80094" lon="3.55698">
        <ele>685</ele>
        <time>2016-04-15T11:25:35Z</time>
      </trkpt>
      <trkpt lat="43.80102" lon="3.55706">
        <ele>686</ele>
        <time>2016-04-15T11:25:46Z</time>
      </trkpt>
      <trkpt lat="43.80104" lon="3.55713">
        <ele>686</ele>
        <time>2016-04-15T11:25:54Z</time>
      </trkpt>
      <trkpt lat="43.80101" lon="3.55718">
        <ele>685</ele>
        <time>2016-04-15T11:26:29Z</time>
      </trkpt>
      <trkpt lat="43.80101" lon="3.55725">
        <ele>685</ele>
        <time>2016-04-15T11:26:34Z</time>
      </trkpt>
      <trkpt lat="43.80091" lon="3.55742">
        <ele>683</ele>
        <time>2016-04-15T11:26:49Z</time>
      </trkpt>
      <trkpt lat="43.80072" lon="3.55765">
        <ele>685</ele>
        <time>2016-04-15T11:27:16Z</time>
      </trkpt>
      <trkpt lat="43.8007" lon="3.55779">
        <ele>686</ele>
        <time>2016-04-15T11:27:26Z</time>
      </trkpt>
      <trkpt lat="43.8007" lon="3.55786">
        <ele>686</ele>
        <time>2016-04-15T11:27:31Z</time>
      </trkpt>
      <trkpt lat="43.80072" lon="3.55793">
        <ele>685</ele>
        <time>2016-04-15T11:27:37Z</time>
      </trkpt>
      <trkpt lat="43.80087" lon="3.55809">
        <ele>682</ele>
        <time>2016-04-15T11:27:59Z</time>
      </trkpt>
      <trkpt lat="43.80091" lon="3.55813">
        <ele>682</ele>
        <time>2016-04-15T11:28:05Z</time>
      </trkpt>
      <trkpt lat="43.80101" lon="3.55811">
        <ele>681</ele>
        <time>2016-04-15T11:28:16Z</time>
      </trkpt>
      <trkpt lat="43.80106" lon="3.55814">
        <ele>681</ele>
        <time>2016-04-15T11:28:21Z</time>
      </trkpt>
      <trkpt lat="43.80119" lon="3.55821">
        <ele>683</ele>
        <time>2016-04-15T11:28:37Z</time>
      </trkpt>
      <trkpt lat="43.80124" lon="3.55821">
        <ele>683</ele>
        <time>2016-04-15T11:28:43Z</time>
      </trkpt>
      <trkpt lat="43.80141" lon="3.55834">
        <ele>678</ele>
        <time>2016-04-15T11:29:03Z</time>
      </trkpt>
      <trkpt lat="43.80159" lon="3.55858">
        <ele>676</ele>
        <time>2016-04-15T11:29:24Z</time>
      </trkpt>
      <trkpt lat="43.80163" lon="3.55863">
        <ele>676</ele>
        <time>2016-04-15T11:29:29Z</time>
      </trkpt>
      <trkpt lat="43.80167" lon="3.55868">
        <ele>675</ele>
        <time>2016-04-15T11:29:33Z</time>
      </trkpt>
      <trkpt lat="43.80174" lon="3.55878">
        <ele>675</ele>
        <time>2016-04-15T11:29:41Z</time>
      </trkpt>
      <trkpt lat="43.80178" lon="3.55882">
        <ele>675</ele>
        <time>2016-04-15T11:29:45Z</time>
      </trkpt>
      <trkpt lat="43.80184" lon="3.55892">
        <ele>673</ele>
        <time>2016-04-15T11:29:55Z</time>
      </trkpt>
      <trkpt lat="43.80188" lon="3.55897">
        <ele>673</ele>
        <time>2016-04-15T11:30:01Z</time>
      </trkpt>
      <trkpt lat="43.80192" lon="3.55892">
        <ele>673</ele>
        <time>2016-04-15T11:30:07Z</time>
      </trkpt>
      <trkpt lat="43.80194" lon="3.55886">
        <ele>672</ele>
        <time>2016-04-15T11:30:12Z</time>
      </trkpt>
      <trkpt lat="43.80199" lon="3.55883">
        <ele>672</ele>
        <time>2016-04-15T11:30:19Z</time>
      </trkpt>
      <trkpt lat="43.80194" lon="3.55882">
        <ele>671</ele>
        <time>2016-04-15T11:30:55Z</time>
      </trkpt>
      <trkpt lat="43.80191" lon="3.55882">
        <ele>671</ele>
        <time>2016-04-15T11:31:02Z</time>
      </trkpt>
      <trkpt lat="43.80187" lon="3.55888">
        <ele>671</ele>
        <time>2016-04-15T11:31:14Z</time>
      </trkpt>
      <trkpt lat="43.80185" lon="3.55894">
        <ele>673</ele>
        <time>2016-04-15T11:31:21Z</time>
      </trkpt>
      <trkpt lat="43.80184" lon="3.55901">
        <ele>673</ele>
        <time>2016-04-15T11:31:27Z</time>
      </trkpt>
      <trkpt lat="43.80184" lon="3.55908">
        <ele>673</ele>
        <time>2016-04-15T11:31:32Z</time>
      </trkpt>
      <trkpt lat="43.80187" lon="3.55922">
        <ele>670</ele>
        <time>2016-04-15T11:31:44Z</time>
      </trkpt>
      <trkpt lat="43.80193" lon="3.55932">
        <ele>670</ele>
        <time>2016-04-15T11:31:53Z</time>
      </trkpt>
      <trkpt lat="43.80197" lon="3.55937">
        <ele>670</ele>
        <time>2016-04-15T11:31:58Z</time>
      </trkpt>
      <trkpt lat="43.802" lon="3.55942">
        <ele>669</ele>
        <time>2016-04-15T11:32:02Z</time>
      </trkpt>
      <trkpt lat="43.80203" lon="3.55948">
        <ele>669</ele>
        <time>2016-04-15T11:32:06Z</time>
      </trkpt>
      <trkpt lat="43.80208" lon="3.5596">
        <ele>671</ele>
        <time>2016-04-15T11:32:14Z</time>
      </trkpt>
      <trkpt lat="43.80211" lon="3.55965">
        <ele>671</ele>
        <time>2016-04-15T11:32:18Z</time>
      </trkpt>
      <trkpt lat="43.80213" lon="3.55971">
        <ele>670</ele>
        <time>2016-04-15T11:32:22Z</time>
      </trkpt>
      <trkpt lat="43.80216" lon="3.55976">
        <ele>670</ele>
        <time>2016-04-15T11:32:26Z</time>
      </trkpt>
      <trkpt lat="43.80219" lon="3.5598">
        <ele>671</ele>
        <time>2016-04-15T11:32:29Z</time>
      </trkpt>
      <trkpt lat="43.80226" lon="3.55989">
        <ele>671</ele>
        <time>2016-04-15T11:32:37Z</time>
      </trkpt>
      <trkpt lat="43.80235" lon="3.55998">
        <ele>671</ele>
        <time>2016-04-15T11:32:45Z</time>
      </trkpt>
      <trkpt lat="43.80254" lon="3.56019">
        <ele>674</ele>
        <time>2016-04-15T11:33:05Z</time>
      </trkpt>
      <trkpt lat="43.80263" lon="3.56026">
        <ele>674</ele>
        <time>2016-04-15T11:33:14Z</time>
      </trkpt>
      <trkpt lat="43.80271" lon="3.56033">
        <ele>673</ele>
        <time>2016-04-15T11:33:22Z</time>
      </trkpt>
      <trkpt lat="43.80279" lon="3.5604">
        <ele>673</ele>
        <time>2016-04-15T11:33:30Z</time>
      </trkpt>
      <trkpt lat="43.80283" lon="3.56044">
        <ele>674</ele>
        <time>2016-04-15T11:33:34Z</time>
      </trkpt>
      <trkpt lat="43.80287" lon="3.56048">
        <ele>674</ele>
        <time>2016-04-15T11:33:38Z</time>
      </trkpt>
      <trkpt lat="43.8029" lon="3.56052">
        <ele>673</ele>
        <time>2016-04-15T11:33:42Z</time>
      </trkpt>
      <trkpt lat="43.80293" lon="3.56058">
        <ele>673</ele>
        <time>2016-04-15T11:33:47Z</time>
      </trkpt>
      <trkpt lat="43.80297" lon="3.56063">
        <ele>673</ele>
        <time>2016-04-15T11:33:52Z</time>
      </trkpt>
      <trkpt lat="43.80301" lon="3.56065">
        <ele>674</ele>
        <time>2016-04-15T11:33:56Z</time>
      </trkpt>
      <trkpt lat="43.80306" lon="3.56066">
        <ele>673</ele>
        <time>2016-04-15T11:34:00Z</time>
      </trkpt>
      <trkpt lat="43.80316" lon="3.56069">
        <ele>673</ele>
        <time>2016-04-15T11:34:08Z</time>
      </trkpt>
      <trkpt lat="43.80326" lon="3.56068">
        <ele>671</ele>
        <time>2016-04-15T11:34:18Z</time>
      </trkpt>
      <trkpt lat="43.80329" lon="3.56064">
        <ele>671</ele>
        <time>2016-04-15T11:34:28Z</time>
      </trkpt>
      <trkpt lat="43.80332" lon="3.56066">
        <ele>668</ele>
        <time>2016-04-15T11:34:58Z</time>
      </trkpt>
      <trkpt lat="43.80337" lon="3.56068">
        <ele>669</ele>
        <time>2016-04-15T11:35:05Z</time>
      </trkpt>
      <trkpt lat="43.80345" lon="3.56075">
        <ele>667</ele>
        <time>2016-04-15T11:35:13Z</time>
      </trkpt>
      <trkpt lat="43.80358" lon="3.56088">
        <ele>667</ele>
        <time>2016-04-15T11:35:26Z</time>
      </trkpt>
      <trkpt lat="43.80365" lon="3.56097">
        <ele>668</ele>
        <time>2016-04-15T11:35:35Z</time>
      </trkpt>
      <trkpt lat="43.80369" lon="3.561">
        <ele>668</ele>
        <time>2016-04-15T11:35:40Z</time>
      </trkpt>
      <trkpt lat="43.80402" lon="3.56117">
        <ele>661</ele>
        <time>2016-04-15T11:36:14Z</time>
      </trkpt>
      <trkpt lat="43.80416" lon="3.56119">
        <ele>659</ele>
        <time>2016-04-15T11:36:26Z</time>
      </trkpt>
      <trkpt lat="43.8042" lon="3.5612">
        <ele>659</ele>
        <time>2016-04-15T11:36:30Z</time>
      </trkpt>
      <trkpt lat="43.80431" lon="3.56122">
        <ele>657</ele>
        <time>2016-04-15T11:36:41Z</time>
      </trkpt>
      <trkpt lat="43.80457" lon="3.5613">
        <ele>658</ele>
        <time>2016-04-15T11:37:03Z</time>
      </trkpt>
      <trkpt lat="43.80466" lon="3.56134">
        <ele>657</ele>
        <time>2016-04-15T11:37:11Z</time>
      </trkpt>
      <trkpt lat="43.8047" lon="3.56137">
        <ele>657</ele>
        <time>2016-04-15T11:37:16Z</time>
      </trkpt>
      <trkpt lat="43.80495" lon="3.56145">
        <ele>657</ele>
        <time>2016-04-15T11:37:38Z</time>
      </trkpt>
      <trkpt lat="43.80505" lon="3.56148">
        <ele>657</ele>
        <time>2016-04-15T11:37:48Z</time>
      </trkpt>
      <trkpt lat="43.80515" lon="3.56149">
        <ele>657</ele>
        <time>2016-04-15T11:37:57Z</time>
      </trkpt>
      <trkpt lat="43.8053" lon="3.56155">
        <ele>655</ele>
        <time>2016-04-15T11:38:11Z</time>
      </trkpt>
      <trkpt lat="43.80534" lon="3.56158">
        <ele>655</ele>
        <time>2016-04-15T11:38:15Z</time>
      </trkpt>
      <trkpt lat="43.80538" lon="3.56162">
        <ele>656</ele>
        <time>2016-04-15T11:38:20Z</time>
      </trkpt>
      <trkpt lat="43.80542" lon="3.56166">
        <ele>655</ele>
        <time>2016-04-15T11:38:24Z</time>
      </trkpt>
      <trkpt lat="43.80547" lon="3.56167">
        <ele>655</ele>
        <time>2016-04-15T11:38:28Z</time>
      </trkpt>
      <trkpt lat="43.80552" lon="3.56168">
        <ele>655</ele>
        <time>2016-04-15T11:38:33Z</time>
      </trkpt>
      <trkpt lat="43.80567" lon="3.56169">
        <ele>654</ele>
        <time>2016-04-15T11:38:47Z</time>
      </trkpt>
      <trkpt lat="43.80593" lon="3.56173">
        <ele>661</ele>
        <time>2016-04-15T11:39:12Z</time>
      </trkpt>
      <trkpt lat="43.80597" lon="3.56169">
        <ele>661</ele>
        <time>2016-04-15T11:39:21Z</time>
      </trkpt>
      <trkpt lat="43.80598" lon="3.56162">
        <ele>661</ele>
        <time>2016-04-15T11:39:25Z</time>
      </trkpt>
      <trkpt lat="43.80601" lon="3.56157">
        <ele>661</ele>
        <time>2016-04-15T11:39:29Z</time>
      </trkpt>
      <trkpt lat="43.80605" lon="3.56154">
        <ele>661</ele>
        <time>2016-04-15T11:39:34Z</time>
      </trkpt>
      <trkpt lat="43.80615" lon="3.56152">
        <ele>663</ele>
        <time>2016-04-15T11:39:44Z</time>
      </trkpt>
      <trkpt lat="43.80619" lon="3.56155">
        <ele>663</ele>
        <time>2016-04-15T11:39:50Z</time>
      </trkpt>
      <trkpt lat="43.80617" lon="3.56162">
        <ele>663</ele>
        <time>2016-04-15T11:39:55Z</time>
      </trkpt>
      <trkpt lat="43.80614" lon="3.56167">
        <ele>664</ele>
        <time>2016-04-15T11:39:59Z</time>
      </trkpt>
      <trkpt lat="43.80612" lon="3.56173">
        <ele>663</ele>
        <time>2016-04-15T11:40:03Z</time>
      </trkpt>
      <trkpt lat="43.80601" lon="3.56196">
        <ele>661</ele>
        <time>2016-04-15T11:40:22Z</time>
      </trkpt>
      <trkpt lat="43.80597" lon="3.56208">
        <ele>661</ele>
        <time>2016-04-15T11:40:30Z</time>
      </trkpt>
      <trkpt lat="43.80595" lon="3.56214">
        <ele>662</ele>
        <time>2016-04-15T11:40:34Z</time>
      </trkpt>
      <trkpt lat="43.80595" lon="3.5622">
        <ele>662</ele>
        <time>2016-04-15T11:40:38Z</time>
      </trkpt>
      <trkpt lat="43.80595" lon="3.56228">
        <ele>661</ele>
        <time>2016-04-15T11:40:43Z</time>
      </trkpt>
      <trkpt lat="43.80596" lon="3.56235">
        <ele>661</ele>
        <time>2016-04-15T11:40:48Z</time>
      </trkpt>
      <trkpt lat="43.80601" lon="3.56245">
        <ele>661</ele>
        <time>2016-04-15T11:41:03Z</time>
      </trkpt>
      <trkpt lat="43.806" lon="3.5625">
        <ele>660</ele>
        <time>2016-04-15T11:41:45Z</time>
      </trkpt>
      <trkpt lat="43.80605" lon="3.56262">
        <ele>657</ele>
        <time>2016-04-15T11:41:57Z</time>
      </trkpt>
      <trkpt lat="43.80618" lon="3.56272">
        <ele>657</ele>
        <time>2016-04-15T11:42:10Z</time>
      </trkpt>
      <trkpt lat="43.80622" lon="3.56275">
        <ele>657</ele>
        <time>2016-04-15T11:42:15Z</time>
      </trkpt>
      <trkpt lat="43.80627" lon="3.56278">
        <ele>657</ele>
        <time>2016-04-15T11:42:20Z</time>
      </trkpt>
      <trkpt lat="43.8064" lon="3.56288">
        <ele>654</ele>
        <time>2016-04-15T11:42:37Z</time>
      </trkpt>
      <trkpt lat="43.80645" lon="3.5629">
        <ele>654</ele>
        <time>2016-04-15T11:42:43Z</time>
      </trkpt>
      <trkpt lat="43.80655" lon="3.56288">
        <ele>655</ele>
        <time>2016-04-15T11:42:53Z</time>
      </trkpt>
      <trkpt lat="43.80664" lon="3.56288">
        <ele>653</ele>
        <time>2016-04-15T11:43:03Z</time>
      </trkpt>
      <trkpt lat="43.80669" lon="3.56287">
        <ele>654</ele>
        <time>2016-04-15T11:43:08Z</time>
      </trkpt>
      <trkpt lat="43.80674" lon="3.56285">
        <ele>654</ele>
        <time>2016-04-15T11:43:14Z</time>
      </trkpt>
      <trkpt lat="43.80683" lon="3.56283">
        <ele>653</ele>
        <time>2016-04-15T11:43:22Z</time>
      </trkpt>
      <trkpt lat="43.80681" lon="3.56287">
        <ele>648</ele>
        <time>2016-04-15T11:43:35Z</time>
      </trkpt>
      <trkpt lat="43.80682" lon="3.56301">
        <ele>644</ele>
        <time>2016-04-15T11:43:46Z</time>
      </trkpt>
      <trkpt lat="43.80686" lon="3.56294">
        <ele>643</ele>
        <time>2016-04-15T11:44:04Z</time>
      </trkpt>
      <trkpt lat="43.8069" lon="3.56291">
        <ele>643</ele>
        <time>2016-04-15T11:44:09Z</time>
      </trkpt>
      <trkpt lat="43.80694" lon="3.56288">
        <ele>644</ele>
        <time>2016-04-15T11:44:14Z</time>
      </trkpt>
      <trkpt lat="43.80697" lon="3.56283">
        <ele>644</ele>
        <time>2016-04-15T11:44:18Z</time>
      </trkpt>
      <trkpt lat="43.807" lon="3.56277">
        <ele>644</ele>
        <time>2016-04-15T11:44:22Z</time>
      </trkpt>
      <trkpt lat="43.80704" lon="3.56273">
        <ele>644</ele>
        <time>2016-04-15T11:44:27Z</time>
      </trkpt>
      <trkpt lat="43.80709" lon="3.5627">
        <ele>644</ele>
        <time>2016-04-15T11:44:32Z</time>
      </trkpt>
      <trkpt lat="43.80719" lon="3.56269">
        <ele>647</ele>
        <time>2016-04-15T11:44:42Z</time>
      </trkpt>
      <trkpt lat="43.80723" lon="3.56265">
        <ele>647</ele>
        <time>2016-04-15T11:44:48Z</time>
      </trkpt>
      <trkpt lat="43.80726" lon="3.5626">
        <ele>646</ele>
        <time>2016-04-15T11:44:55Z</time>
      </trkpt>
      <trkpt lat="43.8074" lon="3.56255">
        <ele>642</ele>
        <time>2016-04-15T11:45:13Z</time>
      </trkpt>
      <trkpt lat="43.80757" lon="3.56267">
        <ele>644</ele>
        <time>2016-04-15T11:45:30Z</time>
      </trkpt>
      <trkpt lat="43.80777" lon="3.56282">
        <ele>642</ele>
        <time>2016-04-15T11:46:05Z</time>
      </trkpt>
      <trkpt lat="43.80781" lon="3.56284">
        <ele>641</ele>
        <time>2016-04-15T11:46:10Z</time>
      </trkpt>
      <trkpt lat="43.80786" lon="3.56283">
        <ele>641</ele>
        <time>2016-04-15T11:46:15Z</time>
      </trkpt>
      <trkpt lat="43.80792" lon="3.56283">
        <ele>641</ele>
        <time>2016-04-15T11:46:20Z</time>
      </trkpt>
      <trkpt lat="43.80802" lon="3.56286">
        <ele>642</ele>
        <time>2016-04-15T11:46:29Z</time>
      </trkpt>
      <trkpt lat="43.80812" lon="3.5629">
        <ele>644</ele>
        <time>2016-04-15T11:46:39Z</time>
      </trkpt>
      <trkpt lat="43.80817" lon="3.5629">
        <ele>644</ele>
        <time>2016-04-15T11:46:44Z</time>
      </trkpt>
      <trkpt lat="43.80832" lon="3.56295">
        <ele>647</ele>
        <time>2016-04-15T11:46:58Z</time>
      </trkpt>
      <trkpt lat="43.80841" lon="3.56301">
        <ele>647</ele>
        <time>2016-04-15T11:47:08Z</time>
      </trkpt>
      <trkpt lat="43.80844" lon="3.56306">
        <ele>647</ele>
        <time>2016-04-15T11:47:13Z</time>
      </trkpt>
      <trkpt lat="43.80847" lon="3.5631">
        <ele>647</ele>
        <time>2016-04-15T11:47:18Z</time>
      </trkpt>
      <trkpt lat="43.80861" lon="3.56319">
        <ele>648</ele>
        <time>2016-04-15T11:47:33Z</time>
      </trkpt>
      <trkpt lat="43.80864" lon="3.56324">
        <ele>648</ele>
        <time>2016-04-15T11:47:37Z</time>
      </trkpt>
      <trkpt lat="43.80867" lon="3.5633">
        <ele>648</ele>
        <time>2016-04-15T11:47:42Z</time>
      </trkpt>
      <trkpt lat="43.8087" lon="3.56335">
        <ele>647</ele>
        <time>2016-04-15T11:47:47Z</time>
      </trkpt>
      <trkpt lat="43.80874" lon="3.56339">
        <ele>647</ele>
        <time>2016-04-15T11:47:53Z</time>
      </trkpt>
      <trkpt lat="43.80875" lon="3.56347">
        <ele>647</ele>
        <time>2016-04-15T11:47:59Z</time>
      </trkpt>
      <trkpt lat="43.80873" lon="3.5636">
        <ele>647</ele>
        <time>2016-04-15T11:48:09Z</time>
      </trkpt>
      <trkpt lat="43.80875" lon="3.56366">
        <ele>647</ele>
        <time>2016-04-15T11:48:14Z</time>
      </trkpt>
      <trkpt lat="43.80879" lon="3.56371">
        <ele>648</ele>
        <time>2016-04-15T11:48:19Z</time>
      </trkpt>
      <trkpt lat="43.80892" lon="3.56398">
        <ele>655</ele>
        <time>2016-04-15T11:48:49Z</time>
      </trkpt>
      <trkpt lat="43.80893" lon="3.56404">
        <ele>655</ele>
        <time>2016-04-15T11:48:55Z</time>
      </trkpt>
      <trkpt lat="43.80894" lon="3.56412">
        <ele>655</ele>
        <time>2016-04-15T11:49:01Z</time>
      </trkpt>
      <trkpt lat="43.80896" lon="3.56419">
        <ele>656</ele>
        <time>2016-04-15T11:49:06Z</time>
      </trkpt>
      <trkpt lat="43.80897" lon="3.56426">
        <ele>656</ele>
        <time>2016-04-15T11:49:11Z</time>
      </trkpt>
      <trkpt lat="43.80898" lon="3.56432">
        <ele>655</ele>
        <time>2016-04-15T11:49:15Z</time>
      </trkpt>
      <trkpt lat="43.80901" lon="3.56445">
        <ele>655</ele>
        <time>2016-04-15T11:49:23Z</time>
      </trkpt>
      <trkpt lat="43.80905" lon="3.56458">
        <ele>654</ele>
        <time>2016-04-15T11:49:32Z</time>
      </trkpt>
      <trkpt lat="43.80916" lon="3.56472">
        <ele>656</ele>
        <time>2016-04-15T11:49:46Z</time>
      </trkpt>
      <trkpt lat="43.8092" lon="3.56477">
        <ele>656</ele>
        <time>2016-04-15T11:49:51Z</time>
      </trkpt>
      <trkpt lat="43.80922" lon="3.56483">
        <ele>655</ele>
        <time>2016-04-15T11:49:55Z</time>
      </trkpt>
      <trkpt lat="43.80924" lon="3.56489">
        <ele>655</ele>
        <time>2016-04-15T11:49:59Z</time>
      </trkpt>
      <trkpt lat="43.80929" lon="3.565">
        <ele>657</ele>
        <time>2016-04-15T11:50:07Z</time>
      </trkpt>
      <trkpt lat="43.80931" lon="3.56507">
        <ele>657</ele>
        <time>2016-04-15T11:50:11Z</time>
      </trkpt>
      <trkpt lat="43.8093" lon="3.56514">
        <ele>657</ele>
        <time>2016-04-15T11:50:16Z</time>
      </trkpt>
      <trkpt lat="43.80929" lon="3.56527">
        <ele>655</ele>
        <time>2016-04-15T11:50:26Z</time>
      </trkpt>
      <trkpt lat="43.80933" lon="3.5654">
        <ele>654</ele>
        <time>2016-04-15T11:50:34Z</time>
      </trkpt>
      <trkpt lat="43.80933" lon="3.56548">
        <ele>654</ele>
        <time>2016-04-15T11:50:39Z</time>
      </trkpt>
      <trkpt lat="43.8093" lon="3.56589">
        <ele>647</ele>
        <time>2016-04-15T11:51:05Z</time>
      </trkpt>
      <trkpt lat="43.8093" lon="3.56596">
        <ele>647</ele>
        <time>2016-04-15T11:51:09Z</time>
      </trkpt>
      <trkpt lat="43.80929" lon="3.56602">
        <ele>647</ele>
        <time>2016-04-15T11:51:13Z</time>
      </trkpt>
      <trkpt lat="43.80924" lon="3.56615">
        <ele>646</ele>
        <time>2016-04-15T11:51:23Z</time>
      </trkpt>
      <trkpt lat="43.80925" lon="3.56621">
        <ele>644</ele>
        <time>2016-04-15T11:51:30Z</time>
      </trkpt>
      <trkpt lat="43.80929" lon="3.56634">
        <ele>643</ele>
        <time>2016-04-15T11:51:41Z</time>
      </trkpt>
      <trkpt lat="43.8093" lon="3.56641">
        <ele>644</ele>
        <time>2016-04-15T11:51:46Z</time>
      </trkpt>
      <trkpt lat="43.8093" lon="3.56644">
        <ele>644</ele>
        <time>2016-04-15T11:51:57Z</time>
      </trkpt>
      <trkpt lat="43.80933" lon="3.56651">
        <ele>644</ele>
        <time>2016-04-15T11:52:03Z</time>
      </trkpt>
      <trkpt lat="43.80935" lon="3.56657">
        <ele>642</ele>
        <time>2016-04-15T11:52:09Z</time>
      </trkpt>
      <trkpt lat="43.80946" lon="3.5667">
        <ele>642</ele>
        <time>2016-04-15T11:52:23Z</time>
      </trkpt>
      <trkpt lat="43.80951" lon="3.56675">
        <ele>643</ele>
        <time>2016-04-15T11:52:28Z</time>
      </trkpt>
      <trkpt lat="43.80955" lon="3.56679">
        <ele>644</ele>
        <time>2016-04-15T11:52:33Z</time>
      </trkpt>
      <trkpt lat="43.8098" lon="3.56697">
        <ele>651</ele>
        <time>2016-04-15T11:53:07Z</time>
      </trkpt>
      <trkpt lat="43.80985" lon="3.567">
        <ele>654</ele>
        <time>2016-04-15T11:53:15Z</time>
      </trkpt>
      <trkpt lat="43.80989" lon="3.56703">
        <ele>654</ele>
        <time>2016-04-15T11:53:22Z</time>
      </trkpt>
      <trkpt lat="43.80993" lon="3.56707">
        <ele>655</ele>
        <time>2016-04-15T11:53:30Z</time>
      </trkpt>
      <trkpt lat="43.80995" lon="3.56713">
        <ele>656</ele>
        <time>2016-04-15T11:53:37Z</time>
      </trkpt>
      <trkpt lat="43.80996" lon="3.5672">
        <ele>656</ele>
        <time>2016-04-15T11:53:43Z</time>
      </trkpt>
      <trkpt lat="43.80999" lon="3.56725">
        <ele>655</ele>
        <time>2016-04-15T11:53:49Z</time>
      </trkpt>
      <trkpt lat="43.81003" lon="3.56729">
        <ele>654</ele>
        <time>2016-04-15T11:53:54Z</time>
      </trkpt>
      <trkpt lat="43.81003" lon="3.56736">
        <ele>653</ele>
        <time>2016-04-15T11:54:00Z</time>
      </trkpt>
      <trkpt lat="43.81007" lon="3.5674">
        <ele>653</ele>
        <time>2016-04-15T11:54:06Z</time>
      </trkpt>
      <trkpt lat="43.81009" lon="3.56747">
        <ele>653</ele>
        <time>2016-04-15T11:54:13Z</time>
      </trkpt>
      <trkpt lat="43.81012" lon="3.56752">
        <ele>652</ele>
        <time>2016-04-15T11:54:18Z</time>
      </trkpt>
      <trkpt lat="43.81016" lon="3.56755">
        <ele>652</ele>
        <time>2016-04-15T11:54:24Z</time>
      </trkpt>
      <trkpt lat="43.81023" lon="3.56765">
        <ele>653</ele>
        <time>2016-04-15T11:54:37Z</time>
      </trkpt>
      <trkpt lat="43.81027" lon="3.5677">
        <ele>653</ele>
        <time>2016-04-15T11:54:42Z</time>
      </trkpt>
      <trkpt lat="43.81031" lon="3.56773">
        <ele>653</ele>
        <time>2016-04-15T11:54:47Z</time>
      </trkpt>
      <trkpt lat="43.81036" lon="3.56775">
        <ele>653</ele>
        <time>2016-04-15T11:54:53Z</time>
      </trkpt>
      <trkpt lat="43.81039" lon="3.5678">
        <ele>657</ele>
        <time>2016-04-15T11:55:03Z</time>
      </trkpt>
      <trkpt lat="43.81044" lon="3.56781">
        <ele>659</ele>
        <time>2016-04-15T11:55:10Z</time>
      </trkpt>
      <trkpt lat="43.81047" lon="3.56785">
        <ele>662</ele>
        <time>2016-04-15T11:55:20Z</time>
      </trkpt>
      <trkpt lat="43.81049" lon="3.56779">
        <ele>663</ele>
        <time>2016-04-15T11:55:27Z</time>
      </trkpt>
      <trkpt lat="43.81049" lon="3.56775">
        <ele>663</ele>
        <time>2016-04-15T11:55:34Z</time>
      </trkpt>
      <trkpt lat="43.81054" lon="3.56774">
        <ele>663</ele>
        <time>2016-04-15T11:55:44Z</time>
      </trkpt>
      <trkpt lat="43.81057" lon="3.56779">
        <ele>663</ele>
        <time>2016-04-15T11:55:50Z</time>
      </trkpt>
      <trkpt lat="43.81062" lon="3.56781">
        <ele>664</ele>
        <time>2016-04-15T11:55:56Z</time>
      </trkpt>
      <trkpt lat="43.81066" lon="3.56779">
        <ele>665</ele>
        <time>2016-04-15T11:56:04Z</time>
      </trkpt>
      <trkpt lat="43.81069" lon="3.56776">
        <ele>667</ele>
        <time>2016-04-15T11:56:13Z</time>
      </trkpt>
      <trkpt lat="43.81074" lon="3.56782">
        <ele>669</ele>
        <time>2016-04-15T11:56:25Z</time>
      </trkpt>
      <trkpt lat="43.81078" lon="3.56786">
        <ele>670</ele>
        <time>2016-04-15T11:56:31Z</time>
      </trkpt>
      <trkpt lat="43.81082" lon="3.5679">
        <ele>670</ele>
        <time>2016-04-15T11:56:37Z</time>
      </trkpt>
      <trkpt lat="43.81087" lon="3.56791">
        <ele>670</ele>
        <time>2016-04-15T11:56:44Z</time>
      </trkpt>
      <trkpt lat="43.81091" lon="3.56794">
        <ele>670</ele>
        <time>2016-04-15T11:56:54Z</time>
      </trkpt>
      <trkpt lat="43.81093" lon="3.56796">
        <ele>669</ele>
        <time>2016-04-15T11:57:00Z</time>
      </trkpt>
      <trkpt lat="43.81097" lon="3.56795">
        <ele>669</ele>
        <time>2016-04-15T11:57:09Z</time>
      </trkpt>
      <trkpt lat="43.81101" lon="3.56795">
        <ele>673</ele>
        <time>2016-04-15T11:57:23Z</time>
      </trkpt>
      <trkpt lat="43.81109" lon="3.56805">
        <ele>673</ele>
        <time>2016-04-15T11:57:42Z</time>
      </trkpt>
      <trkpt lat="43.81113" lon="3.5681">
        <ele>673</ele>
        <time>2016-04-15T11:57:48Z</time>
      </trkpt>
      <trkpt lat="43.8112" lon="3.5682">
        <ele>674</ele>
        <time>2016-04-15T11:57:59Z</time>
      </trkpt>
      <trkpt lat="43.81129" lon="3.56826">
        <ele>675</ele>
        <time>2016-04-15T11:58:09Z</time>
      </trkpt>
      <trkpt lat="43.81133" lon="3.5683">
        <ele>675</ele>
        <time>2016-04-15T11:58:14Z</time>
      </trkpt>
      <trkpt lat="43.81137" lon="3.56834">
        <ele>675</ele>
        <time>2016-04-15T11:58:19Z</time>
      </trkpt>
      <trkpt lat="43.8115" lon="3.56844">
        <ele>677</ele>
        <time>2016-04-15T11:58:33Z</time>
      </trkpt>
      <trkpt lat="43.81156" lon="3.56846">
        <ele>677</ele>
        <time>2016-04-15T11:58:38Z</time>
      </trkpt>
      <trkpt lat="43.8116" lon="3.56849">
        <ele>677</ele>
        <time>2016-04-15T11:58:43Z</time>
      </trkpt>
      <trkpt lat="43.81166" lon="3.56858">
        <ele>677</ele>
        <time>2016-04-15T11:58:51Z</time>
      </trkpt>
      <trkpt lat="43.81175" lon="3.56866">
        <ele>676</ele>
        <time>2016-04-15T11:59:00Z</time>
      </trkpt>
      <trkpt lat="43.81179" lon="3.56869">
        <ele>676</ele>
        <time>2016-04-15T11:59:05Z</time>
      </trkpt>
      <trkpt lat="43.81184" lon="3.56871">
        <ele>676</ele>
        <time>2016-04-15T11:59:11Z</time>
      </trkpt>
      <trkpt lat="43.81188" lon="3.56876">
        <ele>675</ele>
        <time>2016-04-15T11:59:16Z</time>
      </trkpt>
      <trkpt lat="43.81192" lon="3.56881">
        <ele>675</ele>
        <time>2016-04-15T11:59:21Z</time>
      </trkpt>
      <trkpt lat="43.81196" lon="3.56886">
        <ele>674</ele>
        <time>2016-04-15T11:59:26Z</time>
      </trkpt>
      <trkpt lat="43.812" lon="3.5689">
        <ele>674</ele>
        <time>2016-04-15T11:59:31Z</time>
      </trkpt>
      <trkpt lat="43.81209" lon="3.56894">
        <ele>674</ele>
        <time>2016-04-15T11:59:40Z</time>
      </trkpt>
      <trkpt lat="43.81218" lon="3.56899">
        <ele>679</ele>
        <time>2016-04-15T11:59:52Z</time>
      </trkpt>
      <trkpt lat="43.81223" lon="3.56899">
        <ele>680</ele>
        <time>2016-04-15T11:59:59Z</time>
      </trkpt>
      <trkpt lat="43.81226" lon="3.56904">
        <ele>681</ele>
        <time>2016-04-15T12:00:04Z</time>
      </trkpt>
      <trkpt lat="43.81235" lon="3.56922">
        <ele>677</ele>
        <time>2016-04-15T12:00:19Z</time>
      </trkpt>
      <trkpt lat="43.81243" lon="3.56931">
        <ele>678</ele>
        <time>2016-04-15T12:00:28Z</time>
      </trkpt>
      <trkpt lat="43.81247" lon="3.56936">
        <ele>677</ele>
        <time>2016-04-15T12:00:32Z</time>
      </trkpt>
      <trkpt lat="43.8125" lon="3.56941">
        <ele>677</ele>
        <time>2016-04-15T12:00:36Z</time>
      </trkpt>
      <trkpt lat="43.81268" lon="3.56966">
        <ele>679</ele>
        <time>2016-04-15T12:01:02Z</time>
      </trkpt>
      <trkpt lat="43.81269" lon="3.56973">
        <ele>679</ele>
        <time>2016-04-15T12:01:07Z</time>
      </trkpt>
      <trkpt lat="43.81271" lon="3.56979">
        <ele>678</ele>
        <time>2016-04-15T12:01:11Z</time>
      </trkpt>
      <trkpt lat="43.81275" lon="3.56984">
        <ele>678</ele>
        <time>2016-04-15T12:01:15Z</time>
      </trkpt>
      <trkpt lat="43.81281" lon="3.56993">
        <ele>679</ele>
        <time>2016-04-15T12:01:25Z</time>
      </trkpt>
      <trkpt lat="43.81288" lon="3.57004">
        <ele>680</ele>
        <time>2016-04-15T12:01:36Z</time>
      </trkpt>
      <trkpt lat="43.81292" lon="3.57007">
        <ele>680</ele>
        <time>2016-04-15T12:01:40Z</time>
      </trkpt>
      <trkpt lat="43.813" lon="3.57015">
        <ele>679</ele>
        <time>2016-04-15T12:01:48Z</time>
      </trkpt>
      <trkpt lat="43.81303" lon="3.5702">
        <ele>679</ele>
        <time>2016-04-15T12:01:52Z</time>
      </trkpt>
      <trkpt lat="43.81306" lon="3.57026">
        <ele>679</ele>
        <time>2016-04-15T12:01:57Z</time>
      </trkpt>
      <trkpt lat="43.81311" lon="3.57028">
        <ele>679</ele>
        <time>2016-04-15T12:02:02Z</time>
      </trkpt>
      <trkpt lat="43.81318" lon="3.57038">
        <ele>678</ele>
        <time>2016-04-15T12:02:11Z</time>
      </trkpt>
      <trkpt lat="43.81321" lon="3.57045">
        <ele>678</ele>
        <time>2016-04-15T12:02:16Z</time>
      </trkpt>
      <trkpt lat="43.81326" lon="3.57047">
        <ele>678</ele>
        <time>2016-04-15T12:02:21Z</time>
      </trkpt>
      <trkpt lat="43.81331" lon="3.57048">
        <ele>679</ele>
        <time>2016-04-15T12:02:26Z</time>
      </trkpt>
      <trkpt lat="43.81344" lon="3.57057">
        <ele>677</ele>
        <time>2016-04-15T12:02:39Z</time>
      </trkpt>
      <trkpt lat="43.81349" lon="3.57061">
        <ele>677</ele>
        <time>2016-04-15T12:02:44Z</time>
      </trkpt>
      <trkpt lat="43.81354" lon="3.57064">
        <ele>677</ele>
        <time>2016-04-15T12:02:49Z</time>
      </trkpt>
      <trkpt lat="43.81362" lon="3.57069">
        <ele>679</ele>
        <time>2016-04-15T12:02:59Z</time>
      </trkpt>
      <trkpt lat="43.81374" lon="3.57083">
        <ele>679</ele>
        <time>2016-04-15T12:03:14Z</time>
      </trkpt>
      <trkpt lat="43.81376" lon="3.57089">
        <ele>678</ele>
        <time>2016-04-15T12:03:19Z</time>
      </trkpt>
      <trkpt lat="43.81386" lon="3.57103">
        <ele>681</ele>
        <time>2016-04-15T12:03:34Z</time>
      </trkpt>
      <trkpt lat="43.81389" lon="3.57109">
        <ele>680</ele>
        <time>2016-04-15T12:03:41Z</time>
      </trkpt>
      <trkpt lat="43.81393" lon="3.57113">
        <ele>682</ele>
        <time>2016-04-15T12:03:47Z</time>
      </trkpt>
      <trkpt lat="43.81392" lon="3.5712">
        <ele>682</ele>
        <time>2016-04-15T12:03:53Z</time>
      </trkpt>
      <trkpt lat="43.81396" lon="3.57125">
        <ele>683</ele>
        <time>2016-04-15T12:04:00Z</time>
      </trkpt>
      <trkpt lat="43.81403" lon="3.57134">
        <ele>682</ele>
        <time>2016-04-15T12:04:12Z</time>
      </trkpt>
      <trkpt lat="43.81419" lon="3.57156">
        <ele>685</ele>
        <time>2016-04-15T12:04:45Z</time>
      </trkpt>
      <trkpt lat="43.81423" lon="3.5716">
        <ele>686</ele>
        <time>2016-04-15T12:04:50Z</time>
      </trkpt>
      <trkpt lat="43.81426" lon="3.57165">
        <ele>687</ele>
        <time>2016-04-15T12:04:55Z</time>
      </trkpt>
      <trkpt lat="43.8143" lon="3.5717">
        <ele>686</ele>
        <time>2016-04-15T12:05:00Z</time>
      </trkpt>
      <trkpt lat="43.8144" lon="3.57186">
        <ele>685</ele>
        <time>2016-04-15T12:05:15Z</time>
      </trkpt>
      <trkpt lat="43.81443" lon="3.57191">
        <ele>686</ele>
        <time>2016-04-15T12:05:20Z</time>
      </trkpt>
      <trkpt lat="43.81449" lon="3.57191">
        <ele>686</ele>
        <time>2016-04-15T12:05:25Z</time>
      </trkpt>
      <trkpt lat="43.81454" lon="3.57192">
        <ele>686</ele>
        <time>2016-04-15T12:05:30Z</time>
      </trkpt>
      <trkpt lat="43.8146" lon="3.57192">
        <ele>686</ele>
        <time>2016-04-15T12:05:35Z</time>
      </trkpt>
      <trkpt lat="43.81464" lon="3.5719">
        <ele>685</ele>
        <time>2016-04-15T12:05:41Z</time>
      </trkpt>
      <trkpt lat="43.8147" lon="3.57188">
        <ele>684</ele>
        <time>2016-04-15T12:05:47Z</time>
      </trkpt>
      <trkpt lat="43.81474" lon="3.57187">
        <ele>684</ele>
        <time>2016-04-15T12:05:51Z</time>
      </trkpt>
      <trkpt lat="43.81484" lon="3.5719">
        <ele>684</ele>
        <time>2016-04-15T12:06:00Z</time>
      </trkpt>
      <trkpt lat="43.81489" lon="3.5719">
        <ele>684</ele>
        <time>2016-04-15T12:06:04Z</time>
      </trkpt>
      <trkpt lat="43.81493" lon="3.57191">
        <ele>684</ele>
        <time>2016-04-15T12:06:08Z</time>
      </trkpt>
      <trkpt lat="43.81498" lon="3.57192">
        <ele>684</ele>
        <time>2016-04-15T12:06:12Z</time>
      </trkpt>
      <trkpt lat="43.81502" lon="3.5719">
        <ele>683</ele>
        <time>2016-04-15T12:06:16Z</time>
      </trkpt>
      <trkpt lat="43.81531" lon="3.57193">
        <ele>687</ele>
        <time>2016-04-15T12:06:41Z</time>
      </trkpt>
      <trkpt lat="43.81535" lon="3.57189">
        <ele>688</ele>
        <time>2016-04-15T12:06:46Z</time>
      </trkpt>
      <trkpt lat="43.81538" lon="3.57184">
        <ele>689</ele>
        <time>2016-04-15T12:06:51Z</time>
      </trkpt>
      <trkpt lat="43.81542" lon="3.5718">
        <ele>689</ele>
        <time>2016-04-15T12:06:57Z</time>
      </trkpt>
      <trkpt lat="43.81546" lon="3.57179">
        <ele>689</ele>
        <time>2016-04-15T12:07:03Z</time>
      </trkpt>
      <trkpt lat="43.8156" lon="3.57184">
        <ele>692</ele>
        <time>2016-04-15T12:07:18Z</time>
      </trkpt>
      <trkpt lat="43.81565" lon="3.57186">
        <ele>692</ele>
        <time>2016-04-15T12:07:23Z</time>
      </trkpt>
      <trkpt lat="43.8157" lon="3.57186">
        <ele>691</ele>
        <time>2016-04-15T12:07:29Z</time>
      </trkpt>
      <trkpt lat="43.81574" lon="3.57182">
        <ele>691</ele>
        <time>2016-04-15T12:07:34Z</time>
      </trkpt>
      <trkpt lat="43.81577" lon="3.57178">
        <ele>691</ele>
        <time>2016-04-15T12:07:40Z</time>
      </trkpt>
      <trkpt lat="43.8158" lon="3.57173">
        <ele>691</ele>
        <time>2016-04-15T12:07:47Z</time>
      </trkpt>
      <trkpt lat="43.81585" lon="3.57169">
        <ele>692</ele>
        <time>2016-04-15T12:07:55Z</time>
      </trkpt>
      <trkpt lat="43.8159" lon="3.57168">
        <ele>693</ele>
        <time>2016-04-15T12:08:01Z</time>
      </trkpt>
      <trkpt lat="43.81609" lon="3.57176">
        <ele>696</ele>
        <time>2016-04-15T12:08:21Z</time>
      </trkpt>
      <trkpt lat="43.81614" lon="3.57178">
        <ele>696</ele>
        <time>2016-04-15T12:08:26Z</time>
      </trkpt>
      <trkpt lat="43.81628" lon="3.57185">
        <ele>693</ele>
        <time>2016-04-15T12:08:41Z</time>
      </trkpt>
      <trkpt lat="43.81632" lon="3.57188">
        <ele>693</ele>
        <time>2016-04-15T12:08:46Z</time>
      </trkpt>
      <trkpt lat="43.81651" lon="3.57195">
        <ele>694</ele>
        <time>2016-04-15T12:09:06Z</time>
      </trkpt>
      <trkpt lat="43.81654" lon="3.57199">
        <ele>694</ele>
        <time>2016-04-15T12:09:10Z</time>
      </trkpt>
      <trkpt lat="43.81658" lon="3.57204">
        <ele>694</ele>
        <time>2016-04-15T12:09:14Z</time>
      </trkpt>
      <trkpt lat="43.81663" lon="3.57204">
        <ele>695</ele>
        <time>2016-04-15T12:09:19Z</time>
      </trkpt>
      <trkpt lat="43.81666" lon="3.57199">
        <ele>696</ele>
        <time>2016-04-15T12:09:24Z</time>
      </trkpt>
      <trkpt lat="43.81671" lon="3.57198">
        <ele>697</ele>
        <time>2016-04-15T12:09:30Z</time>
      </trkpt>
      <trkpt lat="43.8168" lon="3.57203">
        <ele>696</ele>
        <time>2016-04-15T12:09:40Z</time>
      </trkpt>
      <trkpt lat="43.81685" lon="3.57201">
        <ele>696</ele>
        <time>2016-04-15T12:09:46Z</time>
      </trkpt>
      <trkpt lat="43.81694" lon="3.57205">
        <ele>695</ele>
        <time>2016-04-15T12:09:56Z</time>
      </trkpt>
      <trkpt lat="43.81703" lon="3.57203">
        <ele>694</ele>
        <time>2016-04-15T12:10:06Z</time>
      </trkpt>
      <trkpt lat="43.81708" lon="3.57199">
        <ele>693</ele>
        <time>2016-04-15T12:10:28Z</time>
      </trkpt>
      <trkpt lat="43.81722" lon="3.57192">
        <ele>692</ele>
        <time>2016-04-15T12:10:41Z</time>
      </trkpt>
      <trkpt lat="43.81746" lon="3.57188">
        <ele>687</ele>
        <time>2016-04-15T12:11:05Z</time>
      </trkpt>
      <trkpt lat="43.81756" lon="3.57183">
        <ele>688</ele>
        <time>2016-04-15T12:11:13Z</time>
      </trkpt>
      <trkpt lat="43.81761" lon="3.57181">
        <ele>688</ele>
        <time>2016-04-15T12:11:17Z</time>
      </trkpt>
      <trkpt lat="43.81781" lon="3.57182">
        <ele>692</ele>
        <time>2016-04-15T12:11:33Z</time>
      </trkpt>
      <trkpt lat="43.81784" lon="3.57177">
        <ele>692</ele>
        <time>2016-04-15T12:11:37Z</time>
      </trkpt>
      <trkpt lat="43.81797" lon="3.57167">
        <ele>690</ele>
        <time>2016-04-15T12:11:49Z</time>
      </trkpt>
      <trkpt lat="43.81802" lon="3.57167">
        <ele>690</ele>
        <time>2016-04-15T12:11:54Z</time>
      </trkpt>
      <trkpt lat="43.81805" lon="3.57161">
        <ele>690</ele>
        <time>2016-04-15T12:11:59Z</time>
      </trkpt>
      <trkpt lat="43.81808" lon="3.57156">
        <ele>689</ele>
        <time>2016-04-15T12:12:05Z</time>
      </trkpt>
      <trkpt lat="43.81813" lon="3.57158">
        <ele>690</ele>
        <time>2016-04-15T12:12:10Z</time>
      </trkpt>
      <trkpt lat="43.81818" lon="3.57157">
        <ele>690</ele>
        <time>2016-04-15T12:12:15Z</time>
      </trkpt>
      <trkpt lat="43.81823" lon="3.57157">
        <ele>690</ele>
        <time>2016-04-15T12:12:22Z</time>
      </trkpt>
      <trkpt lat="43.81832" lon="3.57151">
        <ele>688</ele>
        <time>2016-04-15T12:12:36Z</time>
      </trkpt>
      <trkpt lat="43.81836" lon="3.57155">
        <ele>687</ele>
        <time>2016-04-15T12:12:44Z</time>
      </trkpt>
      <trkpt lat="43.81841" lon="3.57153">
        <ele>687</ele>
        <time>2016-04-15T12:12:51Z</time>
      </trkpt>
      <trkpt lat="43.81849" lon="3.57148">
        <ele>688</ele>
        <time>2016-04-15T12:13:01Z</time>
      </trkpt>
      <trkpt lat="43.81853" lon="3.57144">
        <ele>688</ele>
        <time>2016-04-15T12:13:06Z</time>
      </trkpt>
      <trkpt lat="43.81863" lon="3.57144">
        <ele>686</ele>
        <time>2016-04-15T12:13:16Z</time>
      </trkpt>
      <trkpt lat="43.81868" lon="3.57145">
        <ele>686</ele>
        <time>2016-04-15T12:13:20Z</time>
      </trkpt>
      <trkpt lat="43.81873" lon="3.57144">
        <ele>686</ele>
        <time>2016-04-15T12:13:25Z</time>
      </trkpt>
      <trkpt lat="43.81877" lon="3.57139">
        <ele>686</ele>
        <time>2016-04-15T12:13:29Z</time>
      </trkpt>
      <trkpt lat="43.81885" lon="3.5713">
        <ele>685</ele>
        <time>2016-04-15T12:13:38Z</time>
      </trkpt>
      <trkpt lat="43.81889" lon="3.57126">
        <ele>684</ele>
        <time>2016-04-15T12:13:43Z</time>
      </trkpt>
      <trkpt lat="43.81894" lon="3.57126">
        <ele>685</ele>
        <time>2016-04-15T12:13:47Z</time>
      </trkpt>
      <trkpt lat="43.81899" lon="3.57127">
        <ele>685</ele>
        <time>2016-04-15T12:13:51Z</time>
      </trkpt>
      <trkpt lat="43.81909" lon="3.57141">
        <ele>683</ele>
        <time>2016-04-15T12:14:03Z</time>
      </trkpt>
      <trkpt lat="43.81911" lon="3.57148">
        <ele>682</ele>
        <time>2016-04-15T12:14:08Z</time>
      </trkpt>
      <trkpt lat="43.81915" lon="3.57154">
        <ele>681</ele>
        <time>2016-04-15T12:14:13Z</time>
      </trkpt>
      <trkpt lat="43.81919" lon="3.57154">
        <ele>682</ele>
        <time>2016-04-15T12:14:17Z</time>
      </trkpt>
      <trkpt lat="43.81929" lon="3.5715">
        <ele>684</ele>
        <time>2016-04-15T12:14:27Z</time>
      </trkpt>
      <trkpt lat="43.81938" lon="3.57151">
        <ele>685</ele>
        <time>2016-04-15T12:14:43Z</time>
      </trkpt>
      <trkpt lat="43.81944" lon="3.5715">
        <ele>685</ele>
        <time>2016-04-15T12:14:55Z</time>
      </trkpt>
      <trkpt lat="43.81953" lon="3.57148">
        <ele>685</ele>
        <time>2016-04-15T12:15:12Z</time>
      </trkpt>
      <trkpt lat="43.81964" lon="3.57142">
        <ele>680</ele>
        <time>2016-04-15T12:15:58Z</time>
      </trkpt>
      <trkpt lat="43.81971" lon="3.57133">
        <ele>679</ele>
        <time>2016-04-15T12:16:13Z</time>
      </trkpt>
      <trkpt lat="43.81975" lon="3.57129">
        <ele>679</ele>
        <time>2016-04-15T12:16:20Z</time>
      </trkpt>
      <trkpt lat="43.81986" lon="3.57117">
        <ele>681</ele>
        <time>2016-04-15T12:16:36Z</time>
      </trkpt>
      <trkpt lat="43.81993" lon="3.57106">
        <ele>680</ele>
        <time>2016-04-15T12:16:47Z</time>
      </trkpt>
      <trkpt lat="43.81997" lon="3.57102">
        <ele>681</ele>
        <time>2016-04-15T12:16:52Z</time>
      </trkpt>
      <trkpt lat="43.82008" lon="3.57087">
        <ele>678</ele>
        <time>2016-04-15T12:17:07Z</time>
      </trkpt>
      <trkpt lat="43.82012" lon="3.57083">
        <ele>678</ele>
        <time>2016-04-15T12:17:11Z</time>
      </trkpt>
      <trkpt lat="43.82027" lon="3.57082">
        <ele>678</ele>
        <time>2016-04-15T12:17:24Z</time>
      </trkpt>
      <trkpt lat="43.82035" lon="3.57089">
        <ele>679</ele>
        <time>2016-04-15T12:17:34Z</time>
      </trkpt>
      <trkpt lat="43.82042" lon="3.57099">
        <ele>678</ele>
        <time>2016-04-15T12:17:44Z</time>
      </trkpt>
      <trkpt lat="43.82043" lon="3.57112">
        <ele>677</ele>
        <time>2016-04-15T12:17:53Z</time>
      </trkpt>
      <trkpt lat="43.82044" lon="3.57119">
        <ele>677</ele>
        <time>2016-04-15T12:17:58Z</time>
      </trkpt>
      <trkpt lat="43.82048" lon="3.57124">
        <ele>676</ele>
        <time>2016-04-15T12:18:03Z</time>
      </trkpt>
      <trkpt lat="43.82051" lon="3.57137">
        <ele>673</ele>
        <time>2016-04-15T12:18:14Z</time>
      </trkpt>
      <trkpt lat="43.82048" lon="3.57142">
        <ele>672</ele>
        <time>2016-04-15T12:18:21Z</time>
      </trkpt>
      <trkpt lat="43.82048" lon="3.57149">
        <ele>671</ele>
        <time>2016-04-15T12:18:28Z</time>
      </trkpt>
      <trkpt lat="43.82051" lon="3.57155">
        <ele>669</ele>
        <time>2016-04-15T12:18:33Z</time>
      </trkpt>
      <trkpt lat="43.82056" lon="3.5716">
        <ele>668</ele>
        <time>2016-04-15T12:18:38Z</time>
      </trkpt>
      <trkpt lat="43.82059" lon="3.57165">
        <ele>668</ele>
        <time>2016-04-15T12:18:43Z</time>
      </trkpt>
      <trkpt lat="43.82061" lon="3.57172">
        <ele>667</ele>
        <time>2016-04-15T12:18:49Z</time>
      </trkpt>
      <trkpt lat="43.82065" lon="3.57176">
        <ele>666</ele>
        <time>2016-04-15T12:18:54Z</time>
      </trkpt>
      <trkpt lat="43.82068" lon="3.57181">
        <ele>666</ele>
        <time>2016-04-15T12:18:58Z</time>
      </trkpt>
      <trkpt lat="43.82071" lon="3.57187">
        <ele>666</ele>
        <time>2016-04-15T12:19:03Z</time>
      </trkpt>
      <trkpt lat="43.8208" lon="3.57194">
        <ele>667</ele>
        <time>2016-04-15T12:19:13Z</time>
      </trkpt>
      <trkpt lat="43.82082" lon="3.572">
        <ele>666</ele>
        <time>2016-04-15T12:19:19Z</time>
      </trkpt>
      <trkpt lat="43.82094" lon="3.57209">
        <ele>668</ele>
        <time>2016-04-15T12:19:38Z</time>
      </trkpt>
      <trkpt lat="43.82099" lon="3.57208">
        <ele>669</ele>
        <time>2016-04-15T12:19:43Z</time>
      </trkpt>
      <trkpt lat="43.82104" lon="3.5721">
        <ele>668</ele>
        <time>2016-04-15T12:19:48Z</time>
      </trkpt>
      <trkpt lat="43.82107" lon="3.57214">
        <ele>668</ele>
        <time>2016-04-15T12:19:52Z</time>
      </trkpt>
      <trkpt lat="43.82111" lon="3.57218">
        <ele>667</ele>
        <time>2016-04-15T12:19:57Z</time>
      </trkpt>
      <trkpt lat="43.82116" lon="3.57222">
        <ele>667</ele>
        <time>2016-04-15T12:20:03Z</time>
      </trkpt>
      <trkpt lat="43.82119" lon="3.57226">
        <ele>666</ele>
        <time>2016-04-15T12:20:08Z</time>
      </trkpt>
      <trkpt lat="43.82124" lon="3.5723">
        <ele>666</ele>
        <time>2016-04-15T12:20:13Z</time>
      </trkpt>
      <trkpt lat="43.82137" lon="3.57239">
        <ele>668</ele>
        <time>2016-04-15T12:20:28Z</time>
      </trkpt>
      <trkpt lat="43.82143" lon="3.57242">
        <ele>668</ele>
        <time>2016-04-15T12:20:40Z</time>
      </trkpt>
      <trkpt lat="43.82147" lon="3.57243">
        <ele>668</ele>
        <time>2016-04-15T12:20:46Z</time>
      </trkpt>
      <trkpt lat="43.82157" lon="3.57249">
        <ele>669</ele>
        <time>2016-04-15T12:20:56Z</time>
      </trkpt>
      <trkpt lat="43.82162" lon="3.57249">
        <ele>670</ele>
        <time>2016-04-15T12:21:00Z</time>
      </trkpt>
      <trkpt lat="43.82175" lon="3.57246">
        <ele>670</ele>
        <time>2016-04-15T12:21:15Z</time>
      </trkpt>
      <trkpt lat="43.8218" lon="3.5725">
        <ele>669</ele>
        <time>2016-04-15T12:21:20Z</time>
      </trkpt>
      <trkpt lat="43.82183" lon="3.57256">
        <ele>669</ele>
        <time>2016-04-15T12:21:25Z</time>
      </trkpt>
      <trkpt lat="43.82184" lon="3.57262">
        <ele>669</ele>
        <time>2016-04-15T12:21:30Z</time>
      </trkpt>
      <trkpt lat="43.82188" lon="3.57267">
        <ele>669</ele>
        <time>2016-04-15T12:21:36Z</time>
      </trkpt>
      <trkpt lat="43.82192" lon="3.5727">
        <ele>669</ele>
        <time>2016-04-15T12:21:43Z</time>
      </trkpt>
      <trkpt lat="43.82197" lon="3.5727">
        <ele>669</ele>
        <time>2016-04-15T12:21:49Z</time>
      </trkpt>
      <trkpt lat="43.82197" lon="3.57276">
        <ele>668</ele>
        <time>2016-04-15T12:21:55Z</time>
      </trkpt>
      <trkpt lat="43.82199" lon="3.57283">
        <ele>667</ele>
        <time>2016-04-15T12:22:01Z</time>
      </trkpt>
      <trkpt lat="43.82208" lon="3.57314">
        <ele>663</ele>
        <time>2016-04-15T12:22:26Z</time>
      </trkpt>
      <trkpt lat="43.8221" lon="3.57321">
        <ele>663</ele>
        <time>2016-04-15T12:22:31Z</time>
      </trkpt>
      <trkpt lat="43.82213" lon="3.57341">
        <ele>660</ele>
        <time>2016-04-15T12:22:46Z</time>
      </trkpt>
      <trkpt lat="43.82213" lon="3.57348">
        <ele>661</ele>
        <time>2016-04-15T12:22:51Z</time>
      </trkpt>
      <trkpt lat="43.82214" lon="3.57361">
        <ele>660</ele>
        <time>2016-04-15T12:23:00Z</time>
      </trkpt>
      <trkpt lat="43.82214" lon="3.57368">
        <ele>661</ele>
        <time>2016-04-15T12:23:05Z</time>
      </trkpt>
      <trkpt lat="43.82215" lon="3.57374">
        <ele>660</ele>
        <time>2016-04-15T12:23:10Z</time>
      </trkpt>
      <trkpt lat="43.82215" lon="3.57381">
        <ele>659</ele>
        <time>2016-04-15T12:23:19Z</time>
      </trkpt>
      <trkpt lat="43.82216" lon="3.57384">
        <ele>659</ele>
        <time>2016-04-15T12:23:25Z</time>
      </trkpt>
      <trkpt lat="43.82218" lon="3.57395">
        <ele>659</ele>
        <time>2016-04-15T12:23:44Z</time>
      </trkpt>
      <trkpt lat="43.82218" lon="3.57396">
        <ele>659</ele>
        <time>2016-04-15T12:24:05Z</time>
      </trkpt>
      <trkpt lat="43.82225" lon="3.57397">
        <ele>661</ele>
        <time>2016-04-15T12:24:17Z</time>
      </trkpt>
      <trkpt lat="43.82244" lon="3.57404">
        <ele>665</ele>
        <time>2016-04-15T12:24:39Z</time>
      </trkpt>
      <trkpt lat="43.82249" lon="3.57406">
        <ele>665</ele>
        <time>2016-04-15T12:24:44Z</time>
      </trkpt>
      <trkpt lat="43.8226" lon="3.57408">
        <ele>665</ele>
        <time>2016-04-15T12:24:54Z</time>
      </trkpt>
      <trkpt lat="43.82273" lon="3.57416">
        <ele>664</ele>
        <time>2016-04-15T12:25:08Z</time>
      </trkpt>
      <trkpt lat="43.82277" lon="3.5742">
        <ele>664</ele>
        <time>2016-04-15T12:25:13Z</time>
      </trkpt>
      <trkpt lat="43.82281" lon="3.57423">
        <ele>663</ele>
        <time>2016-04-15T12:25:18Z</time>
      </trkpt>
      <trkpt lat="43.82286" lon="3.57422">
        <ele>663</ele>
        <time>2016-04-15T12:25:23Z</time>
      </trkpt>
      <trkpt lat="43.82295" lon="3.57426">
        <ele>663</ele>
        <time>2016-04-15T12:25:35Z</time>
      </trkpt>
      <trkpt lat="43.82299" lon="3.5743">
        <ele>661</ele>
        <time>2016-04-15T12:25:42Z</time>
      </trkpt>
      <trkpt lat="43.82311" lon="3.5744">
        <ele>660</ele>
        <time>2016-04-15T12:26:02Z</time>
      </trkpt>
      <trkpt lat="43.82316" lon="3.57443">
        <ele>658</ele>
        <time>2016-04-15T12:26:09Z</time>
      </trkpt>
      <trkpt lat="43.8232" lon="3.57445">
        <ele>658</ele>
        <time>2016-04-15T12:26:16Z</time>
      </trkpt>
      <trkpt lat="43.82321" lon="3.57443">
        <ele>651</ele>
        <time>2016-04-15T12:30:20Z</time>
      </trkpt>
      <trkpt lat="43.82328" lon="3.57445">
        <ele>652</ele>
        <time>2016-04-15T12:30:39Z</time>
      </trkpt>
      <trkpt lat="43.82332" lon="3.57445">
        <ele>652</ele>
        <time>2016-04-15T12:30:45Z</time>
      </trkpt>
      <trkpt lat="43.82337" lon="3.57444">
        <ele>652</ele>
        <time>2016-04-15T12:30:52Z</time>
      </trkpt>
      <trkpt lat="43.82342" lon="3.57443">
        <ele>650</ele>
        <time>2016-04-15T12:30:59Z</time>
      </trkpt>
      <trkpt lat="43.82347" lon="3.57442">
        <ele>650</ele>
        <time>2016-04-15T12:31:04Z</time>
      </trkpt>
      <trkpt lat="43.82371" lon="3.57444">
        <ele>644</ele>
        <time>2016-04-15T12:31:36Z</time>
      </trkpt>
      <trkpt lat="43.82382" lon="3.57436">
        <ele>641</ele>
        <time>2016-04-15T12:32:06Z</time>
      </trkpt>
      <trkpt lat="43.82385" lon="3.57435">
        <ele>640</ele>
        <time>2016-04-15T12:32:12Z</time>
      </trkpt>
      <trkpt lat="43.82391" lon="3.57426">
        <ele>637</ele>
        <time>2016-04-15T12:32:23Z</time>
      </trkpt>
      <trkpt lat="43.82406" lon="3.57421">
        <ele>633</ele>
        <time>2016-04-15T12:32:41Z</time>
      </trkpt>
      <trkpt lat="43.8241" lon="3.5742">
        <ele>633</ele>
        <time>2016-04-15T12:32:46Z</time>
      </trkpt>
      <trkpt lat="43.82437" lon="3.57399">
        <ele>627</ele>
        <time>2016-04-15T12:33:16Z</time>
      </trkpt>
      <trkpt lat="43.82442" lon="3.57396">
        <ele>625</ele>
        <time>2016-04-15T12:33:21Z</time>
      </trkpt>
      <trkpt lat="43.82447" lon="3.57394">
        <ele>626</ele>
        <time>2016-04-15T12:33:26Z</time>
      </trkpt>
      <trkpt lat="43.82451" lon="3.57391">
        <ele>626</ele>
        <time>2016-04-15T12:33:31Z</time>
      </trkpt>
      <trkpt lat="43.82454" lon="3.57385">
        <ele>625</ele>
        <time>2016-04-15T12:33:37Z</time>
      </trkpt>
      <trkpt lat="43.82458" lon="3.57382">
        <ele>625</ele>
        <time>2016-04-15T12:33:42Z</time>
      </trkpt>
      <trkpt lat="43.82462" lon="3.5738">
        <ele>624</ele>
        <time>2016-04-15T12:33:49Z</time>
      </trkpt>
      <trkpt lat="43.82466" lon="3.57376">
        <ele>623</ele>
        <time>2016-04-15T12:33:54Z</time>
      </trkpt>
      <trkpt lat="43.8247" lon="3.57371">
        <ele>624</ele>
        <time>2016-04-15T12:33:59Z</time>
      </trkpt>
      <trkpt lat="43.82473" lon="3.57367">
        <ele>623</ele>
        <time>2016-04-15T12:34:04Z</time>
      </trkpt>
      <trkpt lat="43.82478" lon="3.57363">
        <ele>622</ele>
        <time>2016-04-15T12:34:09Z</time>
      </trkpt>
      <trkpt lat="43.82483" lon="3.57361">
        <ele>622</ele>
        <time>2016-04-15T12:34:13Z</time>
      </trkpt>
      <trkpt lat="43.82492" lon="3.57359">
        <ele>622</ele>
        <time>2016-04-15T12:34:21Z</time>
      </trkpt>
      <trkpt lat="43.82521" lon="3.57342">
        <ele>617</ele>
        <time>2016-04-15T12:34:48Z</time>
      </trkpt>
      <trkpt lat="43.82525" lon="3.57339">
        <ele>617</ele>
        <time>2016-04-15T12:34:52Z</time>
      </trkpt>
      <trkpt lat="43.82535" lon="3.57336">
        <ele>617</ele>
        <time>2016-04-15T12:35:02Z</time>
      </trkpt>
      <trkpt lat="43.82539" lon="3.57334">
        <ele>615</ele>
        <time>2016-04-15T12:35:07Z</time>
      </trkpt>
      <trkpt lat="43.82544" lon="3.57331">
        <ele>615</ele>
        <time>2016-04-15T12:35:13Z</time>
      </trkpt>
      <trkpt lat="43.82552" lon="3.5732">
        <ele>612</ele>
        <time>2016-04-15T12:35:23Z</time>
      </trkpt>
      <trkpt lat="43.82555" lon="3.57315">
        <ele>612</ele>
        <time>2016-04-15T12:35:28Z</time>
      </trkpt>
      <trkpt lat="43.82577" lon="3.57288">
        <ele>607</ele>
        <time>2016-04-15T12:36:02Z</time>
      </trkpt>
      <trkpt lat="43.82581" lon="3.57282">
        <ele>605</ele>
        <time>2016-04-15T12:36:08Z</time>
      </trkpt>
      <trkpt lat="43.82594" lon="3.57273">
        <ele>599</ele>
        <time>2016-04-15T12:36:21Z</time>
      </trkpt>
      <trkpt lat="43.82598" lon="3.57261">
        <ele>596</ele>
        <time>2016-04-15T12:36:30Z</time>
      </trkpt>
      <trkpt lat="43.82602" lon="3.57257">
        <ele>596</ele>
        <time>2016-04-15T12:36:35Z</time>
      </trkpt>
      <trkpt lat="43.82607" lon="3.57258">
        <ele>596</ele>
        <time>2016-04-15T12:36:40Z</time>
      </trkpt>
      <trkpt lat="43.82612" lon="3.57257">
        <ele>597</ele>
        <time>2016-04-15T12:36:45Z</time>
      </trkpt>
      <trkpt lat="43.82616" lon="3.57253">
        <ele>597</ele>
        <time>2016-04-15T12:36:51Z</time>
      </trkpt>
      <trkpt lat="43.82634" lon="3.57242">
        <ele>598</ele>
        <time>2016-04-15T12:37:14Z</time>
      </trkpt>
      <trkpt lat="43.82638" lon="3.5724">
        <ele>599</ele>
        <time>2016-04-15T12:37:19Z</time>
      </trkpt>
      <trkpt lat="43.82643" lon="3.57238">
        <ele>598</ele>
        <time>2016-04-15T12:37:25Z</time>
      </trkpt>
      <trkpt lat="43.82648" lon="3.57235">
        <ele>598</ele>
        <time>2016-04-15T12:37:33Z</time>
      </trkpt>
      <trkpt lat="43.82652" lon="3.57221">
        <ele>596</ele>
        <time>2016-04-15T12:37:44Z</time>
      </trkpt>
      <trkpt lat="43.82657" lon="3.5722">
        <ele>594</ele>
        <time>2016-04-15T12:37:51Z</time>
      </trkpt>
      <trkpt lat="43.82661" lon="3.57221">
        <ele>594</ele>
        <time>2016-04-15T12:37:58Z</time>
      </trkpt>
      <trkpt lat="43.82663" lon="3.57215">
        <ele>593</ele>
        <time>2016-04-15T12:38:04Z</time>
      </trkpt>
      <trkpt lat="43.82666" lon="3.57209">
        <ele>593</ele>
        <time>2016-04-15T12:38:11Z</time>
      </trkpt>
      <trkpt lat="43.82668" lon="3.57203">
        <ele>592</ele>
        <time>2016-04-15T12:38:20Z</time>
      </trkpt>
      <trkpt lat="43.82675" lon="3.57194">
        <ele>589</ele>
        <time>2016-04-15T12:38:34Z</time>
      </trkpt>
      <trkpt lat="43.82676" lon="3.57188">
        <ele>586</ele>
        <time>2016-04-15T12:38:42Z</time>
      </trkpt>
      <trkpt lat="43.8269" lon="3.57166">
        <ele>580</ele>
        <time>2016-04-15T12:39:16Z</time>
      </trkpt>
      <trkpt lat="43.82694" lon="3.57163">
        <ele>581</ele>
        <time>2016-04-15T12:39:22Z</time>
      </trkpt>
      <trkpt lat="43.82696" lon="3.57157">
        <ele>582</ele>
        <time>2016-04-15T12:39:29Z</time>
      </trkpt>
      <trkpt lat="43.82696" lon="3.57132">
        <ele>579</ele>
        <time>2016-04-15T12:39:54Z</time>
      </trkpt>
      <trkpt lat="43.82695" lon="3.57126">
        <ele>578</ele>
        <time>2016-04-15T12:40:00Z</time>
      </trkpt>
      <trkpt lat="43.82693" lon="3.57119">
        <ele>577</ele>
        <time>2016-04-15T12:40:07Z</time>
      </trkpt>
      <trkpt lat="43.82694" lon="3.57115">
        <ele>576</ele>
        <time>2016-04-15T12:40:17Z</time>
      </trkpt>
      <trkpt lat="43.82699" lon="3.57113">
        <ele>571</ele>
        <time>2016-04-15T12:40:30Z</time>
      </trkpt>
      <trkpt lat="43.827" lon="3.57106">
        <ele>571</ele>
        <time>2016-04-15T12:40:38Z</time>
      </trkpt>
      <trkpt lat="43.82704" lon="3.57103">
        <ele>571</ele>
        <time>2016-04-15T12:40:44Z</time>
      </trkpt>
      <trkpt lat="43.82706" lon="3.57097">
        <ele>570</ele>
        <time>2016-04-15T12:40:52Z</time>
      </trkpt>
      <trkpt lat="43.82717" lon="3.57075">
        <ele>563</ele>
        <time>2016-04-15T12:41:17Z</time>
      </trkpt>
      <trkpt lat="43.82716" lon="3.57068">
        <ele>561</ele>
        <time>2016-04-15T12:41:26Z</time>
      </trkpt>
      <trkpt lat="43.82718" lon="3.57062">
        <ele>560</ele>
        <time>2016-04-15T12:41:33Z</time>
      </trkpt>
      <trkpt lat="43.82719" lon="3.57056">
        <ele>560</ele>
        <time>2016-04-15T12:41:39Z</time>
      </trkpt>
      <trkpt lat="43.82722" lon="3.5705">
        <ele>560</ele>
        <time>2016-04-15T12:41:46Z</time>
      </trkpt>
      <trkpt lat="43.82721" lon="3.57043">
        <ele>560</ele>
        <time>2016-04-15T12:41:51Z</time>
      </trkpt>
      <trkpt lat="43.82721" lon="3.57029">
        <ele>559</ele>
        <time>2016-04-15T12:42:02Z</time>
      </trkpt>
      <trkpt lat="43.82727" lon="3.57018">
        <ele>559</ele>
        <time>2016-04-15T12:42:14Z</time>
      </trkpt>
      <trkpt lat="43.82732" lon="3.57007">
        <ele>553</ele>
        <time>2016-04-15T12:42:27Z</time>
      </trkpt>
      <trkpt lat="43.82735" lon="3.57001">
        <ele>553</ele>
        <time>2016-04-15T12:42:32Z</time>
      </trkpt>
      <trkpt lat="43.82736" lon="3.56995">
        <ele>552</ele>
        <time>2016-04-15T12:42:38Z</time>
      </trkpt>
      <trkpt lat="43.82738" lon="3.56989">
        <ele>553</ele>
        <time>2016-04-15T12:42:43Z</time>
      </trkpt>
      <trkpt lat="43.82743" lon="3.56978">
        <ele>554</ele>
        <time>2016-04-15T12:42:55Z</time>
      </trkpt>
      <trkpt lat="43.82744" lon="3.5697">
        <ele>553</ele>
        <time>2016-04-15T12:43:02Z</time>
      </trkpt>
      <trkpt lat="43.82742" lon="3.56964">
        <ele>552</ele>
        <time>2016-04-15T12:43:08Z</time>
      </trkpt>
      <trkpt lat="43.82745" lon="3.56959">
        <ele>551</ele>
        <time>2016-04-15T12:43:14Z</time>
      </trkpt>
      <trkpt lat="43.82745" lon="3.56952">
        <ele>550</ele>
        <time>2016-04-15T12:43:22Z</time>
      </trkpt>
      <trkpt lat="43.82746" lon="3.56945">
        <ele>549</ele>
        <time>2016-04-15T12:43:29Z</time>
      </trkpt>
      <trkpt lat="43.82749" lon="3.5694">
        <ele>549</ele>
        <time>2016-04-15T12:43:35Z</time>
      </trkpt>
      <trkpt lat="43.82757" lon="3.56916">
        <ele>544</ele>
        <time>2016-04-15T12:43:59Z</time>
      </trkpt>
      <trkpt lat="43.8276" lon="3.5691">
        <ele>545</ele>
        <time>2016-04-15T12:44:07Z</time>
      </trkpt>
      <trkpt lat="43.82762" lon="3.56904">
        <ele>545</ele>
        <time>2016-04-15T12:44:15Z</time>
      </trkpt>
      <trkpt lat="43.82765" lon="3.569">
        <ele>545</ele>
        <time>2016-04-15T12:44:23Z</time>
      </trkpt>
      <trkpt lat="43.82767" lon="3.56894">
        <ele>542</ele>
        <time>2016-04-15T12:44:29Z</time>
      </trkpt>
      <trkpt lat="43.82767" lon="3.56882">
        <ele>540</ele>
        <time>2016-04-15T12:44:43Z</time>
      </trkpt>
      <trkpt lat="43.82764" lon="3.5687">
        <ele>537</ele>
        <time>2016-04-15T12:44:55Z</time>
      </trkpt>
      <trkpt lat="43.82765" lon="3.56863">
        <ele>537</ele>
        <time>2016-04-15T12:45:02Z</time>
      </trkpt>
      <trkpt lat="43.82765" lon="3.56857">
        <ele>538</ele>
        <time>2016-04-15T12:45:08Z</time>
      </trkpt>
      <trkpt lat="43.82764" lon="3.56836">
        <ele>531</ele>
        <time>2016-04-15T12:45:40Z</time>
      </trkpt>
      <trkpt lat="43.82761" lon="3.56831">
        <ele>530</ele>
        <time>2016-04-15T12:45:48Z</time>
      </trkpt>
      <trkpt lat="43.82762" lon="3.56824">
        <ele>530</ele>
        <time>2016-04-15T12:45:57Z</time>
      </trkpt>
      <trkpt lat="43.82761" lon="3.56817">
        <ele>530</ele>
        <time>2016-04-15T12:46:06Z</time>
      </trkpt>
      <trkpt lat="43.82761" lon="3.56804">
        <ele>528</ele>
        <time>2016-04-15T12:46:18Z</time>
      </trkpt>
      <trkpt lat="43.82759" lon="3.56799">
        <ele>527</ele>
        <time>2016-04-15T12:46:26Z</time>
      </trkpt>
      <trkpt lat="43.82762" lon="3.56792">
        <ele>525</ele>
        <time>2016-04-15T12:46:38Z</time>
      </trkpt>
      <trkpt lat="43.82763" lon="3.56785">
        <ele>524</ele>
        <time>2016-04-15T12:46:47Z</time>
      </trkpt>
      <trkpt lat="43.82766" lon="3.56766">
        <ele>518</ele>
        <time>2016-04-15T12:47:10Z</time>
      </trkpt>
      <trkpt lat="43.82765" lon="3.56759">
        <ele>518</ele>
        <time>2016-04-15T12:47:18Z</time>
      </trkpt>
      <trkpt lat="43.82768" lon="3.56751">
        <ele>516</ele>
        <time>2016-04-15T12:47:35Z</time>
      </trkpt>
      <trkpt lat="43.82779" lon="3.56727">
        <ele>510</ele>
        <time>2016-04-15T12:48:09Z</time>
      </trkpt>
      <trkpt lat="43.8278" lon="3.5672">
        <ele>508</ele>
        <time>2016-04-15T12:48:16Z</time>
      </trkpt>
      <trkpt lat="43.82784" lon="3.56715">
        <ele>507</ele>
        <time>2016-04-15T12:48:23Z</time>
      </trkpt>
      <trkpt lat="43.82784" lon="3.56706">
        <ele>505</ele>
        <time>2016-04-15T12:48:38Z</time>
      </trkpt>
      <trkpt lat="43.82784" lon="3.56699">
        <ele>504</ele>
        <time>2016-04-15T12:48:51Z</time>
      </trkpt>
      <trkpt lat="43.82784" lon="3.56692">
        <ele>504</ele>
        <time>2016-04-15T12:48:57Z</time>
      </trkpt>
      <trkpt lat="43.8278" lon="3.5668">
        <ele>501</ele>
        <time>2016-04-15T12:49:13Z</time>
      </trkpt>
      <trkpt lat="43.82782" lon="3.56674">
        <ele>497</ele>
        <time>2016-04-15T12:49:20Z</time>
      </trkpt>
      <trkpt lat="43.82785" lon="3.56669">
        <ele>497</ele>
        <time>2016-04-15T12:49:27Z</time>
      </trkpt>
      <trkpt lat="43.82788" lon="3.56663">
        <ele>497</ele>
        <time>2016-04-15T12:49:35Z</time>
      </trkpt>
      <trkpt lat="43.82792" lon="3.56661">
        <ele>497</ele>
        <time>2016-04-15T12:49:40Z</time>
      </trkpt>
      <trkpt lat="43.82793" lon="3.56654">
        <ele>496</ele>
        <time>2016-04-15T12:49:47Z</time>
      </trkpt>
      <trkpt lat="43.82798" lon="3.56651">
        <ele>495</ele>
        <time>2016-04-15T12:49:53Z</time>
      </trkpt>
      <trkpt lat="43.828" lon="3.56645">
        <ele>494</ele>
        <time>2016-04-15T12:49:59Z</time>
      </trkpt>
      <trkpt lat="43.828" lon="3.56639">
        <ele>494</ele>
        <time>2016-04-15T12:50:05Z</time>
      </trkpt>
      <trkpt lat="43.828" lon="3.56626">
        <ele>491</ele>
        <time>2016-04-15T12:50:17Z</time>
      </trkpt>
      <trkpt lat="43.82802" lon="3.5662">
        <ele>489</ele>
        <time>2016-04-15T12:50:24Z</time>
      </trkpt>
      <trkpt lat="43.82801" lon="3.56614">
        <ele>488</ele>
        <time>2016-04-15T12:50:30Z</time>
      </trkpt>
      <trkpt lat="43.82795" lon="3.56603">
        <ele>487</ele>
        <time>2016-04-15T12:50:45Z</time>
      </trkpt>
      <trkpt lat="43.82795" lon="3.56597">
        <ele>487</ele>
        <time>2016-04-15T12:50:53Z</time>
      </trkpt>
      <trkpt lat="43.82797" lon="3.56592">
        <ele>487</ele>
        <time>2016-04-15T12:50:59Z</time>
      </trkpt>
      <trkpt lat="43.82799" lon="3.56579">
        <ele>485</ele>
        <time>2016-04-15T12:51:10Z</time>
      </trkpt>
      <trkpt lat="43.82805" lon="3.56554">
        <ele>488</ele>
        <time>2016-04-15T12:51:33Z</time>
      </trkpt>
      <trkpt lat="43.82806" lon="3.56548">
        <ele>487</ele>
        <time>2016-04-15T12:51:42Z</time>
      </trkpt>
      <trkpt lat="43.82805" lon="3.56544">
        <ele>486</ele>
        <time>2016-04-15T12:51:49Z</time>
      </trkpt>
      <trkpt lat="43.82805" lon="3.5654">
        <ele>487</ele>
        <time>2016-04-15T12:52:16Z</time>
      </trkpt>
      <trkpt lat="43.82804" lon="3.56532">
        <ele>487</ele>
        <time>2016-04-15T12:52:34Z</time>
      </trkpt>
      <trkpt lat="43.82805" lon="3.56525">
        <ele>487</ele>
        <time>2016-04-15T12:52:40Z</time>
      </trkpt>
      <trkpt lat="43.82804" lon="3.56518">
        <ele>484</ele>
        <time>2016-04-15T12:52:47Z</time>
      </trkpt>
      <trkpt lat="43.82804" lon="3.56512">
        <ele>483</ele>
        <time>2016-04-15T12:52:53Z</time>
      </trkpt>
      <trkpt lat="43.82804" lon="3.56498">
        <ele>481</ele>
        <time>2016-04-15T12:53:04Z</time>
      </trkpt>
      <trkpt lat="43.82804" lon="3.56484">
        <ele>481</ele>
        <time>2016-04-15T12:53:15Z</time>
      </trkpt>
      <trkpt lat="43.82805" lon="3.56476">
        <ele>481</ele>
        <time>2016-04-15T12:53:20Z</time>
      </trkpt>
      <trkpt lat="43.82804" lon="3.56469">
        <ele>482</ele>
        <time>2016-04-15T12:53:25Z</time>
      </trkpt>
      <trkpt lat="43.82803" lon="3.56462">
        <ele>482</ele>
        <time>2016-04-15T12:53:30Z</time>
      </trkpt>
      <trkpt lat="43.82802" lon="3.56455">
        <ele>482</ele>
        <time>2016-04-15T12:53:35Z</time>
      </trkpt>
      <trkpt lat="43.82801" lon="3.56441">
        <ele>481</ele>
        <time>2016-04-15T12:53:45Z</time>
      </trkpt>
      <trkpt lat="43.82799" lon="3.56435">
        <ele>481</ele>
        <time>2016-04-15T12:53:50Z</time>
      </trkpt>
      <trkpt lat="43.82794" lon="3.56422">
        <ele>482</ele>
        <time>2016-04-15T12:54:00Z</time>
      </trkpt>
      <trkpt lat="43.82791" lon="3.56403">
        <ele>480</ele>
        <time>2016-04-15T12:54:16Z</time>
      </trkpt>
      <trkpt lat="43.82789" lon="3.56391">
        <ele>480</ele>
        <time>2016-04-15T12:54:26Z</time>
      </trkpt>
      <trkpt lat="43.8279" lon="3.5635">
        <ele>472</ele>
        <time>2016-04-15T12:54:58Z</time>
      </trkpt>
      <trkpt lat="43.82792" lon="3.56345">
        <ele>472</ele>
        <time>2016-04-15T12:55:03Z</time>
      </trkpt>
      <trkpt lat="43.82794" lon="3.56338">
        <ele>472</ele>
        <time>2016-04-15T12:55:08Z</time>
      </trkpt>
      <trkpt lat="43.82796" lon="3.56333">
        <ele>471</ele>
        <time>2016-04-15T12:55:13Z</time>
      </trkpt>
      <trkpt lat="43.82798" lon="3.5632">
        <ele>471</ele>
        <time>2016-04-15T12:55:24Z</time>
      </trkpt>
      <trkpt lat="43.828" lon="3.56314">
        <ele>470</ele>
        <time>2016-04-15T12:55:29Z</time>
      </trkpt>
      <trkpt lat="43.82801" lon="3.56307">
        <ele>469</ele>
        <time>2016-04-15T12:55:35Z</time>
      </trkpt>
      <trkpt lat="43.82803" lon="3.563">
        <ele>469</ele>
        <time>2016-04-15T12:55:41Z</time>
      </trkpt>
      <trkpt lat="43.82806" lon="3.56295">
        <ele>469</ele>
        <time>2016-04-15T12:55:47Z</time>
      </trkpt>
      <trkpt lat="43.82808" lon="3.56288">
        <ele>469</ele>
        <time>2016-04-15T12:55:54Z</time>
      </trkpt>
      <trkpt lat="43.82814" lon="3.56261">
        <ele>464</ele>
        <time>2016-04-15T12:56:14Z</time>
      </trkpt>
      <trkpt lat="43.82818" lon="3.56248">
        <ele>463</ele>
        <time>2016-04-15T12:56:24Z</time>
      </trkpt>
      <trkpt lat="43.82821" lon="3.56241">
        <ele>463</ele>
        <time>2016-04-15T12:56:29Z</time>
      </trkpt>
      <trkpt lat="43.82823" lon="3.56235">
        <ele>464</ele>
        <time>2016-04-15T12:56:35Z</time>
      </trkpt>
      <trkpt lat="43.82823" lon="3.56228">
        <ele>464</ele>
        <time>2016-04-15T12:56:39Z</time>
      </trkpt>
      <trkpt lat="43.82825" lon="3.56222">
        <ele>464</ele>
        <time>2016-04-15T12:56:43Z</time>
      </trkpt>
      <trkpt lat="43.82826" lon="3.56215">
        <ele>464</ele>
        <time>2016-04-15T12:56:49Z</time>
      </trkpt>
      <trkpt lat="43.82827" lon="3.56208">
        <ele>464</ele>
        <time>2016-04-15T12:56:54Z</time>
      </trkpt>
      <trkpt lat="43.82833" lon="3.56196">
        <ele>464</ele>
        <time>2016-04-15T12:57:05Z</time>
      </trkpt>
      <trkpt lat="43.82837" lon="3.56169">
        <ele>458</ele>
        <time>2016-04-15T12:57:26Z</time>
      </trkpt>
      <trkpt lat="43.82839" lon="3.56164">
        <ele>459</ele>
        <time>2016-04-15T12:57:31Z</time>
      </trkpt>
      <trkpt lat="43.8284" lon="3.56157">
        <ele>458</ele>
        <time>2016-04-15T12:57:38Z</time>
      </trkpt>
      <trkpt lat="43.82843" lon="3.56151">
        <ele>461</ele>
        <time>2016-04-15T12:57:44Z</time>
      </trkpt>
      <trkpt lat="43.82847" lon="3.56147">
        <ele>461</ele>
        <time>2016-04-15T12:57:48Z</time>
      </trkpt>
      <trkpt lat="43.82855" lon="3.56129">
        <ele>458</ele>
        <time>2016-04-15T12:58:05Z</time>
      </trkpt>
      <trkpt lat="43.8286" lon="3.56127">
        <ele>457</ele>
        <time>2016-04-15T12:58:10Z</time>
      </trkpt>
      <trkpt lat="43.82865" lon="3.56127">
        <ele>457</ele>
        <time>2016-04-15T12:58:14Z</time>
      </trkpt>
      <trkpt lat="43.8287" lon="3.56129">
        <ele>457</ele>
        <time>2016-04-15T12:58:19Z</time>
      </trkpt>
      <trkpt lat="43.82894" lon="3.56138">
        <ele>463</ele>
        <time>2016-04-15T12:58:41Z</time>
      </trkpt>
      <trkpt lat="43.829" lon="3.56137">
        <ele>463</ele>
        <time>2016-04-15T12:58:45Z</time>
      </trkpt>
      <trkpt lat="43.82905" lon="3.56137">
        <ele>464</ele>
        <time>2016-04-15T12:58:49Z</time>
      </trkpt>
      <trkpt lat="43.8291" lon="3.56135">
        <ele>464</ele>
        <time>2016-04-15T12:58:54Z</time>
      </trkpt>
      <trkpt lat="43.82939" lon="3.56134">
        <ele>463</ele>
        <time>2016-04-15T12:59:22Z</time>
      </trkpt>
      <trkpt lat="43.82944" lon="3.56136">
        <ele>463</ele>
        <time>2016-04-15T12:59:32Z</time>
      </trkpt>
      <trkpt lat="43.82955" lon="3.56138">
        <ele>463</ele>
        <time>2016-04-15T12:59:43Z</time>
      </trkpt>
      <trkpt lat="43.82972" lon="3.56148">
        <ele>462</ele>
        <time>2016-04-15T12:59:59Z</time>
      </trkpt>
      <trkpt lat="43.82981" lon="3.56152">
        <ele>462</ele>
        <time>2016-04-15T13:00:07Z</time>
      </trkpt>
      <trkpt lat="43.83001" lon="3.5616">
        <ele>461</ele>
        <time>2016-04-15T13:00:23Z</time>
      </trkpt>
      <trkpt lat="43.83015" lon="3.56166">
        <ele>462</ele>
        <time>2016-04-15T13:00:36Z</time>
      </trkpt>
      <trkpt lat="43.8303" lon="3.56171">
        <ele>461</ele>
        <time>2016-04-15T13:00:51Z</time>
      </trkpt>
      <trkpt lat="43.83039" lon="3.56173">
        <ele>462</ele>
        <time>2016-04-15T13:00:59Z</time>
      </trkpt>
      <trkpt lat="43.83044" lon="3.56176">
        <ele>463</ele>
        <time>2016-04-15T13:01:04Z</time>
      </trkpt>
      <trkpt lat="43.83049" lon="3.56178">
        <ele>462</ele>
        <time>2016-04-15T13:01:09Z</time>
      </trkpt>
      <trkpt lat="43.83054" lon="3.56179">
        <ele>462</ele>
        <time>2016-04-15T13:01:13Z</time>
      </trkpt>
      <trkpt lat="43.83057" lon="3.56182">
        <ele>462</ele>
        <time>2016-04-15T13:01:18Z</time>
      </trkpt>
      <trkpt lat="43.83091" lon="3.56195">
        <ele>461</ele>
        <time>2016-04-15T13:01:49Z</time>
      </trkpt>
      <trkpt lat="43.83105" lon="3.56199">
        <ele>463</ele>
        <time>2016-04-15T13:02:02Z</time>
      </trkpt>
      <trkpt lat="43.8313" lon="3.56209">
        <ele>458</ele>
        <time>2016-04-15T13:02:27Z</time>
      </trkpt>
      <trkpt lat="43.83135" lon="3.56211">
        <ele>458</ele>
        <time>2016-04-15T13:02:32Z</time>
      </trkpt>
      <trkpt lat="43.8314" lon="3.56213">
        <ele>458</ele>
        <time>2016-04-15T13:02:37Z</time>
      </trkpt>
      <trkpt lat="43.83158" lon="3.56224">
        <ele>457</ele>
        <time>2016-04-15T13:02:55Z</time>
      </trkpt>
      <trkpt lat="43.83162" lon="3.56227">
        <ele>457</ele>
        <time>2016-04-15T13:02:59Z</time>
      </trkpt>
      <trkpt lat="43.83167" lon="3.56232">
        <ele>456</ele>
        <time>2016-04-15T13:03:03Z</time>
      </trkpt>
      <trkpt lat="43.8317" lon="3.56237">
        <ele>455</ele>
        <time>2016-04-15T13:03:07Z</time>
      </trkpt>
      <trkpt lat="43.83175" lon="3.5624">
        <ele>455</ele>
        <time>2016-04-15T13:03:12Z</time>
      </trkpt>
      <trkpt lat="43.83182" lon="3.5625">
        <ele>454</ele>
        <time>2016-04-15T13:03:24Z</time>
      </trkpt>
      <trkpt lat="43.83186" lon="3.56253">
        <ele>455</ele>
        <time>2016-04-15T13:03:29Z</time>
      </trkpt>
      <trkpt lat="43.8319" lon="3.56257">
        <ele>455</ele>
        <time>2016-04-15T13:03:33Z</time>
      </trkpt>
      <trkpt lat="43.83198" lon="3.56265">
        <ele>455</ele>
        <time>2016-04-15T13:03:42Z</time>
      </trkpt>
      <trkpt lat="43.83211" lon="3.56277">
        <ele>454</ele>
        <time>2016-04-15T13:03:55Z</time>
      </trkpt>
      <trkpt lat="43.83215" lon="3.56281">
        <ele>454</ele>
        <time>2016-04-15T13:04:00Z</time>
      </trkpt>
      <trkpt lat="43.83219" lon="3.56287">
        <ele>456</ele>
        <time>2016-04-15T13:04:05Z</time>
      </trkpt>
      <trkpt lat="43.83221" lon="3.56293">
        <ele>456</ele>
        <time>2016-04-15T13:04:09Z</time>
      </trkpt>
      <trkpt lat="43.83226" lon="3.56297">
        <ele>456</ele>
        <time>2016-04-15T13:04:14Z</time>
      </trkpt>
      <trkpt lat="43.8323" lon="3.563">
        <ele>456</ele>
        <time>2016-04-15T13:04:18Z</time>
      </trkpt>
      <trkpt lat="43.83234" lon="3.56303">
        <ele>455</ele>
        <time>2016-04-15T13:04:22Z</time>
      </trkpt>
      <trkpt lat="43.8324" lon="3.56305">
        <ele>455</ele>
        <time>2016-04-15T13:04:27Z</time>
      </trkpt>
      <trkpt lat="43.83244" lon="3.56308">
        <ele>455</ele>
        <time>2016-04-15T13:04:32Z</time>
      </trkpt>
      <trkpt lat="43.83257" lon="3.56318">
        <ele>456</ele>
        <time>2016-04-15T13:04:45Z</time>
      </trkpt>
      <trkpt lat="43.83266" lon="3.56324">
        <ele>456</ele>
        <time>2016-04-15T13:04:53Z</time>
      </trkpt>
      <trkpt lat="43.83279" lon="3.56335">
        <ele>452</ele>
        <time>2016-04-15T13:05:08Z</time>
      </trkpt>
      <trkpt lat="43.83288" lon="3.56335">
        <ele>449</ele>
        <time>2016-04-15T13:05:16Z</time>
      </trkpt>
      <trkpt lat="43.83306" lon="3.56352">
        <ele>444</ele>
        <time>2016-04-15T13:05:34Z</time>
      </trkpt>
      <trkpt lat="43.83313" lon="3.5636">
        <ele>444</ele>
        <time>2016-04-15T13:05:44Z</time>
      </trkpt>
      <trkpt lat="43.83315" lon="3.56367">
        <ele>445</ele>
        <time>2016-04-15T13:05:49Z</time>
      </trkpt>
      <trkpt lat="43.83317" lon="3.56373">
        <ele>445</ele>
        <time>2016-04-15T13:05:53Z</time>
      </trkpt>
      <trkpt lat="43.83331" lon="3.56401">
        <ele>449</ele>
        <time>2016-04-15T13:06:17Z</time>
      </trkpt>
      <trkpt lat="43.83334" lon="3.56407">
        <ele>449</ele>
        <time>2016-04-15T13:06:21Z</time>
      </trkpt>
      <trkpt lat="43.83338" lon="3.5642">
        <ele>448</ele>
        <time>2016-04-15T13:06:31Z</time>
      </trkpt>
      <trkpt lat="43.8334" lon="3.56426">
        <ele>447</ele>
        <time>2016-04-15T13:06:35Z</time>
      </trkpt>
      <trkpt lat="43.83343" lon="3.56447">
        <ele>446</ele>
        <time>2016-04-15T13:06:49Z</time>
      </trkpt>
      <trkpt lat="43.83348" lon="3.56459">
        <ele>444</ele>
        <time>2016-04-15T13:06:57Z</time>
      </trkpt>
      <trkpt lat="43.83351" lon="3.56464">
        <ele>444</ele>
        <time>2016-04-15T13:07:01Z</time>
      </trkpt>
      <trkpt lat="43.8336" lon="3.56472">
        <ele>445</ele>
        <time>2016-04-15T13:07:10Z</time>
      </trkpt>
      <trkpt lat="43.83368" lon="3.56482">
        <ele>445</ele>
        <time>2016-04-15T13:07:20Z</time>
      </trkpt>
      <trkpt lat="43.83387" lon="3.56512">
        <ele>451</ele>
        <time>2016-04-15T13:07:45Z</time>
      </trkpt>
      <trkpt lat="43.83395" lon="3.56519">
        <ele>450</ele>
        <time>2016-04-15T13:07:53Z</time>
      </trkpt>
      <trkpt lat="43.83399" lon="3.56522">
        <ele>450</ele>
        <time>2016-04-15T13:07:57Z</time>
      </trkpt>
      <trkpt lat="43.83407" lon="3.5653">
        <ele>449</ele>
        <time>2016-04-15T13:08:07Z</time>
      </trkpt>
      <trkpt lat="43.83414" lon="3.56548">
        <ele>448</ele>
        <time>2016-04-15T13:08:19Z</time>
      </trkpt>
      <trkpt lat="43.83416" lon="3.56561">
        <ele>447</ele>
        <time>2016-04-15T13:08:29Z</time>
      </trkpt>
      <trkpt lat="43.83419" lon="3.56567">
        <ele>446</ele>
        <time>2016-04-15T13:08:34Z</time>
      </trkpt>
      <trkpt lat="43.83423" lon="3.56571">
        <ele>446</ele>
        <time>2016-04-15T13:08:39Z</time>
      </trkpt>
      <trkpt lat="43.83431" lon="3.56589">
        <ele>447</ele>
        <time>2016-04-15T13:08:54Z</time>
      </trkpt>
      <trkpt lat="43.83434" lon="3.56595">
        <ele>447</ele>
        <time>2016-04-15T13:08:59Z</time>
      </trkpt>
      <trkpt lat="43.83443" lon="3.56619">
        <ele>444</ele>
        <time>2016-04-15T13:09:16Z</time>
      </trkpt>
      <trkpt lat="43.8345" lon="3.56628">
        <ele>445</ele>
        <time>2016-04-15T13:09:24Z</time>
      </trkpt>
      <trkpt lat="43.83454" lon="3.56633">
        <ele>445</ele>
        <time>2016-04-15T13:09:29Z</time>
      </trkpt>
      <trkpt lat="43.83458" lon="3.56637">
        <ele>445</ele>
        <time>2016-04-15T13:09:33Z</time>
      </trkpt>
      <trkpt lat="43.83471" lon="3.56665">
        <ele>447</ele>
        <time>2016-04-15T13:09:55Z</time>
      </trkpt>
      <trkpt lat="43.8348" lon="3.5667">
        <ele>445</ele>
        <time>2016-04-15T13:10:06Z</time>
      </trkpt>
      <trkpt lat="43.83484" lon="3.56674">
        <ele>445</ele>
        <time>2016-04-15T13:10:10Z</time>
      </trkpt>
      <trkpt lat="43.83499" lon="3.56703">
        <ele>450</ele>
        <time>2016-04-15T13:10:35Z</time>
      </trkpt>
      <trkpt lat="43.83504" lon="3.56724">
        <ele>448</ele>
        <time>2016-04-15T13:10:51Z</time>
      </trkpt>
      <trkpt lat="43.8351" lon="3.56735">
        <ele>448</ele>
        <time>2016-04-15T13:11:00Z</time>
      </trkpt>
      <trkpt lat="43.83514" lon="3.5674">
        <ele>450</ele>
        <time>2016-04-15T13:11:05Z</time>
      </trkpt>
      <trkpt lat="43.83517" lon="3.56752">
        <ele>452</ele>
        <time>2016-04-15T13:11:13Z</time>
      </trkpt>
      <trkpt lat="43.83516" lon="3.56759">
        <ele>453</ele>
        <time>2016-04-15T13:11:18Z</time>
      </trkpt>
      <trkpt lat="43.8352" lon="3.56773">
        <ele>451</ele>
        <time>2016-04-15T13:11:29Z</time>
      </trkpt>
      <trkpt lat="43.83531" lon="3.56796">
        <ele>453</ele>
        <time>2016-04-15T13:11:45Z</time>
      </trkpt>
      <trkpt lat="43.83538" lon="3.56806">
        <ele>452</ele>
        <time>2016-04-15T13:11:53Z</time>
      </trkpt>
      <trkpt lat="43.83542" lon="3.56818">
        <ele>451</ele>
        <time>2016-04-15T13:12:01Z</time>
      </trkpt>
      <trkpt lat="43.83543" lon="3.56832">
        <ele>450</ele>
        <time>2016-04-15T13:12:11Z</time>
      </trkpt>
      <trkpt lat="43.83544" lon="3.5684">
        <ele>451</ele>
        <time>2016-04-15T13:12:16Z</time>
      </trkpt>
      <trkpt lat="43.83544" lon="3.56846">
        <ele>450</ele>
        <time>2016-04-15T13:12:19Z</time>
      </trkpt>
      <trkpt lat="43.83542" lon="3.56853">
        <ele>451</ele>
        <time>2016-04-15T13:12:23Z</time>
      </trkpt>
      <trkpt lat="43.83544" lon="3.5686">
        <ele>452</ele>
        <time>2016-04-15T13:12:27Z</time>
      </trkpt>
      <trkpt lat="43.83547" lon="3.56865">
        <ele>452</ele>
        <time>2016-04-15T13:12:31Z</time>
      </trkpt>
      <trkpt lat="43.8355" lon="3.56891">
        <ele>445</ele>
        <time>2016-04-15T13:12:50Z</time>
      </trkpt>
      <trkpt lat="43.8355" lon="3.56899">
        <ele>445</ele>
        <time>2016-04-15T13:12:55Z</time>
      </trkpt>
      <trkpt lat="43.83552" lon="3.56905">
        <ele>445</ele>
        <time>2016-04-15T13:12:59Z</time>
      </trkpt>
      <trkpt lat="43.83554" lon="3.56918">
        <ele>443</ele>
        <time>2016-04-15T13:13:07Z</time>
      </trkpt>
      <trkpt lat="43.83558" lon="3.56924">
        <ele>442</ele>
        <time>2016-04-15T13:13:14Z</time>
      </trkpt>
      <trkpt lat="43.83557" lon="3.56931">
        <ele>442</ele>
        <time>2016-04-15T13:13:18Z</time>
      </trkpt>
      <trkpt lat="43.83558" lon="3.56938">
        <ele>441</ele>
        <time>2016-04-15T13:13:22Z</time>
      </trkpt>
      <trkpt lat="43.83559" lon="3.56945">
        <ele>442</ele>
        <time>2016-04-15T13:13:27Z</time>
      </trkpt>
      <trkpt lat="43.83564" lon="3.56971">
        <ele>449</ele>
        <time>2016-04-15T13:13:44Z</time>
      </trkpt>
      <trkpt lat="43.83564" lon="3.56986">
        <ele>446</ele>
        <time>2016-04-15T13:13:55Z</time>
      </trkpt>
      <trkpt lat="43.83566" lon="3.56993">
        <ele>446</ele>
        <time>2016-04-15T13:14:00Z</time>
      </trkpt>
      <trkpt lat="43.83567" lon="3.57006">
        <ele>446</ele>
        <time>2016-04-15T13:14:08Z</time>
      </trkpt>
      <trkpt lat="43.83566" lon="3.57034">
        <ele>441</ele>
        <time>2016-04-15T13:14:25Z</time>
      </trkpt>
      <trkpt lat="43.83565" lon="3.57041">
        <ele>441</ele>
        <time>2016-04-15T13:14:29Z</time>
      </trkpt>
      <trkpt lat="43.83569" lon="3.57077">
        <ele>438</ele>
        <time>2016-04-15T13:14:52Z</time>
      </trkpt>
      <trkpt lat="43.83573" lon="3.57091">
        <ele>439</ele>
        <time>2016-04-15T13:15:00Z</time>
      </trkpt>
      <trkpt lat="43.83576" lon="3.5711">
        <ele>440</ele>
        <time>2016-04-15T13:15:12Z</time>
      </trkpt>
      <trkpt lat="43.83577" lon="3.57116">
        <ele>440</ele>
        <time>2016-04-15T13:15:17Z</time>
      </trkpt>
      <trkpt lat="43.8358" lon="3.57122">
        <ele>440</ele>
        <time>2016-04-15T13:15:22Z</time>
      </trkpt>
      <trkpt lat="43.83583" lon="3.57129">
        <ele>441</ele>
        <time>2016-04-15T13:15:27Z</time>
      </trkpt>
      <trkpt lat="43.83585" lon="3.57135">
        <ele>441</ele>
        <time>2016-04-15T13:15:31Z</time>
      </trkpt>
      <trkpt lat="43.83588" lon="3.57141">
        <ele>441</ele>
        <time>2016-04-15T13:15:35Z</time>
      </trkpt>
      <trkpt lat="43.8359" lon="3.57146">
        <ele>442</ele>
        <time>2016-04-15T13:15:39Z</time>
      </trkpt>
      <trkpt lat="43.83593" lon="3.57152">
        <ele>442</ele>
        <time>2016-04-15T13:15:43Z</time>
      </trkpt>
      <trkpt lat="43.83599" lon="3.57162">
        <ele>441</ele>
        <time>2016-04-15T13:15:52Z</time>
      </trkpt>
      <trkpt lat="43.83599" lon="3.57169">
        <ele>441</ele>
        <time>2016-04-15T13:15:56Z</time>
      </trkpt>
      <trkpt lat="43.83602" lon="3.57175">
        <ele>443</ele>
        <time>2016-04-15T13:16:02Z</time>
      </trkpt>
      <trkpt lat="43.83606" lon="3.57179">
        <ele>444</ele>
        <time>2016-04-15T13:16:06Z</time>
      </trkpt>
      <trkpt lat="43.83609" lon="3.57185">
        <ele>444</ele>
        <time>2016-04-15T13:16:10Z</time>
      </trkpt>
      <trkpt lat="43.8361" lon="3.57193">
        <ele>444</ele>
        <time>2016-04-15T13:16:14Z</time>
      </trkpt>
      <trkpt lat="43.8362" lon="3.57209">
        <ele>439</ele>
        <time>2016-04-15T13:16:26Z</time>
      </trkpt>
      <trkpt lat="43.83628" lon="3.57215">
        <ele>436</ele>
        <time>2016-04-15T13:16:35Z</time>
      </trkpt>
      <trkpt lat="43.83639" lon="3.5723">
        <ele>437</ele>
        <time>2016-04-15T13:16:49Z</time>
      </trkpt>
      <trkpt lat="43.83642" lon="3.57236">
        <ele>436</ele>
        <time>2016-04-15T13:16:54Z</time>
      </trkpt>
      <trkpt lat="43.83646" lon="3.57239">
        <ele>437</ele>
        <time>2016-04-15T13:16:59Z</time>
      </trkpt>
      <trkpt lat="43.83652" lon="3.57239">
        <ele>436</ele>
        <time>2016-04-15T13:17:04Z</time>
      </trkpt>
      <trkpt lat="43.83656" lon="3.57243">
        <ele>435</ele>
        <time>2016-04-15T13:17:10Z</time>
      </trkpt>
      <trkpt lat="43.83658" lon="3.5725">
        <ele>435</ele>
        <time>2016-04-15T13:17:15Z</time>
      </trkpt>
      <trkpt lat="43.83659" lon="3.57257">
        <ele>434</ele>
        <time>2016-04-15T13:17:19Z</time>
      </trkpt>
      <trkpt lat="43.83668" lon="3.57264">
        <ele>432</ele>
        <time>2016-04-15T13:17:31Z</time>
      </trkpt>
      <trkpt lat="43.83673" lon="3.57264">
        <ele>431</ele>
        <time>2016-04-15T13:17:40Z</time>
      </trkpt>
      <trkpt lat="43.83675" lon="3.57271">
        <ele>431</ele>
        <time>2016-04-15T13:17:45Z</time>
      </trkpt>
      <trkpt lat="43.83675" lon="3.57277">
        <ele>431</ele>
        <time>2016-04-15T13:17:51Z</time>
      </trkpt>
      <trkpt lat="43.83672" lon="3.57282">
        <ele>430</ele>
        <time>2016-04-15T13:17:54Z</time>
      </trkpt>
      <trkpt lat="43.83677" lon="3.57284">
        <ele>429</ele>
        <time>2016-04-15T13:18:00Z</time>
      </trkpt>
      <trkpt lat="43.83682" lon="3.57287">
        <ele>429</ele>
        <time>2016-04-15T13:18:03Z</time>
      </trkpt>
      <trkpt lat="43.83685" lon="3.57293">
        <ele>430</ele>
        <time>2016-04-15T13:18:08Z</time>
      </trkpt>
      <trkpt lat="43.83687" lon="3.57299">
        <ele>432</ele>
        <time>2016-04-15T13:18:12Z</time>
      </trkpt>
      <trkpt lat="43.83698" lon="3.57312">
        <ele>437</ele>
        <time>2016-04-15T13:18:25Z</time>
      </trkpt>
      <trkpt lat="43.83706" lon="3.5732">
        <ele>436</ele>
        <time>2016-04-15T13:18:33Z</time>
      </trkpt>
      <trkpt lat="43.83711" lon="3.57323">
        <ele>436</ele>
        <time>2016-04-15T13:18:38Z</time>
      </trkpt>
      <trkpt lat="43.83713" lon="3.57331">
        <ele>436</ele>
        <time>2016-04-15T13:18:42Z</time>
      </trkpt>
      <trkpt lat="43.83722" lon="3.57349">
        <ele>439</ele>
        <time>2016-04-15T13:18:53Z</time>
      </trkpt>
      <trkpt lat="43.83726" lon="3.5735">
        <ele>439</ele>
        <time>2016-04-15T13:18:58Z</time>
      </trkpt>
      <trkpt lat="43.83734" lon="3.57358">
        <ele>437</ele>
        <time>2016-04-15T13:19:07Z</time>
      </trkpt>
      <trkpt lat="43.83739" lon="3.57356">
        <ele>435</ele>
        <time>2016-04-15T13:19:12Z</time>
      </trkpt>
      <trkpt lat="43.83755" lon="3.5736">
        <ele>432</ele>
        <time>2016-04-15T13:19:27Z</time>
      </trkpt>
      <trkpt lat="43.83759" lon="3.57363">
        <ele>432</ele>
        <time>2016-04-15T13:19:32Z</time>
      </trkpt>
      <trkpt lat="43.83769" lon="3.57376">
        <ele>436</ele>
        <time>2016-04-15T13:19:45Z</time>
      </trkpt>
      <trkpt lat="43.83771" lon="3.57389">
        <ele>439</ele>
        <time>2016-04-15T13:19:53Z</time>
      </trkpt>
      <trkpt lat="43.83782" lon="3.57404">
        <ele>442</ele>
        <time>2016-04-15T13:20:07Z</time>
      </trkpt>
      <trkpt lat="43.83787" lon="3.57409">
        <ele>441</ele>
        <time>2016-04-15T13:20:12Z</time>
      </trkpt>
      <trkpt lat="43.83793" lon="3.57419">
        <ele>440</ele>
        <time>2016-04-15T13:20:20Z</time>
      </trkpt>
      <trkpt lat="43.83801" lon="3.57437">
        <ele>442</ele>
        <time>2016-04-15T13:20:32Z</time>
      </trkpt>
      <trkpt lat="43.83809" lon="3.57447">
        <ele>442</ele>
        <time>2016-04-15T13:20:40Z</time>
      </trkpt>
      <trkpt lat="43.83811" lon="3.5746">
        <ele>441</ele>
        <time>2016-04-15T13:20:48Z</time>
      </trkpt>
      <trkpt lat="43.83833" lon="3.57498">
        <ele>433</ele>
        <time>2016-04-15T13:21:20Z</time>
      </trkpt>
      <trkpt lat="43.83837" lon="3.57501">
        <ele>433</ele>
        <time>2016-04-15T13:21:24Z</time>
      </trkpt>
      <trkpt lat="43.83841" lon="3.57505">
        <ele>436</ele>
        <time>2016-04-15T13:21:29Z</time>
      </trkpt>
      <trkpt lat="43.83846" lon="3.57517">
        <ele>432</ele>
        <time>2016-04-15T13:21:39Z</time>
      </trkpt>
      <trkpt lat="43.83848" lon="3.57524">
        <ele>433</ele>
        <time>2016-04-15T13:21:44Z</time>
      </trkpt>
      <trkpt lat="43.83848" lon="3.5753">
        <ele>434</ele>
        <time>2016-04-15T13:21:48Z</time>
      </trkpt>
      <trkpt lat="43.83854" lon="3.57544">
        <ele>435</ele>
        <time>2016-04-15T13:21:57Z</time>
      </trkpt>
      <trkpt lat="43.83859" lon="3.57547">
        <ele>434</ele>
        <time>2016-04-15T13:22:01Z</time>
      </trkpt>
      <trkpt lat="43.83864" lon="3.57548">
        <ele>434</ele>
        <time>2016-04-15T13:22:06Z</time>
      </trkpt>
      <trkpt lat="43.83866" lon="3.57555">
        <ele>436</ele>
        <time>2016-04-15T13:22:11Z</time>
      </trkpt>
      <trkpt lat="43.83867" lon="3.57561">
        <ele>438</ele>
        <time>2016-04-15T13:22:16Z</time>
      </trkpt>
      <trkpt lat="43.83872" lon="3.57565">
        <ele>438</ele>
        <time>2016-04-15T13:22:20Z</time>
      </trkpt>
      <trkpt lat="43.83877" lon="3.57566">
        <ele>437</ele>
        <time>2016-04-15T13:22:25Z</time>
      </trkpt>
      <trkpt lat="43.83881" lon="3.5757">
        <ele>437</ele>
        <time>2016-04-15T13:22:33Z</time>
      </trkpt>
      <trkpt lat="43.83884" lon="3.57575">
        <ele>437</ele>
        <time>2016-04-15T13:22:39Z</time>
      </trkpt>
      <trkpt lat="43.83891" lon="3.57595">
        <ele>441</ele>
        <time>2016-04-15T13:22:55Z</time>
      </trkpt>
      <trkpt lat="43.83907" lon="3.57612">
        <ele>441</ele>
        <time>2016-04-15T13:23:16Z</time>
      </trkpt>
      <trkpt lat="43.83912" lon="3.57624">
        <ele>443</ele>
        <time>2016-04-15T13:23:27Z</time>
      </trkpt>
      <trkpt lat="43.83917" lon="3.57627">
        <ele>443</ele>
        <time>2016-04-15T13:23:33Z</time>
      </trkpt>
      <trkpt lat="43.83926" lon="3.57634">
        <ele>440</ele>
        <time>2016-04-15T13:23:45Z</time>
      </trkpt>
      <trkpt lat="43.83932" lon="3.57634">
        <ele>440</ele>
        <time>2016-04-15T13:23:50Z</time>
      </trkpt>
      <trkpt lat="43.83936" lon="3.57639">
        <ele>439</ele>
        <time>2016-04-15T13:23:55Z</time>
      </trkpt>
      <trkpt lat="43.83939" lon="3.57644">
        <ele>439</ele>
        <time>2016-04-15T13:24:00Z</time>
      </trkpt>
      <trkpt lat="43.8394" lon="3.57651">
        <ele>440</ele>
        <time>2016-04-15T13:24:05Z</time>
      </trkpt>
      <trkpt lat="43.83944" lon="3.57655">
        <ele>441</ele>
        <time>2016-04-15T13:24:11Z</time>
      </trkpt>
      <trkpt lat="43.83948" lon="3.57659">
        <ele>441</ele>
        <time>2016-04-15T13:24:18Z</time>
      </trkpt>
      <trkpt lat="43.83953" lon="3.5767">
        <ele>442</ele>
        <time>2016-04-15T13:24:29Z</time>
      </trkpt>
      <trkpt lat="43.83961" lon="3.57679">
        <ele>441</ele>
        <time>2016-04-15T13:24:38Z</time>
      </trkpt>
      <trkpt lat="43.83965" lon="3.57683">
        <ele>442</ele>
        <time>2016-04-15T13:24:44Z</time>
      </trkpt>
      <trkpt lat="43.83969" lon="3.57687">
        <ele>442</ele>
        <time>2016-04-15T13:24:50Z</time>
      </trkpt>
      <trkpt lat="43.83973" lon="3.57692">
        <ele>442</ele>
        <time>2016-04-15T13:24:55Z</time>
      </trkpt>
      <trkpt lat="43.83987" lon="3.57698">
        <ele>443</ele>
        <time>2016-04-15T13:25:08Z</time>
      </trkpt>
      <trkpt lat="43.83995" lon="3.57705">
        <ele>443</ele>
        <time>2016-04-15T13:25:18Z</time>
      </trkpt>
      <trkpt lat="43.83999" lon="3.57707">
        <ele>443</ele>
        <time>2016-04-15T13:25:22Z</time>
      </trkpt>
      <trkpt lat="43.84004" lon="3.57705">
        <ele>443</ele>
        <time>2016-04-15T13:25:26Z</time>
      </trkpt>
      <trkpt lat="43.84009" lon="3.57707">
        <ele>442</ele>
        <time>2016-04-15T13:25:31Z</time>
      </trkpt>
      <trkpt lat="43.84013" lon="3.57711">
        <ele>443</ele>
        <time>2016-04-15T13:25:36Z</time>
      </trkpt>
      <trkpt lat="43.84019" lon="3.57709">
        <ele>443</ele>
        <time>2016-04-15T13:25:40Z</time>
      </trkpt>
      <trkpt lat="43.84023" lon="3.57713">
        <ele>444</ele>
        <time>2016-04-15T13:25:45Z</time>
      </trkpt>
      <trkpt lat="43.84026" lon="3.57717">
        <ele>444</ele>
        <time>2016-04-15T13:25:49Z</time>
      </trkpt>
      <trkpt lat="43.84035" lon="3.5772">
        <ele>444</ele>
        <time>2016-04-15T13:25:57Z</time>
      </trkpt>
      <trkpt lat="43.84038" lon="3.57727">
        <ele>445</ele>
        <time>2016-04-15T13:26:03Z</time>
      </trkpt>
      <trkpt lat="43.84048" lon="3.57726">
        <ele>443</ele>
        <time>2016-04-15T13:26:14Z</time>
      </trkpt>
      <trkpt lat="43.84057" lon="3.57732">
        <ele>441</ele>
        <time>2016-04-15T13:26:26Z</time>
      </trkpt>
      <trkpt lat="43.84066" lon="3.57732">
        <ele>438</ele>
        <time>2016-04-15T13:26:32Z</time>
      </trkpt>
      <trkpt lat="43.84076" lon="3.57737">
        <ele>436</ele>
        <time>2016-04-15T13:26:42Z</time>
      </trkpt>
      <trkpt lat="43.84079" lon="3.57742">
        <ele>437</ele>
        <time>2016-04-15T13:26:48Z</time>
      </trkpt>
      <trkpt lat="43.84084" lon="3.57739">
        <ele>436</ele>
        <time>2016-04-15T13:27:06Z</time>
      </trkpt>
      <trkpt lat="43.84085" lon="3.57735">
        <ele>433</ele>
        <time>2016-04-15T13:29:04Z</time>
      </trkpt>
      <trkpt lat="43.84091" lon="3.57741">
        <ele>433</ele>
        <time>2016-04-15T13:29:27Z</time>
      </trkpt>
      <trkpt lat="43.84098" lon="3.5775">
        <ele>433</ele>
        <time>2016-04-15T13:29:39Z</time>
      </trkpt>
      <trkpt lat="43.84105" lon="3.57749">
        <ele>436</ele>
        <time>2016-04-15T13:29:46Z</time>
      </trkpt>
      <trkpt lat="43.84114" lon="3.57746">
        <ele>436</ele>
        <time>2016-04-15T13:29:55Z</time>
      </trkpt>
      <trkpt lat="43.84123" lon="3.57747">
        <ele>436</ele>
        <time>2016-04-15T13:30:10Z</time>
      </trkpt>
      <trkpt lat="43.84129" lon="3.57746">
        <ele>436</ele>
        <time>2016-04-15T13:30:17Z</time>
      </trkpt>
      <trkpt lat="43.84132" lon="3.57746">
        <ele>436</ele>
        <time>2016-04-15T13:30:26Z</time>
      </trkpt>
      <trkpt lat="43.84136" lon="3.5775">
        <ele>436</ele>
        <time>2016-04-15T13:30:34Z</time>
      </trkpt>
      <trkpt lat="43.84141" lon="3.57752">
        <ele>436</ele>
        <time>2016-04-15T13:30:41Z</time>
      </trkpt>
      <trkpt lat="43.8415" lon="3.57758">
        <ele>438</ele>
        <time>2016-04-15T13:30:51Z</time>
      </trkpt>
      <trkpt lat="43.84153" lon="3.57762">
        <ele>438</ele>
        <time>2016-04-15T13:30:55Z</time>
      </trkpt>
      <trkpt lat="43.84158" lon="3.57765">
        <ele>438</ele>
        <time>2016-04-15T13:31:00Z</time>
      </trkpt>
      <trkpt lat="43.84172" lon="3.57769">
        <ele>435</ele>
        <time>2016-04-15T13:31:13Z</time>
      </trkpt>
      <trkpt lat="43.84175" lon="3.57773">
        <ele>435</ele>
        <time>2016-04-15T13:31:18Z</time>
      </trkpt>
      <trkpt lat="43.84181" lon="3.57773">
        <ele>434</ele>
        <time>2016-04-15T13:31:25Z</time>
      </trkpt>
      <trkpt lat="43.84185" lon="3.57777">
        <ele>434</ele>
        <time>2016-04-15T13:31:30Z</time>
      </trkpt>
      <trkpt lat="43.84195" lon="3.57783">
        <ele>434</ele>
        <time>2016-04-15T13:31:40Z</time>
      </trkpt>
      <trkpt lat="43.842" lon="3.57784">
        <ele>434</ele>
        <time>2016-04-15T13:31:44Z</time>
      </trkpt>
      <trkpt lat="43.84204" lon="3.57788">
        <ele>434</ele>
        <time>2016-04-15T13:31:50Z</time>
      </trkpt>
      <trkpt lat="43.84209" lon="3.57788">
        <ele>434</ele>
        <time>2016-04-15T13:31:58Z</time>
      </trkpt>
      <trkpt lat="43.84213" lon="3.57785">
        <ele>435</ele>
        <time>2016-04-15T13:32:02Z</time>
      </trkpt>
      <trkpt lat="43.84218" lon="3.57789">
        <ele>438</ele>
        <time>2016-04-15T13:32:08Z</time>
      </trkpt>
      <trkpt lat="43.84223" lon="3.578">
        <ele>443</ele>
        <time>2016-04-15T13:32:16Z</time>
      </trkpt>
      <trkpt lat="43.84228" lon="3.57797">
        <ele>444</ele>
        <time>2016-04-15T13:32:21Z</time>
      </trkpt>
      <trkpt lat="43.84232" lon="3.57794">
        <ele>445</ele>
        <time>2016-04-15T13:32:25Z</time>
      </trkpt>
      <trkpt lat="43.84237" lon="3.57793">
        <ele>445</ele>
        <time>2016-04-15T13:32:29Z</time>
      </trkpt>
      <trkpt lat="43.84242" lon="3.57794">
        <ele>443</ele>
        <time>2016-04-15T13:32:34Z</time>
      </trkpt>
      <trkpt lat="43.84241" lon="3.57801">
        <ele>442</ele>
        <time>2016-04-15T13:32:38Z</time>
      </trkpt>
      <trkpt lat="43.84247" lon="3.57803">
        <ele>440</ele>
        <time>2016-04-15T13:32:47Z</time>
      </trkpt>
      <trkpt lat="43.84265" lon="3.578">
        <ele>436</ele>
        <time>2016-04-15T13:33:01Z</time>
      </trkpt>
      <trkpt lat="43.8427" lon="3.57803">
        <ele>436</ele>
        <time>2016-04-15T13:33:05Z</time>
      </trkpt>
      <trkpt lat="43.84273" lon="3.57807">
        <ele>437</ele>
        <time>2016-04-15T13:33:10Z</time>
      </trkpt>
      <trkpt lat="43.84272" lon="3.57815">
        <ele>437</ele>
        <time>2016-04-15T13:33:15Z</time>
      </trkpt>
      <trkpt lat="43.84275" lon="3.5782">
        <ele>436</ele>
        <time>2016-04-15T13:33:21Z</time>
      </trkpt>
      <trkpt lat="43.84283" lon="3.57826">
        <ele>435</ele>
        <time>2016-04-15T13:33:32Z</time>
      </trkpt>
      <trkpt lat="43.84293" lon="3.57824">
        <ele>436</ele>
        <time>2016-04-15T13:33:40Z</time>
      </trkpt>
      <trkpt lat="43.84302" lon="3.57824">
        <ele>437</ele>
        <time>2016-04-15T13:33:49Z</time>
      </trkpt>
      <trkpt lat="43.84306" lon="3.5783">
        <ele>437</ele>
        <time>2016-04-15T13:33:55Z</time>
      </trkpt>
      <trkpt lat="43.8431" lon="3.57834">
        <ele>437</ele>
        <time>2016-04-15T13:34:01Z</time>
      </trkpt>
      <trkpt lat="43.84315" lon="3.57835">
        <ele>437</ele>
        <time>2016-04-15T13:34:06Z</time>
      </trkpt>
      <trkpt lat="43.84325" lon="3.57834">
        <ele>437</ele>
        <time>2016-04-15T13:34:16Z</time>
      </trkpt>
      <trkpt lat="43.84339" lon="3.57833">
        <ele>431</ele>
        <time>2016-04-15T13:34:36Z</time>
      </trkpt>
      <trkpt lat="43.84348" lon="3.57825">
        <ele>429</ele>
        <time>2016-04-15T13:34:46Z</time>
      </trkpt>
      <trkpt lat="43.84355" lon="3.57815">
        <ele>428</ele>
        <time>2016-04-15T13:34:54Z</time>
      </trkpt>
      <trkpt lat="43.84358" lon="3.5781">
        <ele>429</ele>
        <time>2016-04-15T13:34:58Z</time>
      </trkpt>
      <trkpt lat="43.84363" lon="3.57807">
        <ele>428</ele>
        <time>2016-04-15T13:35:02Z</time>
      </trkpt>
      <trkpt lat="43.84365" lon="3.57801">
        <ele>428</ele>
        <time>2016-04-15T13:35:06Z</time>
      </trkpt>
      <trkpt lat="43.84367" lon="3.57794">
        <ele>428</ele>
        <time>2016-04-15T13:35:11Z</time>
      </trkpt>
      <trkpt lat="43.8437" lon="3.57788">
        <ele>428</ele>
        <time>2016-04-15T13:35:16Z</time>
      </trkpt>
      <trkpt lat="43.84371" lon="3.5778">
        <ele>428</ele>
        <time>2016-04-15T13:35:22Z</time>
      </trkpt>
      <trkpt lat="43.84372" lon="3.57774">
        <ele>428</ele>
        <time>2016-04-15T13:35:26Z</time>
      </trkpt>
      <trkpt lat="43.84373" lon="3.57767">
        <ele>428</ele>
        <time>2016-04-15T13:35:31Z</time>
      </trkpt>
      <trkpt lat="43.84375" lon="3.57754">
        <ele>430</ele>
        <time>2016-04-15T13:35:40Z</time>
      </trkpt>
      <trkpt lat="43.84373" lon="3.57748">
        <ele>430</ele>
        <time>2016-04-15T13:35:44Z</time>
      </trkpt>
      <trkpt lat="43.84373" lon="3.57741">
        <ele>430</ele>
        <time>2016-04-15T13:35:49Z</time>
      </trkpt>
      <trkpt lat="43.8438" lon="3.57715">
        <ele>432</ele>
        <time>2016-04-15T13:36:08Z</time>
      </trkpt>
      <trkpt lat="43.84383" lon="3.5771">
        <ele>431</ele>
        <time>2016-04-15T13:36:13Z</time>
      </trkpt>
      <trkpt lat="43.84384" lon="3.57697">
        <ele>429</ele>
        <time>2016-04-15T13:36:22Z</time>
      </trkpt>
      <trkpt lat="43.84383" lon="3.57691">
        <ele>428</ele>
        <time>2016-04-15T13:36:27Z</time>
      </trkpt>
      <trkpt lat="43.84386" lon="3.57679">
        <ele>428</ele>
        <time>2016-04-15T13:36:35Z</time>
      </trkpt>
      <trkpt lat="43.84388" lon="3.57665">
        <ele>430</ele>
        <time>2016-04-15T13:36:44Z</time>
      </trkpt>
      <trkpt lat="43.84385" lon="3.57659">
        <ele>430</ele>
        <time>2016-04-15T13:36:49Z</time>
      </trkpt>
      <trkpt lat="43.84384" lon="3.57652">
        <ele>430</ele>
        <time>2016-04-15T13:36:55Z</time>
      </trkpt>
      <trkpt lat="43.84386" lon="3.57645">
        <ele>430</ele>
        <time>2016-04-15T13:37:00Z</time>
      </trkpt>
      <trkpt lat="43.84387" lon="3.57638">
        <ele>429</ele>
        <time>2016-04-15T13:37:05Z</time>
      </trkpt>
      <trkpt lat="43.84387" lon="3.57632">
        <ele>430</ele>
        <time>2016-04-15T13:37:09Z</time>
      </trkpt>
      <trkpt lat="43.8439" lon="3.57617">
        <ele>432</ele>
        <time>2016-04-15T13:37:17Z</time>
      </trkpt>
      <trkpt lat="43.84388" lon="3.57611">
        <ele>431</ele>
        <time>2016-04-15T13:37:21Z</time>
      </trkpt>
      <trkpt lat="43.84385" lon="3.57605">
        <ele>430</ele>
        <time>2016-04-15T13:37:26Z</time>
      </trkpt>
      <trkpt lat="43.84387" lon="3.57598">
        <ele>430</ele>
        <time>2016-04-15T13:37:30Z</time>
      </trkpt>
      <trkpt lat="43.84389" lon="3.57592">
        <ele>430</ele>
        <time>2016-04-15T13:37:34Z</time>
      </trkpt>
      <trkpt lat="43.84391" lon="3.57586">
        <ele>430</ele>
        <time>2016-04-15T13:37:38Z</time>
      </trkpt>
      <trkpt lat="43.8439" lon="3.5758">
        <ele>430</ele>
        <time>2016-04-15T13:37:44Z</time>
      </trkpt>
      <trkpt lat="43.84391" lon="3.57572">
        <ele>431</ele>
        <time>2016-04-15T13:37:50Z</time>
      </trkpt>
      <trkpt lat="43.84393" lon="3.57565">
        <ele>433</ele>
        <time>2016-04-15T13:37:55Z</time>
      </trkpt>
      <trkpt lat="43.84397" lon="3.57525">
        <ele>441</ele>
        <time>2016-04-15T13:38:30Z</time>
      </trkpt>
      <trkpt lat="43.84395" lon="3.57519">
        <ele>440</ele>
        <time>2016-04-15T13:38:37Z</time>
      </trkpt>
      <trkpt lat="43.84395" lon="3.57506">
        <ele>440</ele>
        <time>2016-04-15T13:38:52Z</time>
      </trkpt>
      <trkpt lat="43.84395" lon="3.57499">
        <ele>441</ele>
        <time>2016-04-15T13:38:58Z</time>
      </trkpt>
      <trkpt lat="43.84392" lon="3.57494">
        <ele>441</ele>
        <time>2016-04-15T13:39:04Z</time>
      </trkpt>
      <trkpt lat="43.84394" lon="3.57487">
        <ele>441</ele>
        <time>2016-04-15T13:39:11Z</time>
      </trkpt>
      <trkpt lat="43.84398" lon="3.57482">
        <ele>441</ele>
        <time>2016-04-15T13:39:15Z</time>
      </trkpt>
      <trkpt lat="43.84401" lon="3.57477">
        <ele>440</ele>
        <time>2016-04-15T13:39:20Z</time>
      </trkpt>
      <trkpt lat="43.84403" lon="3.57471">
        <ele>440</ele>
        <time>2016-04-15T13:39:26Z</time>
      </trkpt>
      <trkpt lat="43.84406" lon="3.57465">
        <ele>441</ele>
        <time>2016-04-15T13:39:31Z</time>
      </trkpt>
      <trkpt lat="43.84406" lon="3.57458">
        <ele>442</ele>
        <time>2016-04-15T13:39:37Z</time>
      </trkpt>
      <trkpt lat="43.84411" lon="3.57446">
        <ele>444</ele>
        <time>2016-04-15T13:39:48Z</time>
      </trkpt>
      <trkpt lat="43.84415" lon="3.57442">
        <ele>445</ele>
        <time>2016-04-15T13:39:52Z</time>
      </trkpt>
      <trkpt lat="43.84415" lon="3.57435">
        <ele>445</ele>
        <time>2016-04-15T13:39:58Z</time>
      </trkpt>
      <trkpt lat="43.84412" lon="3.5743">
        <ele>442</ele>
        <time>2016-04-15T13:40:05Z</time>
      </trkpt>
      <trkpt lat="43.84416" lon="3.57418">
        <ele>437</ele>
        <time>2016-04-15T13:40:20Z</time>
      </trkpt>
      <trkpt lat="43.84419" lon="3.57413">
        <ele>437</ele>
        <time>2016-04-15T13:40:24Z</time>
      </trkpt>
      <trkpt lat="43.84422" lon="3.57408">
        <ele>438</ele>
        <time>2016-04-15T13:40:28Z</time>
      </trkpt>
      <trkpt lat="43.84429" lon="3.57399">
        <ele>441</ele>
        <time>2016-04-15T13:40:40Z</time>
      </trkpt>
      <trkpt lat="43.84429" lon="3.57392">
        <ele>440</ele>
        <time>2016-04-15T13:40:46Z</time>
      </trkpt>
      <trkpt lat="43.84431" lon="3.57387">
        <ele>440</ele>
        <time>2016-04-15T13:40:52Z</time>
      </trkpt>
      <trkpt lat="43.84432" lon="3.57381">
        <ele>442</ele>
        <time>2016-04-15T13:41:00Z</time>
      </trkpt>
      <trkpt lat="43.84429" lon="3.57375">
        <ele>443</ele>
        <time>2016-04-15T13:41:07Z</time>
      </trkpt>
      <trkpt lat="43.84432" lon="3.5737">
        <ele>444</ele>
        <time>2016-04-15T13:41:12Z</time>
      </trkpt>
      <trkpt lat="43.84437" lon="3.57367">
        <ele>445</ele>
        <time>2016-04-15T13:41:16Z</time>
      </trkpt>
      <trkpt lat="43.84446" lon="3.57351">
        <ele>449</ele>
        <time>2016-04-15T13:41:31Z</time>
      </trkpt>
      <trkpt lat="43.84447" lon="3.57344">
        <ele>449</ele>
        <time>2016-04-15T13:41:39Z</time>
      </trkpt>
      <trkpt lat="43.84447" lon="3.57338">
        <ele>449</ele>
        <time>2016-04-15T13:41:45Z</time>
      </trkpt>
      <trkpt lat="43.84451" lon="3.57334">
        <ele>448</ele>
        <time>2016-04-15T13:41:51Z</time>
      </trkpt>
      <trkpt lat="43.84456" lon="3.57333">
        <ele>448</ele>
        <time>2016-04-15T13:41:56Z</time>
      </trkpt>
      <trkpt lat="43.84458" lon="3.57328">
        <ele>449</ele>
        <time>2016-04-15T13:42:31Z</time>
      </trkpt>
      <trkpt lat="43.84459" lon="3.57326">
        <ele>449</ele>
        <time>2016-04-15T13:43:07Z</time>
      </trkpt>
      <trkpt lat="43.84454" lon="3.57324">
        <ele>448</ele>
        <time>2016-04-15T13:43:16Z</time>
      </trkpt>
      <trkpt lat="43.84449" lon="3.57315">
        <ele>446</ele>
        <time>2016-04-15T13:43:37Z</time>
      </trkpt>
      <trkpt lat="43.84451" lon="3.57306">
        <ele>445</ele>
        <time>2016-04-15T13:43:45Z</time>
      </trkpt>
      <trkpt lat="43.8445" lon="3.573">
        <ele>445</ele>
        <time>2016-04-15T13:43:52Z</time>
      </trkpt>
      <trkpt lat="43.84454" lon="3.57289">
        <ele>446</ele>
        <time>2016-04-15T13:44:06Z</time>
      </trkpt>
      <trkpt lat="43.84459" lon="3.57279">
        <ele>450</ele>
        <time>2016-04-15T13:44:20Z</time>
      </trkpt>
      <trkpt lat="43.8446" lon="3.57272">
        <ele>453</ele>
        <time>2016-04-15T13:44:28Z</time>
      </trkpt>
      <trkpt lat="43.84463" lon="3.57267">
        <ele>453</ele>
        <time>2016-04-15T13:44:34Z</time>
      </trkpt>
      <trkpt lat="43.8447" lon="3.57258">
        <ele>457</ele>
        <time>2016-04-15T13:44:46Z</time>
      </trkpt>
      <trkpt lat="43.84469" lon="3.57252">
        <ele>458</ele>
        <time>2016-04-15T13:44:53Z</time>
      </trkpt>
      <trkpt lat="43.84465" lon="3.57248">
        <ele>457</ele>
        <time>2016-04-15T13:44:59Z</time>
      </trkpt>
      <trkpt lat="43.84462" lon="3.57242">
        <ele>457</ele>
        <time>2016-04-15T13:45:14Z</time>
      </trkpt>
      <trkpt lat="43.84465" lon="3.57237">
        <ele>461</ele>
        <time>2016-04-15T13:45:23Z</time>
      </trkpt>
      <trkpt lat="43.8447" lon="3.57228">
        <ele>464</ele>
        <time>2016-04-15T13:45:37Z</time>
      </trkpt>
      <trkpt lat="43.84473" lon="3.57227">
        <ele>463</ele>
        <time>2016-04-15T13:45:48Z</time>
      </trkpt>
      <trkpt lat="43.84475" lon="3.57219">
        <ele>463</ele>
        <time>2016-04-15T13:46:01Z</time>
      </trkpt>
      <trkpt lat="43.84472" lon="3.57212">
        <ele>464</ele>
        <time>2016-04-15T13:46:09Z</time>
      </trkpt>
      <trkpt lat="43.84476" lon="3.57207">
        <ele>466</ele>
        <time>2016-04-15T13:46:15Z</time>
      </trkpt>
      <trkpt lat="43.84477" lon="3.57198">
        <ele>470</ele>
        <time>2016-04-15T13:46:30Z</time>
      </trkpt>
      <trkpt lat="43.84476" lon="3.5719">
        <ele>473</ele>
        <time>2016-04-15T13:46:41Z</time>
      </trkpt>
      <trkpt lat="43.8448" lon="3.57169">
        <ele>476</ele>
        <time>2016-04-15T13:47:07Z</time>
      </trkpt>
      <trkpt lat="43.8448" lon="3.57159">
        <ele>475</ele>
        <time>2016-04-15T13:47:21Z</time>
      </trkpt>
      <trkpt lat="43.84492" lon="3.57136">
        <ele>478</ele>
        <time>2016-04-15T13:47:46Z</time>
      </trkpt>
      <trkpt lat="43.84492" lon="3.5713">
        <ele>479</ele>
        <time>2016-04-15T13:47:52Z</time>
      </trkpt>
      <trkpt lat="43.84489" lon="3.57112">
        <ele>476</ele>
        <time>2016-04-15T13:48:08Z</time>
      </trkpt>
      <trkpt lat="43.84491" lon="3.57107">
        <ele>477</ele>
        <time>2016-04-15T13:48:14Z</time>
      </trkpt>
      <trkpt lat="43.84494" lon="3.57102">
        <ele>477</ele>
        <time>2016-04-15T13:48:23Z</time>
      </trkpt>
      <trkpt lat="43.84498" lon="3.57099">
        <ele>479</ele>
        <time>2016-04-15T13:48:32Z</time>
      </trkpt>
      <trkpt lat="43.84503" lon="3.57082">
        <ele>484</ele>
        <time>2016-04-15T13:48:56Z</time>
      </trkpt>
      <trkpt lat="43.84507" lon="3.57078">
        <ele>487</ele>
        <time>2016-04-15T13:49:02Z</time>
      </trkpt>
      <trkpt lat="43.8451" lon="3.57066">
        <ele>490</ele>
        <time>2016-04-15T13:49:21Z</time>
      </trkpt>
      <trkpt lat="43.84512" lon="3.57061">
        <ele>489</ele>
        <time>2016-04-15T13:49:29Z</time>
      </trkpt>
      <trkpt lat="43.84512" lon="3.57052">
        <ele>488</ele>
        <time>2016-04-15T13:49:42Z</time>
      </trkpt>
      <trkpt lat="43.84514" lon="3.57047">
        <ele>488</ele>
        <time>2016-04-15T13:49:51Z</time>
      </trkpt>
      <trkpt lat="43.84515" lon="3.57043">
        <ele>490</ele>
        <time>2016-04-15T13:49:57Z</time>
      </trkpt>
      <trkpt lat="43.84515" lon="3.57037">
        <ele>490</ele>
        <time>2016-04-15T13:50:05Z</time>
      </trkpt>
      <trkpt lat="43.8451" lon="3.57034">
        <ele>489</ele>
        <time>2016-04-15T13:50:19Z</time>
      </trkpt>
      <trkpt lat="43.84509" lon="3.5704">
        <ele>489</ele>
        <time>2016-04-15T13:50:28Z</time>
      </trkpt>
      <trkpt lat="43.84504" lon="3.57048">
        <ele>490</ele>
        <time>2016-04-15T13:50:43Z</time>
      </trkpt>
      <trkpt lat="43.845" lon="3.5705">
        <ele>491</ele>
        <time>2016-04-15T13:50:50Z</time>
      </trkpt>
      <trkpt lat="43.84498" lon="3.57055">
        <ele>495</ele>
        <time>2016-04-15T13:51:17Z</time>
      </trkpt>
      <trkpt lat="43.84493" lon="3.57055">
        <ele>495</ele>
        <time>2016-04-15T13:51:22Z</time>
      </trkpt>
      <trkpt lat="43.8449" lon="3.57059">
        <ele>495</ele>
        <time>2016-04-15T13:51:31Z</time>
      </trkpt>
      <trkpt lat="43.84485" lon="3.5706">
        <ele>495</ele>
        <time>2016-04-15T13:51:40Z</time>
      </trkpt>
      <trkpt lat="43.84484" lon="3.57057">
        <ele>497</ele>
        <time>2016-04-15T13:51:51Z</time>
      </trkpt>
      <trkpt lat="43.84484" lon="3.57048">
        <ele>500</ele>
        <time>2016-04-15T13:52:08Z</time>
      </trkpt>
      <trkpt lat="43.84488" lon="3.5703">
        <ele>501</ele>
        <time>2016-04-15T13:52:32Z</time>
      </trkpt>
      <trkpt lat="43.84496" lon="3.57012">
        <ele>506</ele>
        <time>2016-04-15T13:53:15Z</time>
      </trkpt>
      <trkpt lat="43.84497" lon="3.57008">
        <ele>506</ele>
        <time>2016-04-15T13:53:22Z</time>
      </trkpt>
      <trkpt lat="43.84492" lon="3.57009">
        <ele>506</ele>
        <time>2016-04-15T13:53:35Z</time>
      </trkpt>
      <trkpt lat="43.84488" lon="3.57011">
        <ele>505</ele>
        <time>2016-04-15T13:53:41Z</time>
      </trkpt>
      <trkpt lat="43.84484" lon="3.57013">
        <ele>505</ele>
        <time>2016-04-15T13:53:51Z</time>
      </trkpt>
      <trkpt lat="43.84481" lon="3.57014">
        <ele>505</ele>
        <time>2016-04-15T13:54:02Z</time>
      </trkpt>
      <trkpt lat="43.84479" lon="3.57008">
        <ele>505</ele>
        <time>2016-04-15T13:54:11Z</time>
      </trkpt>
      <trkpt lat="43.84483" lon="3.57007">
        <ele>506</ele>
        <time>2016-04-15T13:55:41Z</time>
      </trkpt>
      <trkpt lat="43.84483" lon="3.57001">
        <ele>506</ele>
        <time>2016-04-15T13:55:50Z</time>
      </trkpt>
      <trkpt lat="43.84485" lon="3.5699">
        <ele>509</ele>
        <time>2016-04-15T13:56:06Z</time>
      </trkpt>
      <trkpt lat="43.84484" lon="3.56985">
        <ele>513</ele>
        <time>2016-04-15T13:56:17Z</time>
      </trkpt>
      <trkpt lat="43.84481" lon="3.56983">
        <ele>514</ele>
        <time>2016-04-15T13:56:28Z</time>
      </trkpt>
      <trkpt lat="43.84484" lon="3.56978">
        <ele>515</ele>
        <time>2016-04-15T13:56:36Z</time>
      </trkpt>
      <trkpt lat="43.84486" lon="3.56972">
        <ele>519</ele>
        <time>2016-04-15T13:56:46Z</time>
      </trkpt>
      <trkpt lat="43.84485" lon="3.56967">
        <ele>519</ele>
        <time>2016-04-15T13:56:59Z</time>
      </trkpt>
      <trkpt lat="43.84488" lon="3.56946">
        <ele>525</ele>
        <time>2016-04-15T13:57:34Z</time>
      </trkpt>
      <trkpt lat="43.84488" lon="3.56941">
        <ele>524</ele>
        <time>2016-04-15T13:57:46Z</time>
      </trkpt>
      <trkpt lat="43.84491" lon="3.56936">
        <ele>525</ele>
        <time>2016-04-15T13:57:55Z</time>
      </trkpt>
      <trkpt lat="43.84491" lon="3.56929">
        <ele>526</ele>
        <time>2016-04-15T13:58:02Z</time>
      </trkpt>
      <trkpt lat="43.84492" lon="3.56924">
        <ele>525</ele>
        <time>2016-04-15T13:58:14Z</time>
      </trkpt>
      <trkpt lat="43.845" lon="3.56901">
        <ele>530</ele>
        <time>2016-04-15T13:58:44Z</time>
      </trkpt>
      <trkpt lat="43.84502" lon="3.56889">
        <ele>531</ele>
        <time>2016-04-15T13:59:03Z</time>
      </trkpt>
      <trkpt lat="43.84503" lon="3.56886">
        <ele>532</ele>
        <time>2016-04-15T14:00:11Z</time>
      </trkpt>
      <trkpt lat="43.84501" lon="3.5688">
        <ele>532</ele>
        <time>2016-04-15T14:00:19Z</time>
      </trkpt>
      <trkpt lat="43.84501" lon="3.56877">
        <ele>534</ele>
        <time>2016-04-15T14:00:25Z</time>
      </trkpt>
      <trkpt lat="43.84504" lon="3.56864">
        <ele>541</ele>
        <time>2016-04-15T14:00:54Z</time>
      </trkpt>
      <trkpt lat="43.84507" lon="3.56858">
        <ele>544</ele>
        <time>2016-04-15T14:01:07Z</time>
      </trkpt>
      <trkpt lat="43.84508" lon="3.56852">
        <ele>545</ele>
        <time>2016-04-15T14:01:16Z</time>
      </trkpt>
      <trkpt lat="43.8451" lon="3.56846">
        <ele>545</ele>
        <time>2016-04-15T14:01:25Z</time>
      </trkpt>
      <trkpt lat="43.8451" lon="3.56842">
        <ele>545</ele>
        <time>2016-04-15T14:01:36Z</time>
      </trkpt>
      <trkpt lat="43.84508" lon="3.56836">
        <ele>546</ele>
        <time>2016-04-15T14:01:53Z</time>
      </trkpt>
      <trkpt lat="43.8451" lon="3.56833">
        <ele>547</ele>
        <time>2016-04-15T14:01:59Z</time>
      </trkpt>
      <trkpt lat="43.84507" lon="3.56828">
        <ele>546</ele>
        <time>2016-04-15T14:02:07Z</time>
      </trkpt>
      <trkpt lat="43.84503" lon="3.56823">
        <ele>545</ele>
        <time>2016-04-15T14:02:13Z</time>
      </trkpt>
      <trkpt lat="43.84503" lon="3.56815">
        <ele>544</ele>
        <time>2016-04-15T14:02:28Z</time>
      </trkpt>
      <trkpt lat="43.84491" lon="3.56796">
        <ele>549</ele>
        <time>2016-04-15T14:03:06Z</time>
      </trkpt>
      <trkpt lat="43.8449" lon="3.56784">
        <ele>549</ele>
        <time>2016-04-15T14:03:16Z</time>
      </trkpt>
      <trkpt lat="43.84485" lon="3.56772">
        <ele>548</ele>
        <time>2016-04-15T14:03:30Z</time>
      </trkpt>
      <trkpt lat="43.84483" lon="3.56766">
        <ele>548</ele>
        <time>2016-04-15T14:03:37Z</time>
      </trkpt>
      <trkpt lat="43.84482" lon="3.56759">
        <ele>550</ele>
        <time>2016-04-15T14:03:45Z</time>
      </trkpt>
      <trkpt lat="43.84479" lon="3.56754">
        <ele>550</ele>
        <time>2016-04-15T14:03:53Z</time>
      </trkpt>
      <trkpt lat="43.84478" lon="3.56747">
        <ele>552</ele>
        <time>2016-04-15T14:04:00Z</time>
      </trkpt>
      <trkpt lat="43.84477" lon="3.5674">
        <ele>552</ele>
        <time>2016-04-15T14:04:07Z</time>
      </trkpt>
      <trkpt lat="43.84479" lon="3.56727">
        <ele>551</ele>
        <time>2016-04-15T14:04:22Z</time>
      </trkpt>
      <trkpt lat="43.84481" lon="3.56721">
        <ele>552</ele>
        <time>2016-04-15T14:04:29Z</time>
      </trkpt>
      <trkpt lat="43.84481" lon="3.56714">
        <ele>552</ele>
        <time>2016-04-15T14:04:34Z</time>
      </trkpt>
      <trkpt lat="43.84475" lon="3.56703">
        <ele>554</ele>
        <time>2016-04-15T14:04:49Z</time>
      </trkpt>
      <trkpt lat="43.84476" lon="3.56697">
        <ele>555</ele>
        <time>2016-04-15T14:04:55Z</time>
      </trkpt>
      <trkpt lat="43.84474" lon="3.56684">
        <ele>555</ele>
        <time>2016-04-15T14:05:08Z</time>
      </trkpt>
      <trkpt lat="43.84474" lon="3.5667">
        <ele>555</ele>
        <time>2016-04-15T14:05:21Z</time>
      </trkpt>
      <trkpt lat="43.84473" lon="3.56664">
        <ele>555</ele>
        <time>2016-04-15T14:05:28Z</time>
      </trkpt>
      <trkpt lat="43.84471" lon="3.56652">
        <ele>555</ele>
        <time>2016-04-15T14:05:41Z</time>
      </trkpt>
      <trkpt lat="43.84469" lon="3.56645">
        <ele>555</ele>
        <time>2016-04-15T14:05:47Z</time>
      </trkpt>
      <trkpt lat="43.84466" lon="3.56625">
        <ele>558</ele>
        <time>2016-04-15T14:06:08Z</time>
      </trkpt>
      <trkpt lat="43.84466" lon="3.56612">
        <ele>558</ele>
        <time>2016-04-15T14:06:20Z</time>
      </trkpt>
      <trkpt lat="43.84466" lon="3.56605">
        <ele>558</ele>
        <time>2016-04-15T14:06:28Z</time>
      </trkpt>
      <trkpt lat="43.84466" lon="3.56599">
        <ele>560</ele>
        <time>2016-04-15T14:06:35Z</time>
      </trkpt>
      <trkpt lat="43.84465" lon="3.56592">
        <ele>560</ele>
        <time>2016-04-15T14:06:42Z</time>
      </trkpt>
      <trkpt lat="43.84468" lon="3.56579">
        <ele>561</ele>
        <time>2016-04-15T14:06:56Z</time>
      </trkpt>
      <trkpt lat="43.8447" lon="3.56573">
        <ele>561</ele>
        <time>2016-04-15T14:07:03Z</time>
      </trkpt>
      <trkpt lat="43.84484" lon="3.56554">
        <ele>562</ele>
        <time>2016-04-15T14:07:32Z</time>
      </trkpt>
      <trkpt lat="43.84487" lon="3.56548">
        <ele>562</ele>
        <time>2016-04-15T14:07:38Z</time>
      </trkpt>
      <trkpt lat="43.84488" lon="3.56528">
        <ele>565</ele>
        <time>2016-04-15T14:07:59Z</time>
      </trkpt>
      <trkpt lat="43.8449" lon="3.56523">
        <ele>566</ele>
        <time>2016-04-15T14:08:08Z</time>
      </trkpt>
      <trkpt lat="43.84491" lon="3.56518">
        <ele>565</ele>
        <time>2016-04-15T14:08:59Z</time>
      </trkpt>
      <trkpt lat="43.84487" lon="3.56516">
        <ele>564</ele>
        <time>2016-04-15T14:09:17Z</time>
      </trkpt>
      <trkpt lat="43.84487" lon="3.56509">
        <ele>565</ele>
        <time>2016-04-15T14:09:24Z</time>
      </trkpt>
      <trkpt lat="43.84484" lon="3.56475">
        <ele>568</ele>
        <time>2016-04-15T14:09:59Z</time>
      </trkpt>
      <trkpt lat="43.84484" lon="3.56449">
        <ele>572</ele>
        <time>2016-04-15T14:10:31Z</time>
      </trkpt>
      <trkpt lat="43.84484" lon="3.56442">
        <ele>572</ele>
        <time>2016-04-15T14:10:39Z</time>
      </trkpt>
      <trkpt lat="43.84475" lon="3.56427">
        <ele>572</ele>
        <time>2016-04-15T14:10:59Z</time>
      </trkpt>
      <trkpt lat="43.84466" lon="3.56419">
        <ele>572</ele>
        <time>2016-04-15T14:11:12Z</time>
      </trkpt>
      <trkpt lat="43.84463" lon="3.56414">
        <ele>571</ele>
        <time>2016-04-15T14:11:18Z</time>
      </trkpt>
      <trkpt lat="43.84459" lon="3.5641">
        <ele>571</ele>
        <time>2016-04-15T14:11:24Z</time>
      </trkpt>
      <trkpt lat="43.84456" lon="3.56405">
        <ele>571</ele>
        <time>2016-04-15T14:11:31Z</time>
      </trkpt>
      <trkpt lat="43.84451" lon="3.56379">
        <ele>574</ele>
        <time>2016-04-15T14:11:59Z</time>
      </trkpt>
      <trkpt lat="43.84446" lon="3.56367">
        <ele>574</ele>
        <time>2016-04-15T14:12:10Z</time>
      </trkpt>
      <trkpt lat="43.84444" lon="3.56361">
        <ele>576</ele>
        <time>2016-04-15T14:12:19Z</time>
      </trkpt>
      <trkpt lat="43.84437" lon="3.56354">
        <ele>577</ele>
        <time>2016-04-15T14:12:33Z</time>
      </trkpt>
      <trkpt lat="43.84436" lon="3.56347">
        <ele>577</ele>
        <time>2016-04-15T14:12:38Z</time>
      </trkpt>
      <trkpt lat="43.84434" lon="3.56336">
        <ele>575</ele>
        <time>2016-04-15T14:12:52Z</time>
      </trkpt>
      <trkpt lat="43.84438" lon="3.56334">
        <ele>574</ele>
        <time>2016-04-15T14:13:02Z</time>
      </trkpt>
      <trkpt lat="43.84442" lon="3.56329">
        <ele>573</ele>
        <time>2016-04-15T14:13:12Z</time>
      </trkpt>
      <trkpt lat="43.84442" lon="3.56331">
        <ele>574</ele>
        <time>2016-04-15T14:13:28Z</time>
      </trkpt>
      <trkpt lat="43.84438" lon="3.56335">
        <ele>574</ele>
        <time>2016-04-15T14:13:33Z</time>
      </trkpt>
      <trkpt lat="43.84438" lon="3.56328">
        <ele>576</ele>
        <time>2016-04-15T14:14:04Z</time>
      </trkpt>
      <trkpt lat="43.84433" lon="3.56319">
        <ele>582</ele>
        <time>2016-04-15T14:14:19Z</time>
      </trkpt>
      <trkpt lat="43.84435" lon="3.56317">
        <ele>581</ele>
        <time>2016-04-15T14:14:43Z</time>
      </trkpt>
      <trkpt lat="43.84435" lon="3.56312">
        <ele>578</ele>
        <time>2016-04-15T14:16:56Z</time>
      </trkpt>
      <trkpt lat="43.84437" lon="3.56306">
        <ele>581</ele>
        <time>2016-04-15T14:34:38Z</time>
      </trkpt>
    </trkseg>
  </trk>
</gpx>